<?xml version='1.0' encoding='UTF-8'?><gpx version="1.1" creator="JPX - https://github.com/jenetics/jpx" xmlns="http://www.topografix.com/GPX/1/1"><trk><trkseg><trkpt lat="43.141441337960565" lon="12.225847434537"><ele>239.00000000000003</ele><time>2026-03-28T09:10:05Z</time></trkpt><trkpt lat="43.141411067866045" lon="12.22575642553786"><ele>239.0</ele><time>2026-03-28T09:10:17.999Z</time></trkpt><trkpt lat="43.141367802002804" lon="12.225826607867297"><ele>239.00000000000003</ele><time>2026-03-28T09:10:21.999Z</time></trkpt><trkpt lat="43.14134262909277" lon="12.225906381229798"><ele>239.00000000000003</ele><time>2026-03-28T09:10:25.999Z</time></trkpt><trkpt lat="43.141309266748785" lon="12.226003082934565"><ele>239.0</ele><time>2026-03-28T09:10:29.001Z</time></trkpt><trkpt lat="43.14127754236015" lon="12.226091259354778"><ele>239.00000000000003</ele><time>2026-03-28T09:10:31.001Z</time></trkpt><trkpt lat="43.141228907430566" lon="12.22617949389298"><ele>239.00000000000003</ele><time>2026-03-28T09:10:33.001Z</time></trkpt><trkpt lat="43.141151542416914" lon="12.226228513607799"><ele>239.0</ele><time>2026-03-28T09:10:35.001Z</time></trkpt><trkpt lat="43.14107377627822" lon="12.226273468010673"><ele>238.99999999999997</ele><time>2026-03-28T09:10:37.001Z</time></trkpt><trkpt lat="43.140982333038146" lon="12.226300581271872"><ele>238.99999999999997</ele><time>2026-03-28T09:10:39.001Z</time></trkpt><trkpt lat="43.140868004407686" lon="12.226252283418432"><ele>239.0</ele><time>2026-03-28T09:10:41.001Z</time></trkpt><trkpt lat="43.14080000936174" lon="12.226253840392706"><ele>239.0</ele><time>2026-03-28T09:10:42.001Z</time></trkpt><trkpt lat="43.14072141399945" lon="12.226308055890161"><ele>238.79999999999998</ele><time>2026-03-28T09:10:44Z</time></trkpt><trkpt lat="43.14070988536347" lon="12.226428612958337"><ele>238.59999999999997</ele><time>2026-03-28T09:10:46Z</time></trkpt><trkpt lat="43.1408101373059" lon="12.226511646228362"><ele>238.4</ele><time>2026-03-28T09:10:48Z</time></trkpt><trkpt lat="43.140880939243154" lon="12.226547236210656"><ele>238.2</ele><time>2026-03-28T09:10:49Z</time></trkpt><trkpt lat="43.14095967494644" lon="12.226579652371383"><ele>238.0</ele><time>2026-03-28T09:10:50Z</time></trkpt><trkpt lat="43.14104661945891" lon="12.226610031894417"><ele>237.66666666666666</ele><time>2026-03-28T09:10:51Z</time></trkpt><trkpt lat="43.14113304055499" lon="12.226633587455565"><ele>237.33333333333331</ele><time>2026-03-28T09:10:52Z</time></trkpt><trkpt lat="43.14123798786571" lon="12.226668846876546"><ele>237.0</ele><time>2026-03-28T09:10:54Z</time></trkpt><trkpt lat="43.14128745658911" lon="12.226723365325963"><ele>236.66666666666669</ele><time>2026-03-28T09:10:57Z</time></trkpt><trkpt lat="43.14137070554697" lon="12.226817246463659"><ele>236.33333333333334</ele><time>2026-03-28T09:10:59Z</time></trkpt><trkpt lat="43.141420643473204" lon="12.226876402505798"><ele>236.0</ele><time>2026-03-28T09:11:00Z</time></trkpt><trkpt lat="43.141502933567516" lon="12.22692784121877"><ele>236.4</ele><time>2026-03-28T09:11:02Z</time></trkpt><trkpt lat="43.141618535653244" lon="12.22696240667892"><ele>236.8</ele><time>2026-03-28T09:11:04Z</time></trkpt><trkpt lat="43.14168211461945" lon="12.226954443409335"><ele>237.20000000000002</ele><time>2026-03-28T09:11:05Z</time></trkpt><trkpt lat="43.14176900108328" lon="12.226847282357957"><ele>237.60000000000002</ele><time>2026-03-28T09:11:07Z</time></trkpt><trkpt lat="43.141800294225305" lon="12.226730027968681"><ele>238.0</ele><time>2026-03-28T09:11:09Z</time></trkpt><trkpt lat="43.1418039430898" lon="12.226589978845098"><ele>238.0</ele><time>2026-03-28T09:11:11Z</time></trkpt><trkpt lat="43.141847431443615" lon="12.226416109651838"><ele>238.0</ele><time>2026-03-28T09:11:13Z</time></trkpt><trkpt lat="43.14190290235388" lon="12.22630227822173"><ele>238.0</ele><time>2026-03-28T09:11:14Z</time></trkpt><trkpt lat="43.141945704686705" lon="12.226181650917708"><ele>238.0</ele><time>2026-03-28T09:11:15Z</time></trkpt><trkpt lat="43.14195429013937" lon="12.22603763532067"><ele>238.0</ele><time>2026-03-28T09:11:16Z</time></trkpt><trkpt lat="43.141949722415596" lon="12.225894139229615"><ele>238.0</ele><time>2026-03-28T09:11:17Z</time></trkpt><trkpt lat="43.14198560389486" lon="12.225787455239345"><ele>238.0</ele><time>2026-03-28T09:11:18Z</time></trkpt><trkpt lat="43.14205692040035" lon="12.225730379730836"><ele>238.0</ele><time>2026-03-28T09:11:19Z</time></trkpt><trkpt lat="43.142145676695456" lon="12.225714083906116"><ele>238.0</ele><time>2026-03-28T09:11:20Z</time></trkpt><trkpt lat="43.1422393559422" lon="12.225723763774695"><ele>238.0</ele><time>2026-03-28T09:11:21Z</time></trkpt><trkpt lat="43.14234398017681" lon="12.225714525899136"><ele>238.25</ele><time>2026-03-28T09:11:22Z</time></trkpt><trkpt lat="43.14244437510609" lon="12.225665422876386"><ele>238.5</ele><time>2026-03-28T09:11:23Z</time></trkpt><trkpt lat="43.14252419578392" lon="12.225558953721544"><ele>238.75</ele><time>2026-03-28T09:11:24Z</time></trkpt><trkpt lat="43.142589082755165" lon="12.225424337051608"><ele>239.0</ele><time>2026-03-28T09:11:25Z</time></trkpt><trkpt lat="43.14265455223095" lon="12.225280604356458"><ele>238.5</ele><time>2026-03-28T09:11:26Z</time></trkpt><trkpt lat="43.14272978982668" lon="12.225135474173815"><ele>238.0</ele><time>2026-03-28T09:11:27Z</time></trkpt><trkpt lat="43.142805751172794" lon="12.224994440823439"><ele>237.5</ele><time>2026-03-28T09:11:28Z</time></trkpt><trkpt lat="43.142889580212106" lon="12.224864155300919"><ele>237.0</ele><time>2026-03-28T09:11:29Z</time></trkpt><trkpt lat="43.14298047641631" lon="12.224726238761269"><ele>237.0</ele><time>2026-03-28T09:11:30Z</time></trkpt><trkpt lat="43.14307058714327" lon="12.224576764120995"><ele>237.0</ele><time>2026-03-28T09:11:31Z</time></trkpt><trkpt lat="43.143161460444034" lon="12.224422836004544"><ele>237.0</ele><time>2026-03-28T09:11:32Z</time></trkpt><trkpt lat="43.14326029893476" lon="12.224268492269386"><ele>237.0</ele><time>2026-03-28T09:11:33Z</time></trkpt><trkpt lat="43.143363734504824" lon="12.224121964326992"><ele>238.33333333333331</ele><time>2026-03-28T09:11:34Z</time></trkpt><trkpt lat="43.14346849574098" lon="12.223977208159386"><ele>239.66666666666666</ele><time>2026-03-28T09:11:35Z</time></trkpt><trkpt lat="43.143582178720244" lon="12.223837852301394"><ele>241.0</ele><time>2026-03-28T09:11:36Z</time></trkpt><trkpt lat="43.14370741614331" lon="12.223706928001235"><ele>241.0</ele><time>2026-03-28T09:11:37Z</time></trkpt><trkpt lat="43.14383140444848" lon="12.223582427935364"><ele>241.0</ele><time>2026-03-28T09:11:38Z</time></trkpt><trkpt lat="43.14395582615903" lon="12.223447109301514"><ele>241.0</ele><time>2026-03-28T09:11:38.999Z</time></trkpt><trkpt lat="43.144072955293865" lon="12.22331044600684"><ele>241.25</ele><time>2026-03-28T09:11:39.999Z</time></trkpt><trkpt lat="43.144174454214095" lon="12.22318354756406"><ele>241.5</ele><time>2026-03-28T09:11:40.999Z</time></trkpt><trkpt lat="43.1442735455829" lon="12.223049287243976"><ele>241.75</ele><time>2026-03-28T09:11:41.999Z</time></trkpt><trkpt lat="43.14439707488425" lon="12.222949724946519"><ele>242.0</ele><time>2026-03-28T09:11:42.999Z</time></trkpt><trkpt lat="43.14451585792224" lon="12.22282492753188"><ele>242.0</ele><time>2026-03-28T09:11:43.999Z</time></trkpt><trkpt lat="43.144652970405524" lon="12.222725249675602"><ele>242.0</ele><time>2026-03-28T09:11:44.999Z</time></trkpt><trkpt lat="43.1447905284766" lon="12.222621824024028"><ele>242.0</ele><time>2026-03-28T09:11:45.999Z</time></trkpt><trkpt lat="43.144929595478416" lon="12.222522031874576"><ele>242.0</ele><time>2026-03-28T09:11:46.999Z</time></trkpt><trkpt lat="43.145078329708056" lon="12.222424060236609"><ele>242.0</ele><time>2026-03-28T09:11:47.999Z</time></trkpt><trkpt lat="43.14522830087992" lon="12.222330741185653"><ele>242.0</ele><time>2026-03-28T09:11:48.999Z</time></trkpt><trkpt lat="43.14537990736647" lon="12.222233699906978"><ele>242.0</ele><time>2026-03-28T09:11:49.999Z</time></trkpt><trkpt lat="43.145531054322504" lon="12.222135286943466"><ele>242.0</ele><time>2026-03-28T09:11:50.999Z</time></trkpt><trkpt lat="43.14568918394702" lon="12.222046255345857"><ele>242.0</ele><time>2026-03-28T09:11:51.999Z</time></trkpt><trkpt lat="43.14584263746354" lon="12.221945988050564"><ele>242.0</ele><time>2026-03-28T09:11:52.999Z</time></trkpt><trkpt lat="43.14599950728259" lon="12.221840901698886"><ele>242.0</ele><time>2026-03-28T09:11:53.999Z</time></trkpt><trkpt lat="43.14615532668816" lon="12.221733949688204"><ele>242.0</ele><time>2026-03-28T09:11:54.999Z</time></trkpt><trkpt lat="43.14631166223618" lon="12.221622455104772"><ele>242.0</ele><time>2026-03-28T09:11:55.999Z</time></trkpt><trkpt lat="43.14646858564927" lon="12.221508408145397"><ele>242.0</ele><time>2026-03-28T09:11:56.999Z</time></trkpt><trkpt lat="43.146626607606734" lon="12.221394035018875"><ele>242.0</ele><time>2026-03-28T09:11:57.999Z</time></trkpt><trkpt lat="43.14678402258284" lon="12.221282367480905"><ele>242.66666666666669</ele><time>2026-03-28T09:11:58.999Z</time></trkpt><trkpt lat="43.146942392702464" lon="12.221173719231103"><ele>243.33333333333331</ele><time>2026-03-28T09:11:59.999Z</time></trkpt><trkpt lat="43.14710041630271" lon="12.22107151951864"><ele>244.0</ele><time>2026-03-28T09:12:00.999Z</time></trkpt><trkpt lat="43.14725697965613" lon="12.220973162641004"><ele>244.0</ele><time>2026-03-28T09:12:01.999Z</time></trkpt><trkpt lat="43.147407083416105" lon="12.22087836574495"><ele>244.0</ele><time>2026-03-28T09:12:02.999Z</time></trkpt><trkpt lat="43.14754453496913" lon="12.220789233935701"><ele>244.0</ele><time>2026-03-28T09:12:03.999Z</time></trkpt><trkpt lat="43.147670549869076" lon="12.220708496338714"><ele>243.79999999999998</ele><time>2026-03-28T09:12:04.999Z</time></trkpt><trkpt lat="43.14778594015147" lon="12.220633944655507"><ele>243.59999999999997</ele><time>2026-03-28T09:12:05.999Z</time></trkpt><trkpt lat="43.147887721529045" lon="12.220565590913886"><ele>243.4</ele><time>2026-03-28T09:12:06.999Z</time></trkpt><trkpt lat="43.14797244394902" lon="12.220508120230335"><ele>243.2</ele><time>2026-03-28T09:12:07.999Z</time></trkpt><trkpt lat="43.14803892800515" lon="12.22046942028539"><ele>243.0</ele><time>2026-03-28T09:12:08.999Z</time></trkpt><trkpt lat="43.14810306309494" lon="12.220440328156924"><ele>243.0</ele><time>2026-03-28T09:12:09.999Z</time></trkpt><trkpt lat="43.14819569720093" lon="12.220438022878323"><ele>243.0</ele><time>2026-03-28T09:12:11.999Z</time></trkpt><trkpt lat="43.14826315328308" lon="12.22051695004487"><ele>243.0</ele><time>2026-03-28T09:12:13.999Z</time></trkpt><trkpt lat="43.14830750272235" lon="12.220641087998182"><ele>243.0</ele><time>2026-03-28T09:12:15.999Z</time></trkpt><trkpt lat="43.1483421165645" lon="12.22073326376517"><ele>243.0</ele><time>2026-03-28T09:12:16.999Z</time></trkpt><trkpt lat="43.1483613361535" lon="12.220836420068125"><ele>243.0</ele><time>2026-03-28T09:12:17.999Z</time></trkpt><trkpt lat="43.14842074007153" lon="12.220970150603632"><ele>243.60000000000002</ele><time>2026-03-28T09:12:18.999Z</time></trkpt><trkpt lat="43.148500451968154" lon="12.221033660854632"><ele>244.20000000000002</ele><time>2026-03-28T09:12:19.999Z</time></trkpt><trkpt lat="43.148596172329896" lon="12.2210511439501"><ele>244.8</ele><time>2026-03-28T09:12:20.999Z</time></trkpt><trkpt lat="43.14869347136338" lon="12.221064794699911"><ele>245.4</ele><time>2026-03-28T09:12:21.999Z</time></trkpt><trkpt lat="43.14880411064101" lon="12.221109046968497"><ele>246.0</ele><time>2026-03-28T09:12:22.999Z</time></trkpt><trkpt lat="43.1489167240731" lon="12.221123905372393"><ele>246.0</ele><time>2026-03-28T09:12:23.999Z</time></trkpt><trkpt lat="43.14903161516268" lon="12.221157276602208"><ele>246.0</ele><time>2026-03-28T09:12:24.999Z</time></trkpt><trkpt lat="43.14915016288188" lon="12.221203466772712"><ele>246.0</ele><time>2026-03-28T09:12:25.999Z</time></trkpt><trkpt lat="43.149265053740514" lon="12.221262138139743"><ele>246.0</ele><time>2026-03-28T09:12:26.999Z</time></trkpt><trkpt lat="43.14939004802143" lon="12.221318968983192"><ele>246.0</ele><time>2026-03-28T09:12:27.999Z</time></trkpt><trkpt lat="43.149522626307984" lon="12.221365578684033"><ele>246.0</ele><time>2026-03-28T09:12:28.999Z</time></trkpt><trkpt lat="43.14965380656181" lon="12.221396475494425"><ele>246.0</ele><time>2026-03-28T09:12:29.999Z</time></trkpt><trkpt lat="43.14978594825857" lon="12.221422527416236"><ele>246.0</ele><time>2026-03-28T09:12:30.999Z</time></trkpt><trkpt lat="43.149915412293495" lon="12.221446675382976"><ele>245.8</ele><time>2026-03-28T09:12:31.999Z</time></trkpt><trkpt lat="43.15004084066153" lon="12.221476217307266"><ele>245.60000000000002</ele><time>2026-03-28T09:12:32.999Z</time></trkpt><trkpt lat="43.150150178979274" lon="12.221521274593822"><ele>245.4</ele><time>2026-03-28T09:12:34Z</time></trkpt><trkpt lat="43.15025939056075" lon="12.22154360927599"><ele>245.2</ele><time>2026-03-28T09:12:35Z</time></trkpt><trkpt lat="43.1503526900497" lon="12.221567844092633"><ele>245.0</ele><time>2026-03-28T09:12:36Z</time></trkpt><trkpt lat="43.15043681754992" lon="12.22158693525365"><ele>245.33333333333334</ele><time>2026-03-28T09:12:37Z</time></trkpt><trkpt lat="43.15052902474792" lon="12.2216093857317"><ele>245.66666666666669</ele><time>2026-03-28T09:12:38Z</time></trkpt><trkpt lat="43.15061254424406" lon="12.221632644091155"><ele>246.0</ele><time>2026-03-28T09:12:39Z</time></trkpt><trkpt lat="43.15069680212368" lon="12.221651539110752"><ele>246.33333333333331</ele><time>2026-03-28T09:12:40Z</time></trkpt><trkpt lat="43.15075966704988" lon="12.221676823467089"><ele>246.66666666666666</ele><time>2026-03-28T09:12:41Z</time></trkpt><trkpt lat="43.15082271854094" lon="12.221687839385178"><ele>247.0</ele><time>2026-03-28T09:12:42Z</time></trkpt><trkpt lat="43.15090534036757" lon="12.221527745925991"><ele>246.6</ele><time>2026-03-28T09:12:45Z</time></trkpt><trkpt lat="43.15089079820567" lon="12.22136820535279"><ele>246.2</ele><time>2026-03-28T09:12:47Z</time></trkpt><trkpt lat="43.15089300348035" lon="12.221227514570483"><ele>245.8</ele><time>2026-03-28T09:12:49Z</time></trkpt><trkpt lat="43.150882724713405" lon="12.221138675626696"><ele>245.4</ele><time>2026-03-28T09:12:50Z</time></trkpt><trkpt lat="43.150901125147506" lon="12.221047903290891"><ele>245.0</ele><time>2026-03-28T09:12:51Z</time></trkpt><trkpt lat="43.150908749752226" lon="12.220895107949424"><ele>245.0</ele><time>2026-03-28T09:12:53Z</time></trkpt><trkpt lat="43.15089805292904" lon="12.220804852714416"><ele>245.0</ele><time>2026-03-28T09:12:54Z</time></trkpt><trkpt lat="43.15091177182772" lon="12.220684894364743"><ele>245.0</ele><time>2026-03-28T09:12:56Z</time></trkpt><trkpt lat="43.15091245732052" lon="12.220549282164455"><ele>245.0</ele><time>2026-03-28T09:12:58Z</time></trkpt><trkpt lat="43.1509047170509" lon="12.22044912935094"><ele>245.0</ele><time>2026-03-28T09:13:00Z</time></trkpt><trkpt lat="43.15090341236449" lon="12.220246124341166"><ele>244.83333333333334</ele><time>2026-03-28T09:13:02Z</time></trkpt><trkpt lat="43.15090315797793" lon="12.220144809909023"><ele>244.66666666666669</ele><time>2026-03-28T09:13:03Z</time></trkpt><trkpt lat="43.150905175973435" lon="12.220052123412975"><ele>244.5</ele><time>2026-03-28T09:13:04Z</time></trkpt><trkpt lat="43.150906040512744" lon="12.219963285014124"><ele>244.33333333333331</ele><time>2026-03-28T09:13:05Z</time></trkpt><trkpt lat="43.150902947962756" lon="12.219820287610906"><ele>244.16666666666666</ele><time>2026-03-28T09:13:07Z</time></trkpt><trkpt lat="43.15091953148809" lon="12.219696482106446"><ele>244.0</ele><time>2026-03-28T09:13:08Z</time></trkpt><trkpt lat="43.150904095352104" lon="12.219555272874457"><ele>244.39999999999998</ele><time>2026-03-28T09:13:09Z</time></trkpt><trkpt lat="43.150902708089724" lon="12.219401287620018"><ele>244.79999999999998</ele><time>2026-03-28T09:13:11Z</time></trkpt><trkpt lat="43.150902210023744" lon="12.219293509471873"><ele>245.20000000000002</ele><time>2026-03-28T09:13:13Z</time></trkpt><trkpt lat="43.15086852345086" lon="12.219168227489678"><ele>245.60000000000002</ele><time>2026-03-28T09:13:15Z</time></trkpt><trkpt lat="43.150789311185285" lon="12.219074287550658"><ele>246.0</ele><time>2026-03-28T09:13:17Z</time></trkpt><trkpt lat="43.15070464625582" lon="12.219063151747063"><ele>246.0</ele><time>2026-03-28T09:13:18Z</time></trkpt><trkpt lat="43.150630208195466" lon="12.219061494420465"><ele>246.0</ele><time>2026-03-28T09:13:19Z</time></trkpt><trkpt lat="43.15050476942637" lon="12.21907098486541"><ele>246.0</ele><time>2026-03-28T09:13:21Z</time></trkpt><trkpt lat="43.150459312784676" lon="12.218976658294553"><ele>246.0</ele><time>2026-03-28T09:13:25Z</time></trkpt><trkpt lat="43.15041102490044" lon="12.218909196969477"><ele>246.0</ele><time>2026-03-28T09:13:27Z</time></trkpt><trkpt lat="43.15035207196968" lon="12.218820717276353"><ele>246.0</ele><time>2026-03-28T09:13:29Z</time></trkpt><trkpt lat="43.15029015941733" lon="12.218721644923292"><ele>246.20000000000002</ele><time>2026-03-28T09:13:32Z</time></trkpt><trkpt lat="43.150357916285685" lon="12.218598215425255"><ele>246.40000000000003</ele><time>2026-03-28T09:13:33.999Z</time></trkpt><trkpt lat="43.15038634447273" lon="12.218489604102784"><ele>246.6</ele><time>2026-03-28T09:13:34.999Z</time></trkpt><trkpt lat="43.150395183537775" lon="12.2183824991069"><ele>246.8</ele><time>2026-03-28T09:13:35.999Z</time></trkpt><trkpt lat="43.15040756935133" lon="12.21828628429877"><ele>247.0</ele><time>2026-03-28T09:13:36.999Z</time></trkpt><trkpt lat="43.15041363546448" lon="12.218145510534006"><ele>246.5</ele><time>2026-03-28T09:13:37.999Z</time></trkpt><trkpt lat="43.15046028192185" lon="12.217987698100796"><ele>246.0</ele><time>2026-03-28T09:13:38.999Z</time></trkpt><trkpt lat="43.150479853659256" lon="12.217809793422951"><ele>245.5</ele><time>2026-03-28T09:13:39.999Z</time></trkpt><trkpt lat="43.15050889351219" lon="12.21765728753414"><ele>245.0</ele><time>2026-03-28T09:13:40.999Z</time></trkpt><trkpt lat="43.15053595641925" lon="12.217530737549033"><ele>245.0</ele><time>2026-03-28T09:13:41.999Z</time></trkpt><trkpt lat="43.15054707242386" lon="12.217429036835183"><ele>245.0</ele><time>2026-03-28T09:13:42.999Z</time></trkpt><trkpt lat="43.150572520034466" lon="12.21726157624724"><ele>245.0</ele><time>2026-03-28T09:13:44.999Z</time></trkpt><trkpt lat="43.150603561212144" lon="12.217113456028565"><ele>245.0</ele><time>2026-03-28T09:13:45.999Z</time></trkpt><trkpt lat="43.15066037023689" lon="12.216916675238922"><ele>245.0</ele><time>2026-03-28T09:13:46.999Z</time></trkpt><trkpt lat="43.150711814266096" lon="12.216697967244997"><ele>245.0</ele><time>2026-03-28T09:13:47.999Z</time></trkpt><trkpt lat="43.15075880479659" lon="12.216502749569635"><ele>245.0</ele><time>2026-03-28T09:13:48.999Z</time></trkpt><trkpt lat="43.15077981157057" lon="12.216326023346259"><ele>245.0</ele><time>2026-03-28T09:13:49.999Z</time></trkpt><trkpt lat="43.15080871492851" lon="12.216160903069182"><ele>245.0</ele><time>2026-03-28T09:13:50.999Z</time></trkpt><trkpt lat="43.15083030991689" lon="12.216015350185081"><ele>245.0</ele><time>2026-03-28T09:13:51.999Z</time></trkpt><trkpt lat="43.15086912943486" lon="12.215897064772781"><ele>245.0</ele><time>2026-03-28T09:13:52.999Z</time></trkpt><trkpt lat="43.150895728275664" lon="12.21576203922188"><ele>245.0</ele><time>2026-03-28T09:13:53.999Z</time></trkpt><trkpt lat="43.1509171957246" lon="12.21561306207102"><ele>245.0</ele><time>2026-03-28T09:13:54.999Z</time></trkpt><trkpt lat="43.15095615629544" lon="12.215467344722494"><ele>245.0</ele><time>2026-03-28T09:13:55.999Z</time></trkpt><trkpt lat="43.15096648266498" lon="12.21533703020055"><ele>245.0</ele><time>2026-03-28T09:13:56.999Z</time></trkpt><trkpt lat="43.150995131156584" lon="12.215219707406533"><ele>245.0</ele><time>2026-03-28T09:13:57.999Z</time></trkpt><trkpt lat="43.151034793372325" lon="12.215086696505068"><ele>245.0</ele><time>2026-03-28T09:13:58.999Z</time></trkpt><trkpt lat="43.151091130719145" lon="12.2149360653595"><ele>245.0</ele><time>2026-03-28T09:13:59.999Z</time></trkpt><trkpt lat="43.15115828751216" lon="12.214771733222081"><ele>245.6</ele><time>2026-03-28T09:14:00.999Z</time></trkpt><trkpt lat="43.1512138883208" lon="12.21460640396096"><ele>246.2</ele><time>2026-03-28T09:14:01.999Z</time></trkpt><trkpt lat="43.1512785553652" lon="12.214478451701217"><ele>246.8</ele><time>2026-03-28T09:14:02.999Z</time></trkpt><trkpt lat="43.15134289027026" lon="12.21435734313592"><ele>247.4</ele><time>2026-03-28T09:14:03.999Z</time></trkpt><trkpt lat="43.151394119762976" lon="12.214249929261266"><ele>248.0</ele><time>2026-03-28T09:14:04.999Z</time></trkpt><trkpt lat="43.15142417918482" lon="12.214124978265293"><ele>248.0</ele><time>2026-03-28T09:14:05.999Z</time></trkpt><trkpt lat="43.15144424818126" lon="12.21399458107733"><ele>248.0</ele><time>2026-03-28T09:14:06.999Z</time></trkpt><trkpt lat="43.15140578567029" lon="12.213864882697743"><ele>248.0</ele><time>2026-03-28T09:14:07.999Z</time></trkpt><trkpt lat="43.15135394275042" lon="12.213735065129201"><ele>248.0</ele><time>2026-03-28T09:14:08.999Z</time></trkpt><trkpt lat="43.15131214663862" lon="12.213608152022672"><ele>248.0</ele><time>2026-03-28T09:14:09.999Z</time></trkpt><trkpt lat="43.15128690854769" lon="12.213506101192412"><ele>249.33333333333334</ele><time>2026-03-28T09:14:10.999Z</time></trkpt><trkpt lat="43.15126869313019" lon="12.213420703720283"><ele>250.66666666666669</ele><time>2026-03-28T09:14:11.999Z</time></trkpt><trkpt lat="43.15127824644433" lon="12.213332975080581"><ele>252.0</ele><time>2026-03-28T09:14:14.999Z</time></trkpt><trkpt lat="43.15134871370224" lon="12.213411640328452"><ele>253.33333333333331</ele><time>2026-03-28T09:14:16.999Z</time></trkpt><trkpt lat="43.15140568393461" lon="12.213510122628602"><ele>254.66666666666666</ele><time>2026-03-28T09:14:17.999Z</time></trkpt><trkpt lat="43.15147298349711" lon="12.213613611639085"><ele>256.0</ele><time>2026-03-28T09:14:18.999Z</time></trkpt><trkpt lat="43.15155438777237" lon="12.213726200803011"><ele>255.5</ele><time>2026-03-28T09:14:19.999Z</time></trkpt><trkpt lat="43.15165762342196" lon="12.213843773277688"><ele>255.0</ele><time>2026-03-28T09:14:20.999Z</time></trkpt><trkpt lat="43.15177583431365" lon="12.213931876883567"><ele>254.5</ele><time>2026-03-28T09:14:21.999Z</time></trkpt><trkpt lat="43.15190277409226" lon="12.214040087108524"><ele>254.0</ele><time>2026-03-28T09:14:22.999Z</time></trkpt><trkpt lat="43.15205574460077" lon="12.214163297907222"><ele>254.0</ele><time>2026-03-28T09:14:23.999Z</time></trkpt><trkpt lat="43.15222003939314" lon="12.21425486012501"><ele>254.0</ele><time>2026-03-28T09:14:24.999Z</time></trkpt><trkpt lat="43.15239513500576" lon="12.21430413113925"><ele>254.0</ele><time>2026-03-28T09:14:25.999Z</time></trkpt><trkpt lat="43.1525842308317" lon="12.214319055877189"><ele>254.66666666666669</ele><time>2026-03-28T09:14:26.999Z</time></trkpt><trkpt lat="43.152765616765244" lon="12.214328168868674"><ele>255.33333333333331</ele><time>2026-03-28T09:14:27.999Z</time></trkpt><trkpt lat="43.15295538492983" lon="12.214332545721275"><ele>256.0</ele><time>2026-03-28T09:14:28.999Z</time></trkpt><trkpt lat="43.153136567683276" lon="12.214353688869146"><ele>257.0</ele><time>2026-03-28T09:14:29.999Z</time></trkpt><trkpt lat="43.15331785304338" lon="12.214378907794218"><ele>258.0</ele><time>2026-03-28T09:14:30.999Z</time></trkpt><trkpt lat="43.153498487520295" lon="12.21441097092964"><ele>259.0</ele><time>2026-03-28T09:14:31.999Z</time></trkpt><trkpt lat="43.153685172762486" lon="12.214458099850912"><ele>259.0</ele><time>2026-03-28T09:14:32.999Z</time></trkpt><trkpt lat="43.153879099415015" lon="12.214503466482904"><ele>259.0</ele><time>2026-03-28T09:14:33.999Z</time></trkpt><trkpt lat="43.15407028009899" lon="12.214544154217316"><ele>259.0</ele><time>2026-03-28T09:14:34.999Z</time></trkpt><trkpt lat="43.154258194990646" lon="12.214581971233265"><ele>261.0</ele><time>2026-03-28T09:14:35.999Z</time></trkpt><trkpt lat="43.154440629678426" lon="12.214636390007946"><ele>263.0</ele><time>2026-03-28T09:14:36.999Z</time></trkpt><trkpt lat="43.15461033346522" lon="12.21472586583998"><ele>265.0</ele><time>2026-03-28T09:14:37.999Z</time></trkpt><trkpt lat="43.15476255493244" lon="12.214842305423597"><ele>262.3333333333333</ele><time>2026-03-28T09:14:38.999Z</time></trkpt><trkpt lat="43.15490336891789" lon="12.214980520522307"><ele>259.6666666666667</ele><time>2026-03-28T09:14:39.999Z</time></trkpt><trkpt lat="43.15505634363695" lon="12.215096993850683"><ele>257.0</ele><time>2026-03-28T09:14:40.999Z</time></trkpt><trkpt lat="43.15522148458586" lon="12.215169320036471"><ele>257.0</ele><time>2026-03-28T09:14:41.999Z</time></trkpt><trkpt lat="43.15539362022419" lon="12.215234057314587"><ele>257.0</ele><time>2026-03-28T09:14:42.999Z</time></trkpt><trkpt lat="43.15556761684198" lon="12.215299208676269"><ele>257.0</ele><time>2026-03-28T09:14:43.999Z</time></trkpt><trkpt lat="43.15574316534215" lon="12.215361450420737"><ele>260.0</ele><time>2026-03-28T09:14:44.999Z</time></trkpt><trkpt lat="43.155925023540426" lon="12.215422712795895"><ele>263.0</ele><time>2026-03-28T09:14:45.999Z</time></trkpt><trkpt lat="43.15610903178879" lon="12.21547803802605"><ele>266.0</ele><time>2026-03-28T09:14:46.999Z</time></trkpt><trkpt lat="43.156295617248766" lon="12.215531333829407"><ele>266.0</ele><time>2026-03-28T09:14:47.999Z</time></trkpt><trkpt lat="43.156480305903706" lon="12.21558360818915"><ele>266.0</ele><time>2026-03-28T09:14:48.999Z</time></trkpt><trkpt lat="43.156667380049555" lon="12.21563651115753"><ele>266.0</ele><time>2026-03-28T09:14:49.999Z</time></trkpt><trkpt lat="43.156855441466696" lon="12.215691814159197"><ele>263.6666666666667</ele><time>2026-03-28T09:14:50.999Z</time></trkpt><trkpt lat="43.15704160726739" lon="12.215747944738373"><ele>261.3333333333333</ele><time>2026-03-28T09:14:51.999Z</time></trkpt><trkpt lat="43.157229971102836" lon="12.215802304489545"><ele>259.0</ele><time>2026-03-28T09:14:52.999Z</time></trkpt><trkpt lat="43.15742075852485" lon="12.215844986759143"><ele>259.0</ele><time>2026-03-28T09:14:53.999Z</time></trkpt><trkpt lat="43.157610970954885" lon="12.215871350926953"><ele>259.0</ele><time>2026-03-28T09:14:54.999Z</time></trkpt><trkpt lat="43.15780124455904" lon="12.215889903509837"><ele>259.0</ele><time>2026-03-28T09:14:55.999Z</time></trkpt><trkpt lat="43.157993601137896" lon="12.215908744534525"><ele>259.0</ele><time>2026-03-28T09:14:57Z</time></trkpt><trkpt lat="43.15818396124361" lon="12.21593459017377"><ele>259.0</ele><time>2026-03-28T09:14:58Z</time></trkpt><trkpt lat="43.158372169255486" lon="12.215977935665903"><ele>259.0</ele><time>2026-03-28T09:14:59Z</time></trkpt><trkpt lat="43.1585589045653" lon="12.216032609308273"><ele>259.0</ele><time>2026-03-28T09:15:00Z</time></trkpt><trkpt lat="43.15875043655968" lon="12.216090054755"><ele>259.0</ele><time>2026-03-28T09:15:01Z</time></trkpt><trkpt lat="43.15894462013824" lon="12.216143787493355"><ele>259.0</ele><time>2026-03-28T09:15:02Z</time></trkpt><trkpt lat="43.159137872349376" lon="12.216192480206262"><ele>258.66666666666663</ele><time>2026-03-28T09:15:03Z</time></trkpt><trkpt lat="43.15932985129507" lon="12.216240400910568"><ele>258.3333333333333</ele><time>2026-03-28T09:15:04Z</time></trkpt><trkpt lat="43.1595181715384" lon="12.216275992100723"><ele>258.0</ele><time>2026-03-28T09:15:05Z</time></trkpt><trkpt lat="43.159710085750696" lon="12.216295599271216"><ele>258.6666666666667</ele><time>2026-03-28T09:15:06Z</time></trkpt><trkpt lat="43.1599050171088" lon="12.216302883907064"><ele>259.33333333333337</ele><time>2026-03-28T09:15:07Z</time></trkpt><trkpt lat="43.160103935071554" lon="12.21630786214681"><ele>260.0</ele><time>2026-03-28T09:15:08Z</time></trkpt><trkpt lat="43.1603019442701" lon="12.216315338215187"><ele>260.0</ele><time>2026-03-28T09:15:09Z</time></trkpt><trkpt lat="43.160497665176514" lon="12.216313645768471"><ele>260.0</ele><time>2026-03-28T09:15:10Z</time></trkpt><trkpt lat="43.16068896489342" lon="12.216304738132541"><ele>260.0</ele><time>2026-03-28T09:15:11Z</time></trkpt><trkpt lat="43.16087644909819" lon="12.21627945153894"><ele>259.6666666666667</ele><time>2026-03-28T09:15:12Z</time></trkpt><trkpt lat="43.16106114668718" lon="12.216240081883344"><ele>259.3333333333333</ele><time>2026-03-28T09:15:13Z</time></trkpt><trkpt lat="43.161241460555786" lon="12.216188330057609"><ele>259.0</ele><time>2026-03-28T09:15:14Z</time></trkpt><trkpt lat="43.16142166959475" lon="12.216133392745395"><ele>259.0</ele><time>2026-03-28T09:15:15Z</time></trkpt><trkpt lat="43.16159636682399" lon="12.21606956090536"><ele>259.0</ele><time>2026-03-28T09:15:16Z</time></trkpt><trkpt lat="43.16177097519627" lon="12.216005479343018"><ele>259.0</ele><time>2026-03-28T09:15:17Z</time></trkpt><trkpt lat="43.161954411801126" lon="12.215939615633689"><ele>259.0</ele><time>2026-03-28T09:15:18Z</time></trkpt><trkpt lat="43.162142115542366" lon="12.215877160840222"><ele>259.0</ele><time>2026-03-28T09:15:19Z</time></trkpt><trkpt lat="43.16233366504369" lon="12.215808781082734"><ele>259.0</ele><time>2026-03-28T09:15:20Z</time></trkpt><trkpt lat="43.16252458241144" lon="12.215740270848462"><ele>258.66666666666663</ele><time>2026-03-28T09:15:21Z</time></trkpt><trkpt lat="43.1627178732394" lon="12.21567284728451"><ele>258.3333333333333</ele><time>2026-03-28T09:15:22Z</time></trkpt><trkpt lat="43.16291607310024" lon="12.21560289350333"><ele>258.0</ele><time>2026-03-28T09:15:23Z</time></trkpt><trkpt lat="43.16311542531399" lon="12.215530701152202"><ele>260.0</ele><time>2026-03-28T09:15:24Z</time></trkpt><trkpt lat="43.16331349664834" lon="12.215461237746771"><ele>262.0</ele><time>2026-03-28T09:15:25Z</time></trkpt><trkpt lat="43.16351113836395" lon="12.215391914605188"><ele>264.0</ele><time>2026-03-28T09:15:26Z</time></trkpt><trkpt lat="43.16370604111159" lon="12.215321443763516"><ele>264.0</ele><time>2026-03-28T09:15:27Z</time></trkpt><trkpt lat="43.16389809759251" lon="12.215252048770536"><ele>264.0</ele><time>2026-03-28T09:15:28Z</time></trkpt><trkpt lat="43.16409031261298" lon="12.21518069164694"><ele>264.0</ele><time>2026-03-28T09:15:29Z</time></trkpt><trkpt lat="43.164279310009064" lon="12.215097230820039"><ele>263.0</ele><time>2026-03-28T09:15:30Z</time></trkpt><trkpt lat="43.16446851924991" lon="12.215011865137697"><ele>262.0</ele><time>2026-03-28T09:15:31Z</time></trkpt><trkpt lat="43.16464638677615" lon="12.21494313861066"><ele>261.0</ele><time>2026-03-28T09:15:31.999Z</time></trkpt><trkpt lat="43.16482388416155" lon="12.214895018230575"><ele>260.6666666666667</ele><time>2026-03-28T09:15:32.999Z</time></trkpt><trkpt lat="43.165010981761874" lon="12.214905386443839"><ele>260.33333333333337</ele><time>2026-03-28T09:15:33.999Z</time></trkpt><trkpt lat="43.16520033327906" lon="12.214887264316447"><ele>260.0</ele><time>2026-03-28T09:15:34.999Z</time></trkpt><trkpt lat="43.165396094155014" lon="12.214892558009701"><ele>260.0</ele><time>2026-03-28T09:15:35.999Z</time></trkpt><trkpt lat="43.16559754607604" lon="12.214881128657021"><ele>260.0</ele><time>2026-03-28T09:15:36.999Z</time></trkpt><trkpt lat="43.165801359842334" lon="12.21487079509587"><ele>260.0</ele><time>2026-03-28T09:15:37.999Z</time></trkpt><trkpt lat="43.1660042312108" lon="12.214867008888886"><ele>260.0</ele><time>2026-03-28T09:15:38.999Z</time></trkpt><trkpt lat="43.16621195803243" lon="12.214857789513852"><ele>260.0</ele><time>2026-03-28T09:15:39.999Z</time></trkpt><trkpt lat="43.166418625419205" lon="12.214850302607276"><ele>260.0</ele><time>2026-03-28T09:15:40.999Z</time></trkpt><trkpt lat="43.16661484982584" lon="12.21484095909484"><ele>260.33333333333337</ele><time>2026-03-28T09:15:41.999Z</time></trkpt><trkpt lat="43.166790698761496" lon="12.21484191997116"><ele>260.6666666666667</ele><time>2026-03-28T09:15:42.999Z</time></trkpt><trkpt lat="43.1669542966262" lon="12.214844463986694"><ele>261.0</ele><time>2026-03-28T09:15:43.999Z</time></trkpt><trkpt lat="43.16710546416448" lon="12.214858129456031"><ele>261.0</ele><time>2026-03-28T09:15:44.999Z</time></trkpt><trkpt lat="43.167237949302034" lon="12.214917168076088"><ele>261.0</ele><time>2026-03-28T09:15:45.999Z</time></trkpt><trkpt lat="43.167362823404225" lon="12.214956570736772"><ele>261.0</ele><time>2026-03-28T09:15:46.999Z</time></trkpt><trkpt lat="43.167462971025856" lon="12.215031688695927"><ele>261.0</ele><time>2026-03-28T09:15:47.999Z</time></trkpt><trkpt lat="43.16754474609307" lon="12.215087988475412"><ele>261.25</ele><time>2026-03-28T09:15:48.999Z</time></trkpt><trkpt lat="43.16760979128738" lon="12.215153503500192"><ele>261.5</ele><time>2026-03-28T09:15:49.999Z</time></trkpt><trkpt lat="43.167678020048" lon="12.215217980285647"><ele>261.75</ele><time>2026-03-28T09:15:50.999Z</time></trkpt><trkpt lat="43.16784105051765" lon="12.215099054321849"><ele>262.0</ele><time>2026-03-28T09:15:51.999Z</time></trkpt><trkpt lat="43.16797038974507" lon="12.215063117219138"><ele>262.0</ele><time>2026-03-28T09:15:52.999Z</time></trkpt><trkpt lat="43.168112261997166" lon="12.215025310473605"><ele>262.0</ele><time>2026-03-28T09:15:53.999Z</time></trkpt><trkpt lat="43.16826321047553" lon="12.214986910821189"><ele>262.0</ele><time>2026-03-28T09:15:54.999Z</time></trkpt><trkpt lat="43.16841662703483" lon="12.21494606995726"><ele>262.75</ele><time>2026-03-28T09:15:55.999Z</time></trkpt><trkpt lat="43.1685591951744" lon="12.21491845732013"><ele>263.5</ele><time>2026-03-28T09:15:56.999Z</time></trkpt><trkpt lat="43.16869799383016" lon="12.21487418566078"><ele>264.25</ele><time>2026-03-28T09:15:57.999Z</time></trkpt><trkpt lat="43.168837514326796" lon="12.21484442577403"><ele>265.0</ele><time>2026-03-28T09:15:58.999Z</time></trkpt><trkpt lat="43.1689759936958" lon="12.21482207948016"><ele>265.25</ele><time>2026-03-28T09:15:59.999Z</time></trkpt><trkpt lat="43.16911073933094" lon="12.214808463318862"><ele>265.5</ele><time>2026-03-28T09:16:00.999Z</time></trkpt><trkpt lat="43.16925426964405" lon="12.214798270135004"><ele>265.75</ele><time>2026-03-28T09:16:01.999Z</time></trkpt><trkpt lat="43.16939044413985" lon="12.21479865752065"><ele>266.0</ele><time>2026-03-28T09:16:02.999Z</time></trkpt><trkpt lat="43.16952946126353" lon="12.214804272412534"><ele>266.0</ele><time>2026-03-28T09:16:03.999Z</time></trkpt><trkpt lat="43.169668121188884" lon="12.214803952493858"><ele>266.0</ele><time>2026-03-28T09:16:04.999Z</time></trkpt><trkpt lat="43.16980108730182" lon="12.2148082498253"><ele>266.0</ele><time>2026-03-28T09:16:05.999Z</time></trkpt><trkpt lat="43.169932944517484" lon="12.214806693708745"><ele>266.0</ele><time>2026-03-28T09:16:06.999Z</time></trkpt><trkpt lat="43.17006193967805" lon="12.21480405015057"><ele>266.75</ele><time>2026-03-28T09:16:07.999Z</time></trkpt><trkpt lat="43.17018410434418" lon="12.214808003232026"><ele>267.5</ele><time>2026-03-28T09:16:08.999Z</time></trkpt><trkpt lat="43.170295441776254" lon="12.214817531477655"><ele>268.25</ele><time>2026-03-28T09:16:09.999Z</time></trkpt><trkpt lat="43.17043015304112" lon="12.214816500011818"><ele>269.0</ele><time>2026-03-28T09:16:10.999Z</time></trkpt><trkpt lat="43.17056885472914" lon="12.214807976357097"><ele>269.75</ele><time>2026-03-28T09:16:11.999Z</time></trkpt><trkpt lat="43.17070255585336" lon="12.214801422991231"><ele>270.5</ele><time>2026-03-28T09:16:12.999Z</time></trkpt><trkpt lat="43.1708150205235" lon="12.214796199342134"><ele>271.25</ele><time>2026-03-28T09:16:13.999Z</time></trkpt><trkpt lat="43.17093518810434" lon="12.214789186545804"><ele>272.0</ele><time>2026-03-28T09:16:14.999Z</time></trkpt><trkpt lat="43.17106505450448" lon="12.214767752204079"><ele>272.0</ele><time>2026-03-28T09:16:15.999Z</time></trkpt><trkpt lat="43.171199323349306" lon="12.214743003503793"><ele>272.0</ele><time>2026-03-28T09:16:16.999Z</time></trkpt><trkpt lat="43.17133897225353" lon="12.214771599996315"><ele>272.0</ele><time>2026-03-28T09:16:17.999Z</time></trkpt><trkpt lat="43.17148321037082" lon="12.214765727956841"><ele>272.0</ele><time>2026-03-28T09:16:18.999Z</time></trkpt><trkpt lat="43.17163713371776" lon="12.214791331002436"><ele>273.33333333333337</ele><time>2026-03-28T09:16:19.999Z</time></trkpt><trkpt lat="43.171793482494614" lon="12.214814284611876"><ele>274.6666666666667</ele><time>2026-03-28T09:16:20.999Z</time></trkpt><trkpt lat="43.17194838110725" lon="12.214859612382382"><ele>276.0</ele><time>2026-03-28T09:16:21.999Z</time></trkpt><trkpt lat="43.17210865691166" lon="12.214856295511503"><ele>276.0</ele><time>2026-03-28T09:16:22.999Z</time></trkpt><trkpt lat="43.17226340119703" lon="12.21487482355404"><ele>276.0</ele><time>2026-03-28T09:16:23.999Z</time></trkpt><trkpt lat="43.172428548584776" lon="12.214884957074135"><ele>276.0</ele><time>2026-03-28T09:16:24.999Z</time></trkpt><trkpt lat="43.17258512997706" lon="12.214903455552028"><ele>277.3333333333333</ele><time>2026-03-28T09:16:25.999Z</time></trkpt><trkpt lat="43.17274073780709" lon="12.21493796356355"><ele>278.66666666666663</ele><time>2026-03-28T09:16:26.999Z</time></trkpt><trkpt lat="43.172886380921426" lon="12.214967599663215"><ele>280.0</ele><time>2026-03-28T09:16:27.999Z</time></trkpt><trkpt lat="43.17303482326731" lon="12.214996336461029"><ele>280.0</ele><time>2026-03-28T09:16:28.999Z</time></trkpt><trkpt lat="43.17317892423654" lon="12.215028796319157"><ele>280.0</ele><time>2026-03-28T09:16:29.999Z</time></trkpt><trkpt lat="43.17330905850712" lon="12.215065105807296"><ele>280.0</ele><time>2026-03-28T09:16:30.999Z</time></trkpt><trkpt lat="43.17341793946556" lon="12.215101235030804"><ele>280.0</ele><time>2026-03-28T09:16:31.999Z</time></trkpt><trkpt lat="43.17349971302137" lon="12.21513145345626"><ele>280.66666666666663</ele><time>2026-03-28T09:16:32.999Z</time></trkpt><trkpt lat="43.17357069926841" lon="12.215157739124367"><ele>281.3333333333333</ele><time>2026-03-28T09:16:33.999Z</time></trkpt><trkpt lat="43.173676410721136" lon="12.215193432248789"><ele>282.0</ele><time>2026-03-28T09:16:35.999Z</time></trkpt><trkpt lat="43.173761286982796" lon="12.215197588371678"><ele>282.6666666666667</ele><time>2026-03-28T09:16:37.999Z</time></trkpt><trkpt lat="43.17379598423445" lon="12.215110691571379"><ele>283.33333333333337</ele><time>2026-03-28T09:16:38.999Z</time></trkpt><trkpt lat="43.17383337620868" lon="12.21497715164949"><ele>284.0</ele><time>2026-03-28T09:16:40.999Z</time></trkpt><trkpt lat="43.17391867410355" lon="12.214994961587315"><ele>284.0</ele><time>2026-03-28T09:16:42.999Z</time></trkpt><trkpt lat="43.1739758268454" lon="12.215050453749019"><ele>284.0</ele><time>2026-03-28T09:16:43.999Z</time></trkpt><trkpt lat="43.17405106886948" lon="12.215073445117925"><ele>284.0</ele><time>2026-03-28T09:16:44.999Z</time></trkpt><trkpt lat="43.17415950534552" lon="12.215060684632862"><ele>284.0</ele><time>2026-03-28T09:16:45.999Z</time></trkpt><trkpt lat="43.17427544601321" lon="12.215020819160024"><ele>284.0</ele><time>2026-03-28T09:16:46.999Z</time></trkpt><trkpt lat="43.17439682800397" lon="12.214950315519415"><ele>285.25</ele><time>2026-03-28T09:16:47.999Z</time></trkpt><trkpt lat="43.17450706939974" lon="12.214936524801015"><ele>286.5</ele><time>2026-03-28T09:16:48.999Z</time></trkpt><trkpt lat="43.17462432880433" lon="12.214937180543213"><ele>287.75</ele><time>2026-03-28T09:16:49.999Z</time></trkpt><trkpt lat="43.1747510923945" lon="12.21494747126402"><ele>289.0</ele><time>2026-03-28T09:16:50.999Z</time></trkpt><trkpt lat="43.17486601297879" lon="12.21497507647245"><ele>289.8</ele><time>2026-03-28T09:16:51.999Z</time></trkpt><trkpt lat="43.17496092618495" lon="12.214964387128553"><ele>290.59999999999997</ele><time>2026-03-28T09:16:52.999Z</time></trkpt><trkpt lat="43.17506260990615" lon="12.214914011355985"><ele>291.4</ele><time>2026-03-28T09:16:53.999Z</time></trkpt><trkpt lat="43.17516394977962" lon="12.214854060049493"><ele>292.2</ele><time>2026-03-28T09:16:54.999Z</time></trkpt><trkpt lat="43.17526881733908" lon="12.214815864486265"><ele>293.0</ele><time>2026-03-28T09:16:55.999Z</time></trkpt><trkpt lat="43.17536587563101" lon="12.214743387665285"><ele>293.4</ele><time>2026-03-28T09:16:56.999Z</time></trkpt><trkpt lat="43.17544815147049" lon="12.21464446461587"><ele>293.8</ele><time>2026-03-28T09:16:57.999Z</time></trkpt><trkpt lat="43.175522097999234" lon="12.214555788266518"><ele>294.2</ele><time>2026-03-28T09:16:58.999Z</time></trkpt><trkpt lat="43.175607789263296" lon="12.214490822192767"><ele>294.6</ele><time>2026-03-28T09:16:59.999Z</time></trkpt><trkpt lat="43.175705564282666" lon="12.21445550998663"><ele>295.0</ele><time>2026-03-28T09:17:00.999Z</time></trkpt><trkpt lat="43.17581517231116" lon="12.214384498030793"><ele>297.75</ele><time>2026-03-28T09:17:01.999Z</time></trkpt><trkpt lat="43.17592647054559" lon="12.214347040264819"><ele>300.5</ele><time>2026-03-28T09:17:02.999Z</time></trkpt><trkpt lat="43.17603525362601" lon="12.214286208048435"><ele>303.25</ele><time>2026-03-28T09:17:03.999Z</time></trkpt><trkpt lat="43.1761466822728" lon="12.214238045614115"><ele>306.0</ele><time>2026-03-28T09:17:04.999Z</time></trkpt><trkpt lat="43.17624877752424" lon="12.214198128196884"><ele>306.0</ele><time>2026-03-28T09:17:05.999Z</time></trkpt><trkpt lat="43.176324363990965" lon="12.214169641390365"><ele>306.0</ele><time>2026-03-28T09:17:06.999Z</time></trkpt><trkpt lat="43.17638065046232" lon="12.214114569033962"><ele>306.0</ele><time>2026-03-28T09:17:07.999Z</time></trkpt><trkpt lat="43.17642843494254" lon="12.214008815333436"><ele>306.0</ele><time>2026-03-28T09:17:08.999Z</time></trkpt><trkpt lat="43.176479267400616" lon="12.213864071901408"><ele>306.0</ele><time>2026-03-28T09:17:09.999Z</time></trkpt><trkpt lat="43.176561585378685" lon="12.213751743303682"><ele>309.25</ele><time>2026-03-28T09:17:10.999Z</time></trkpt><trkpt lat="43.17665101305779" lon="12.213645114741253"><ele>312.5</ele><time>2026-03-28T09:17:11.999Z</time></trkpt><trkpt lat="43.176729629139786" lon="12.213516892033873"><ele>315.75</ele><time>2026-03-28T09:17:12.999Z</time></trkpt><trkpt lat="43.176798162799464" lon="12.21339003348759"><ele>319.0</ele><time>2026-03-28T09:17:13.999Z</time></trkpt><trkpt lat="43.176868426977755" lon="12.213277914277876"><ele>319.0</ele><time>2026-03-28T09:17:14.999Z</time></trkpt><trkpt lat="43.17695407463729" lon="12.213181000847204"><ele>319.0</ele><time>2026-03-28T09:17:15.999Z</time></trkpt><trkpt lat="43.17705576584333" lon="12.213066057561877"><ele>319.0</ele><time>2026-03-28T09:17:16.999Z</time></trkpt><trkpt lat="43.17715545755283" lon="12.212943923553606"><ele>319.0</ele><time>2026-03-28T09:17:17.999Z</time></trkpt><trkpt lat="43.17721946145378" lon="12.212795481569865"><ele>318.2</ele><time>2026-03-28T09:17:18.999Z</time></trkpt><trkpt lat="43.17728812215659" lon="12.21270386657476"><ele>317.4</ele><time>2026-03-28T09:17:19.999Z</time></trkpt><trkpt lat="43.17734724550998" lon="12.212622723195592"><ele>316.6</ele><time>2026-03-28T09:17:20.999Z</time></trkpt><trkpt lat="43.177416481964244" lon="12.212574899846853"><ele>315.8</ele><time>2026-03-28T09:17:21.999Z</time></trkpt><trkpt lat="43.177510145104605" lon="12.212541996246028"><ele>315.0</ele><time>2026-03-28T09:17:22.999Z</time></trkpt><trkpt lat="43.17760612768519" lon="12.212502754484598"><ele>317.0</ele><time>2026-03-28T09:17:23.999Z</time></trkpt><trkpt lat="43.177720644973576" lon="12.212487477004972"><ele>319.0</ele><time>2026-03-28T09:17:24.999Z</time></trkpt><trkpt lat="43.17784235985011" lon="12.21249044933694"><ele>321.0</ele><time>2026-03-28T09:17:25.999Z</time></trkpt><trkpt lat="43.177968496938725" lon="12.212516905517742"><ele>323.0</ele><time>2026-03-28T09:17:26.999Z</time></trkpt><trkpt lat="43.178093705887974" lon="12.212561194281728"><ele>324.59999999999997</ele><time>2026-03-28T09:17:27.999Z</time></trkpt><trkpt lat="43.178213849835785" lon="12.212606798733635"><ele>326.2</ele><time>2026-03-28T09:17:28.999Z</time></trkpt><trkpt lat="43.17832371463565" lon="12.212646696736703"><ele>327.8</ele><time>2026-03-28T09:17:29.999Z</time></trkpt><trkpt lat="43.17842151921046" lon="12.212675319588344"><ele>329.4</ele><time>2026-03-28T09:17:30.999Z</time></trkpt><trkpt lat="43.178524562174914" lon="12.212708283015228"><ele>331.0</ele><time>2026-03-28T09:17:31.999Z</time></trkpt><trkpt lat="43.1786249864077" lon="12.212753635279453"><ele>331.0</ele><time>2026-03-28T09:17:32.999Z</time></trkpt><trkpt lat="43.17871512426977" lon="12.21280585035649"><ele>331.0</ele><time>2026-03-28T09:17:33.999Z</time></trkpt><trkpt lat="43.17880573601743" lon="12.212858587279012"><ele>331.0</ele><time>2026-03-28T09:17:34.999Z</time></trkpt><trkpt lat="43.17888377501339" lon="12.212900517051617"><ele>331.0</ele><time>2026-03-28T09:17:35.999Z</time></trkpt><trkpt lat="43.17897223074546" lon="12.212929314537556"><ele>331.0</ele><time>2026-03-28T09:17:37.999Z</time></trkpt><trkpt lat="43.17905948471022" lon="12.212947167409844"><ele>333.0</ele><time>2026-03-28T09:17:39.999Z</time></trkpt><trkpt lat="43.17914877545698" lon="12.212873106361728"><ele>335.0</ele><time>2026-03-28T09:17:40.999Z</time></trkpt><trkpt lat="43.17923980930345" lon="12.212848057686678"><ele>337.0</ele><time>2026-03-28T09:17:41.999Z</time></trkpt><trkpt lat="43.179347441586714" lon="12.212829972885576"><ele>339.0</ele><time>2026-03-28T09:17:42.999Z</time></trkpt><trkpt lat="43.17945297283584" lon="12.212805826908443"><ele>341.0</ele><time>2026-03-28T09:17:43.999Z</time></trkpt><trkpt lat="43.17957013278633" lon="12.212780970567918"><ele>341.0</ele><time>2026-03-28T09:17:44.999Z</time></trkpt><trkpt lat="43.1796778366258" lon="12.212714706832529"><ele>341.0</ele><time>2026-03-28T09:17:45.999Z</time></trkpt><trkpt lat="43.17977016105354" lon="12.212624432202318"><ele>341.0</ele><time>2026-03-28T09:17:46.999Z</time></trkpt><trkpt lat="43.17984305869605" lon="12.212530308617113"><ele>341.0</ele><time>2026-03-28T09:17:47.999Z</time></trkpt><trkpt lat="43.1799238732549" lon="12.212437603327235"><ele>341.0</ele><time>2026-03-28T09:17:48.999Z</time></trkpt><trkpt lat="43.180014500762944" lon="12.212314301153906"><ele>343.5</ele><time>2026-03-28T09:17:49.999Z</time></trkpt><trkpt lat="43.18008965219706" lon="12.212184475465966"><ele>346.0</ele><time>2026-03-28T09:17:50.999Z</time></trkpt><trkpt lat="43.18011574750827" lon="12.21206371177829"><ele>348.5</ele><time>2026-03-28T09:17:51.999Z</time></trkpt><trkpt lat="43.180139867246176" lon="12.211964802873561"><ele>351.0</ele><time>2026-03-28T09:17:52.999Z</time></trkpt><trkpt lat="43.18017057429844" lon="12.211882836183062"><ele>353.5</ele><time>2026-03-28T09:17:53.999Z</time></trkpt><trkpt lat="43.18018441069735" lon="12.211797923609964"><ele>356.0</ele><time>2026-03-28T09:17:54.999Z</time></trkpt><trkpt lat="43.18026140438919" lon="12.211697156052107"><ele>356.0</ele><time>2026-03-28T09:17:56.999Z</time></trkpt><trkpt lat="43.1802998740142" lon="12.211599520133372"><ele>356.0</ele><time>2026-03-28T09:17:57.999Z</time></trkpt><trkpt lat="43.18035638438879" lon="12.211525447812859"><ele>356.0</ele><time>2026-03-28T09:17:58.999Z</time></trkpt><trkpt lat="43.18043533863718" lon="12.211498974188872"><ele>356.0</ele><time>2026-03-28T09:17:59.999Z</time></trkpt><trkpt lat="43.18051011867755" lon="12.211492705679026"><ele>356.0</ele><time>2026-03-28T09:18:00.999Z</time></trkpt><trkpt lat="43.180577029690134" lon="12.211458703854728"><ele>356.0</ele><time>2026-03-28T09:18:01.999Z</time></trkpt><trkpt lat="43.180646012573376" lon="12.211446502662136"><ele>356.1428571428571</ele><time>2026-03-28T09:18:02.999Z</time></trkpt><trkpt lat="43.18071091482586" lon="12.211431162499869"><ele>356.2857142857143</ele><time>2026-03-28T09:18:03.999Z</time></trkpt><trkpt lat="43.18078265622051" lon="12.211415888964066"><ele>356.42857142857144</ele><time>2026-03-28T09:18:04.999Z</time></trkpt><trkpt lat="43.18085269205381" lon="12.211422627441657"><ele>356.57142857142856</ele><time>2026-03-28T09:18:06.999Z</time></trkpt><trkpt lat="43.18092136559398" lon="12.211406261013773"><ele>356.7142857142857</ele><time>2026-03-28T09:18:08.999Z</time></trkpt><trkpt lat="43.18098695896808" lon="12.211413431036446"><ele>356.85714285714283</ele><time>2026-03-28T09:18:10.999Z</time></trkpt><trkpt lat="43.180908680808805" lon="12.211383664158447"><ele>357.0</ele><time>2026-03-28T09:18:17.999Z</time></trkpt><trkpt lat="43.18083289915675" lon="12.211408447854813"><ele>357.0</ele><time>2026-03-28T09:18:18.999Z</time></trkpt><trkpt lat="43.18073426867549" lon="12.211425227498763"><ele>357.0</ele><time>2026-03-28T09:18:19.999Z</time></trkpt><trkpt lat="43.180635513851115" lon="12.211493260648925"><ele>357.0</ele><time>2026-03-28T09:18:20.999Z</time></trkpt><trkpt lat="43.180539370643494" lon="12.211440318929357"><ele>357.0</ele><time>2026-03-28T09:18:21.999Z</time></trkpt><trkpt lat="43.180450761515495" lon="12.211459451644915"><ele>357.0</ele><time>2026-03-28T09:18:22.999Z</time></trkpt><trkpt lat="43.18036892363836" lon="12.211489015480058"><ele>356.8333333333333</ele><time>2026-03-28T09:18:23.999Z</time></trkpt><trkpt lat="43.180278271112996" lon="12.211571407755953"><ele>356.6666666666667</ele><time>2026-03-28T09:18:25.999Z</time></trkpt><trkpt lat="43.18025109468731" lon="12.211673915309985"><ele>356.5</ele><time>2026-03-28T09:18:26.999Z</time></trkpt><trkpt lat="43.18019444574169" lon="12.211740349730817"><ele>356.33333333333337</ele><time>2026-03-28T09:18:27.999Z</time></trkpt><trkpt lat="43.180154869280116" lon="12.21182255655627"><ele>356.1666666666667</ele><time>2026-03-28T09:18:28.999Z</time></trkpt><trkpt lat="43.18012890097357" lon="12.211902691831474"><ele>356.0</ele><time>2026-03-28T09:18:29.999Z</time></trkpt><trkpt lat="43.18009929620765" lon="12.212033414294375"><ele>356.0</ele><time>2026-03-28T09:18:31.999Z</time></trkpt><trkpt lat="43.18006475487154" lon="12.212146608946925"><ele>356.0</ele><time>2026-03-28T09:18:33.999Z</time></trkpt><trkpt lat="43.17999168308674" lon="12.212282003411579"><ele>356.0</ele><time>2026-03-28T09:18:35.999Z</time></trkpt><trkpt lat="43.17994378041266" lon="12.212362846675953"><ele>356.0</ele><time>2026-03-28T09:18:36.999Z</time></trkpt><trkpt lat="43.17987839706138" lon="12.212446711782523"><ele>356.0</ele><time>2026-03-28T09:18:37.999Z</time></trkpt><trkpt lat="43.179810954825065" lon="12.212543154560228"><ele>353.5</ele><time>2026-03-28T09:18:38.999Z</time></trkpt><trkpt lat="43.179753981801376" lon="12.212622331586303"><ele>351.0</ele><time>2026-03-28T09:18:39.999Z</time></trkpt><trkpt lat="43.17969144634262" lon="12.21267642856161"><ele>348.5</ele><time>2026-03-28T09:18:40.999Z</time></trkpt><trkpt lat="43.17961382184549" lon="12.21273171326083"><ele>346.0</ele><time>2026-03-28T09:18:41.999Z</time></trkpt><trkpt lat="43.17954321740982" lon="12.212771534124649"><ele>343.5</ele><time>2026-03-28T09:18:42.999Z</time></trkpt><trkpt lat="43.1794561135495" lon="12.212771811354413"><ele>341.0</ele><time>2026-03-28T09:18:43.999Z</time></trkpt><trkpt lat="43.17937147538803" lon="12.212803950523837"><ele>341.0</ele><time>2026-03-28T09:18:44.999Z</time></trkpt><trkpt lat="43.17929876782383" lon="12.212799114534745"><ele>341.0</ele><time>2026-03-28T09:18:45.999Z</time></trkpt><trkpt lat="43.17917606239835" lon="12.212827832282404"><ele>341.0</ele><time>2026-03-28T09:18:47.999Z</time></trkpt><trkpt lat="43.1790783870955" lon="12.212864832810624"><ele>341.0</ele><time>2026-03-28T09:18:49.999Z</time></trkpt><trkpt lat="43.17913966510438" lon="12.21302603512257"><ele>341.0</ele><time>2026-03-28T09:18:54.999Z</time></trkpt><trkpt lat="43.17924541828235" lon="12.213105314324485"><ele>341.0</ele><time>2026-03-28T09:18:55.999Z</time></trkpt><trkpt lat="43.179353105391606" lon="12.213159308539645"><ele>341.0</ele><time>2026-03-28T09:18:56.999Z</time></trkpt><trkpt lat="43.17945619958449" lon="12.213169137694091"><ele>341.0</ele><time>2026-03-28T09:18:57.999Z</time></trkpt><trkpt lat="43.17954591586405" lon="12.213157898866312"><ele>341.0</ele><time>2026-03-28T09:18:58.999Z</time></trkpt><trkpt lat="43.17963704233653" lon="12.21309716879515"><ele>341.0</ele><time>2026-03-28T09:18:59.999Z</time></trkpt><trkpt lat="43.179744224639876" lon="12.213007774588965"><ele>341.0</ele><time>2026-03-28T09:19:00.999Z</time></trkpt><trkpt lat="43.17984698775715" lon="12.212919452839063"><ele>341.0</ele><time>2026-03-28T09:19:01.999Z</time></trkpt><trkpt lat="43.17991040142899" lon="12.212842014462487"><ele>341.0</ele><time>2026-03-28T09:19:02.999Z</time></trkpt><trkpt lat="43.1799624615367" lon="12.21278289826836"><ele>341.0</ele><time>2026-03-28T09:19:03.999Z</time></trkpt><trkpt lat="43.180098779250315" lon="12.212825084540894"><ele>341.0</ele><time>2026-03-28T09:19:05.999Z</time></trkpt><trkpt lat="43.18021370739178" lon="12.212814794989725"><ele>343.75</ele><time>2026-03-28T09:19:06.999Z</time></trkpt><trkpt lat="43.18032380250452" lon="12.21283941411525"><ele>346.5</ele><time>2026-03-28T09:19:07.999Z</time></trkpt><trkpt lat="43.180466963685866" lon="12.212816647706681"><ele>349.25</ele><time>2026-03-28T09:19:08.999Z</time></trkpt><trkpt lat="43.18061176467008" lon="12.212813947939852"><ele>352.0</ele><time>2026-03-28T09:19:09.999Z</time></trkpt><trkpt lat="43.180755307310406" lon="12.212811851268402"><ele>355.66666666666663</ele><time>2026-03-28T09:19:10.999Z</time></trkpt><trkpt lat="43.180908937307635" lon="12.212794791992012"><ele>359.3333333333333</ele><time>2026-03-28T09:19:11.999Z</time></trkpt><trkpt lat="43.18105983445764" lon="12.212777090780959"><ele>363.0</ele><time>2026-03-28T09:19:12.999Z</time></trkpt><trkpt lat="43.181206809221415" lon="12.212781819091056"><ele>363.0</ele><time>2026-03-28T09:19:13.999Z</time></trkpt><trkpt lat="43.18134041332328" lon="12.212802664327166"><ele>363.0</ele><time>2026-03-28T09:19:14.999Z</time></trkpt><trkpt lat="43.181482972272896" lon="12.212788027995026"><ele>363.0</ele><time>2026-03-28T09:19:15.999Z</time></trkpt><trkpt lat="43.18158589671396" lon="12.212788388470372"><ele>363.0</ele><time>2026-03-28T09:19:16.999Z</time></trkpt><trkpt lat="43.18168765108196" lon="12.212785719736173"><ele>365.59999999999997</ele><time>2026-03-28T09:19:17.999Z</time></trkpt><trkpt lat="43.18179123432705" lon="12.21277233062934"><ele>368.2</ele><time>2026-03-28T09:19:18.999Z</time></trkpt><trkpt lat="43.181893285772254" lon="12.212733600498963"><ele>370.8</ele><time>2026-03-28T09:19:19.999Z</time></trkpt><trkpt lat="43.18199578459711" lon="12.212682793405685"><ele>373.4</ele><time>2026-03-28T09:19:20.999Z</time></trkpt><trkpt lat="43.18207152554223" lon="12.212644410753771"><ele>376.0</ele><time>2026-03-28T09:19:21.999Z</time></trkpt><trkpt lat="43.18214370318006" lon="12.212624868566952"><ele>376.0</ele><time>2026-03-28T09:19:22.999Z</time></trkpt><trkpt lat="43.18220071198657" lon="12.212551103735159"><ele>376.0</ele><time>2026-03-28T09:19:23.999Z</time></trkpt><trkpt lat="43.18224113575385" lon="12.212412749846091"><ele>376.0</ele><time>2026-03-28T09:19:24.999Z</time></trkpt><trkpt lat="43.18230138833441" lon="12.212300075694616"><ele>376.0</ele><time>2026-03-28T09:19:25.999Z</time></trkpt><trkpt lat="43.182339476993484" lon="12.21220582182854"><ele>376.0</ele><time>2026-03-28T09:19:26.999Z</time></trkpt><trkpt lat="43.182395275979054" lon="12.212123828323975"><ele>376.0</ele><time>2026-03-28T09:19:27.999Z</time></trkpt><trkpt lat="43.18250356603131" lon="12.212048177575362"><ele>377.20000000000005</ele><time>2026-03-28T09:19:29.999Z</time></trkpt><trkpt lat="43.1825581156661" lon="12.212137774602224"><ele>378.40000000000003</ele><time>2026-03-28T09:19:31.999Z</time></trkpt><trkpt lat="43.18258572927959" lon="12.212226851700057"><ele>379.6</ele><time>2026-03-28T09:19:32.999Z</time></trkpt><trkpt lat="43.18260056469348" lon="12.212335538579541"><ele>380.8</ele><time>2026-03-28T09:19:33.999Z</time></trkpt><trkpt lat="43.182613271236285" lon="12.212471919012138"><ele>382.0</ele><time>2026-03-28T09:19:34.999Z</time></trkpt><trkpt lat="43.18263516933833" lon="12.212649086245971"><ele>382.25</ele><time>2026-03-28T09:19:35.999Z</time></trkpt><trkpt lat="43.182660796905026" lon="12.212828458188097"><ele>382.5</ele><time>2026-03-28T09:19:36.999Z</time></trkpt><trkpt lat="43.18267985725795" lon="12.212979998029157"><ele>382.75</ele><time>2026-03-28T09:19:37.999Z</time></trkpt><trkpt lat="43.18270905685808" lon="12.213116980685323"><ele>383.0</ele><time>2026-03-28T09:19:38.999Z</time></trkpt><trkpt lat="43.18273496649598" lon="12.21325756103632"><ele>381.79999999999995</ele><time>2026-03-28T09:19:39.999Z</time></trkpt><trkpt lat="43.182771618026024" lon="12.213398268883248"><ele>380.6</ele><time>2026-03-28T09:19:40.999Z</time></trkpt><trkpt lat="43.182834824539114" lon="12.21352114469224"><ele>379.4</ele><time>2026-03-28T09:19:41.999Z</time></trkpt><trkpt lat="43.18291757226496" lon="12.21363250848979"><ele>378.20000000000005</ele><time>2026-03-28T09:19:42.999Z</time></trkpt><trkpt lat="43.182993430425924" lon="12.213727001725584"><ele>377.0</ele><time>2026-03-28T09:19:43.999Z</time></trkpt><trkpt lat="43.183081601784316" lon="12.21380847020814"><ele>377.0</ele><time>2026-03-28T09:19:45.999Z</time></trkpt><trkpt lat="43.183129233501504" lon="12.213884004111978"><ele>377.0</ele><time>2026-03-28T09:19:46.999Z</time></trkpt><trkpt lat="43.18319526087497" lon="12.213925231197635"><ele>377.0</ele><time>2026-03-28T09:19:47.999Z</time></trkpt><trkpt lat="43.18326700548266" lon="12.213937892667154"><ele>377.0</ele><time>2026-03-28T09:19:48.999Z</time></trkpt><trkpt lat="43.18333234279658" lon="12.213932386392674"><ele>377.0</ele><time>2026-03-28T09:19:49.999Z</time></trkpt><trkpt lat="43.183404324825375" lon="12.21390275670594"><ele>377.0</ele><time>2026-03-28T09:19:50.999Z</time></trkpt><trkpt lat="43.183507041534575" lon="12.21387025050205"><ele>380.20000000000005</ele><time>2026-03-28T09:19:51.999Z</time></trkpt><trkpt lat="43.18359001414835" lon="12.21377490562387"><ele>383.4</ele><time>2026-03-28T09:19:52.999Z</time></trkpt><trkpt lat="43.18369700182719" lon="12.213703998562275"><ele>386.6</ele><time>2026-03-28T09:19:53.999Z</time></trkpt><trkpt lat="43.18378550703602" lon="12.213642283432923"><ele>389.79999999999995</ele><time>2026-03-28T09:19:54.999Z</time></trkpt><trkpt lat="43.1838544368639" lon="12.213593802323755"><ele>393.0</ele><time>2026-03-28T09:19:55.999Z</time></trkpt><trkpt lat="43.183903455016456" lon="12.213532688198962"><ele>393.0</ele><time>2026-03-28T09:19:56.999Z</time></trkpt><trkpt lat="43.183937522886495" lon="12.21344433787325"><ele>393.0</ele><time>2026-03-28T09:19:57.999Z</time></trkpt><trkpt lat="43.18396843519965" lon="12.213339368900817"><ele>393.0</ele><time>2026-03-28T09:19:58.999Z</time></trkpt><trkpt lat="43.18410184978948" lon="12.213274400747054"><ele>393.0</ele><time>2026-03-28T09:20:00.999Z</time></trkpt><trkpt lat="43.18420541591865" lon="12.213215724311342"><ele>393.0</ele><time>2026-03-28T09:20:01.999Z</time></trkpt><trkpt lat="43.18431759886767" lon="12.213158649317132"><ele>394.59999999999997</ele><time>2026-03-28T09:20:02.999Z</time></trkpt><trkpt lat="43.184409738447904" lon="12.213111183795831"><ele>396.2</ele><time>2026-03-28T09:20:03.999Z</time></trkpt><trkpt lat="43.18448170132405" lon="12.213065665798574"><ele>397.8</ele><time>2026-03-28T09:20:04.999Z</time></trkpt><trkpt lat="43.18454086636246" lon="12.213021927745494"><ele>399.4</ele><time>2026-03-28T09:20:05.999Z</time></trkpt><trkpt lat="43.18463089498614" lon="12.212903344896938"><ele>401.0</ele><time>2026-03-28T09:20:07.999Z</time></trkpt><trkpt lat="43.184662923651764" lon="12.212781033042429"><ele>401.0</ele><time>2026-03-28T09:20:08.999Z</time></trkpt><trkpt lat="43.18468031790593" lon="12.212655179423251"><ele>401.0</ele><time>2026-03-28T09:20:09.999Z</time></trkpt><trkpt lat="43.18469649059314" lon="12.212518695300727"><ele>401.0</ele><time>2026-03-28T09:20:10.999Z</time></trkpt><trkpt lat="43.184718066513355" lon="12.212367460323527"><ele>401.0</ele><time>2026-03-28T09:20:11.999Z</time></trkpt><trkpt lat="43.184745876333864" lon="12.212230925920359"><ele>401.0</ele><time>2026-03-28T09:20:13.999Z</time></trkpt><trkpt lat="43.18479159808856" lon="12.212170659646622"><ele>402.6</ele><time>2026-03-28T09:20:15.999Z</time></trkpt><trkpt lat="43.18487497923762" lon="12.212120026977601"><ele>404.20000000000005</ele><time>2026-03-28T09:20:16.999Z</time></trkpt><trkpt lat="43.18498473266003" lon="12.212085727688386"><ele>405.79999999999995</ele><time>2026-03-28T09:20:17.999Z</time></trkpt><trkpt lat="43.1851118325218" lon="12.212038976164727"><ele>407.4</ele><time>2026-03-28T09:20:18.999Z</time></trkpt><trkpt lat="43.18521754817699" lon="12.211984307832665"><ele>409.0</ele><time>2026-03-28T09:20:19.999Z</time></trkpt><trkpt lat="43.18530762362336" lon="12.211932475034907"><ele>409.0</ele><time>2026-03-28T09:20:20.999Z</time></trkpt><trkpt lat="43.18540153435257" lon="12.211875798123591"><ele>409.0</ele><time>2026-03-28T09:20:21.999Z</time></trkpt><trkpt lat="43.1854944866298" lon="12.211814961738414"><ele>409.0</ele><time>2026-03-28T09:20:22.999Z</time></trkpt><trkpt lat="43.185584594993465" lon="12.211731375014221"><ele>409.0</ele><time>2026-03-28T09:20:23.999Z</time></trkpt><trkpt lat="43.18567887781862" lon="12.211691317058937"><ele>409.0</ele><time>2026-03-28T09:20:24.999Z</time></trkpt><trkpt lat="43.18575305790932" lon="12.211695918550111"><ele>410.79999999999995</ele><time>2026-03-28T09:20:25.999Z</time></trkpt><trkpt lat="43.18581297125274" lon="12.211663404839236"><ele>412.59999999999997</ele><time>2026-03-28T09:20:26.999Z</time></trkpt><trkpt lat="43.18589423499254" lon="12.211597526745576"><ele>414.4</ele><time>2026-03-28T09:20:28.999Z</time></trkpt><trkpt lat="43.186029344542966" lon="12.211531333049308"><ele>416.2</ele><time>2026-03-28T09:20:30.999Z</time></trkpt><trkpt lat="43.18612424321673" lon="12.211577966478522"><ele>418.0</ele><time>2026-03-28T09:20:31.999Z</time></trkpt><trkpt lat="43.18620335079509" lon="12.211669566786284"><ele>418.00000000000006</ele><time>2026-03-28T09:20:32.999Z</time></trkpt><trkpt lat="43.18625707557915" lon="12.211749751019198"><ele>418.0</ele><time>2026-03-28T09:20:33.999Z</time></trkpt><trkpt lat="43.186320437821564" lon="12.211824944656604"><ele>418.0</ele><time>2026-03-28T09:20:34.999Z</time></trkpt><trkpt lat="43.18639924333709" lon="12.21190713300541"><ele>418.0</ele><time>2026-03-28T09:20:35.999Z</time></trkpt><trkpt lat="43.18646737735492" lon="12.21196799814276"><ele>418.00000000000006</ele><time>2026-03-28T09:20:36.999Z</time></trkpt><trkpt lat="43.1865259896363" lon="12.212009866825666"><ele>418.0</ele><time>2026-03-28T09:20:37.999Z</time></trkpt><trkpt lat="43.186629482092336" lon="12.212025408290064"><ele>420.33333333333337</ele><time>2026-03-28T09:20:39.999Z</time></trkpt><trkpt lat="43.186696188334906" lon="12.211955043206025"><ele>422.6666666666667</ele><time>2026-03-28T09:20:41.999Z</time></trkpt><trkpt lat="43.186737346379026" lon="12.211872363259134"><ele>425.0</ele><time>2026-03-28T09:20:42.999Z</time></trkpt><trkpt lat="43.18671777104426" lon="12.21172916556132"><ele>427.33333333333337</ele><time>2026-03-28T09:20:43.999Z</time></trkpt><trkpt lat="43.18671256960594" lon="12.211591513149116"><ele>429.6666666666667</ele><time>2026-03-28T09:20:44.999Z</time></trkpt><trkpt lat="43.186714883237855" lon="12.211481610310665"><ele>432.0</ele><time>2026-03-28T09:20:45.999Z</time></trkpt><trkpt lat="43.18672206620415" lon="12.211340978576494"><ele>432.3333333333333</ele><time>2026-03-28T09:20:47.999Z</time></trkpt><trkpt lat="43.186817907709326" lon="12.211289984337734"><ele>432.66666666666663</ele><time>2026-03-28T09:20:49.999Z</time></trkpt><trkpt lat="43.186932518056295" lon="12.21128024457181"><ele>433.0</ele><time>2026-03-28T09:20:51.999Z</time></trkpt><trkpt lat="43.18699601539513" lon="12.211270427434645"><ele>433.3333333333333</ele><time>2026-03-28T09:20:52.999Z</time></trkpt><trkpt lat="43.187076859968435" lon="12.211243328190836"><ele>433.66666666666663</ele><time>2026-03-28T09:20:53.999Z</time></trkpt><trkpt lat="43.18715176508162" lon="12.211219941272786"><ele>434.0</ele><time>2026-03-28T09:20:54.999Z</time></trkpt><trkpt lat="43.18723354093354" lon="12.211203963307783"><ele>434.0</ele><time>2026-03-28T09:20:55.999Z</time></trkpt><trkpt lat="43.187302646712396" lon="12.211213102522672"><ele>434.0</ele><time>2026-03-28T09:20:56.999Z</time></trkpt><trkpt lat="43.187373854855245" lon="12.21123257313232"><ele>434.0</ele><time>2026-03-28T09:20:57.999Z</time></trkpt><trkpt lat="43.18745232655859" lon="12.211243900069903"><ele>434.0</ele><time>2026-03-28T09:20:58.999Z</time></trkpt><trkpt lat="43.18755808417375" lon="12.211207247339228"><ele>434.0</ele><time>2026-03-28T09:21:00.999Z</time></trkpt><trkpt lat="43.18759512959479" lon="12.211030037660098"><ele>436.16666666666663</ele><time>2026-03-28T09:21:02.999Z</time></trkpt><trkpt lat="43.187598662389355" lon="12.210904087342003"><ele>438.3333333333333</ele><time>2026-03-28T09:21:03.999Z</time></trkpt><trkpt lat="43.18758496256566" lon="12.210771094583095"><ele>440.5</ele><time>2026-03-28T09:21:04.999Z</time></trkpt><trkpt lat="43.187582751284815" lon="12.2106599443666"><ele>442.66666666666663</ele><time>2026-03-28T09:21:05.999Z</time></trkpt><trkpt lat="43.187541985226545" lon="12.21055803757701"><ele>444.8333333333333</ele><time>2026-03-28T09:21:06.999Z</time></trkpt><trkpt lat="43.187516487365485" lon="12.210441190728142"><ele>447.0</ele><time>2026-03-28T09:21:07.999Z</time></trkpt><trkpt lat="43.1875226510396" lon="12.210311152996745"><ele>447.40000000000003</ele><time>2026-03-28T09:21:08.999Z</time></trkpt><trkpt lat="43.18750704858183" lon="12.210176900772472"><ele>447.80000000000007</ele><time>2026-03-28T09:21:09.999Z</time></trkpt><trkpt lat="43.187523648891734" lon="12.21006644194176"><ele>448.2</ele><time>2026-03-28T09:21:10.999Z</time></trkpt><trkpt lat="43.187564773930106" lon="12.209994700085456"><ele>448.6</ele><time>2026-03-28T09:21:11.999Z</time></trkpt><trkpt lat="43.187626649726646" lon="12.209869461458343"><ele>449.0</ele><time>2026-03-28T09:21:13.999Z</time></trkpt><trkpt lat="43.187733496041716" lon="12.209925717602095"><ele>448.99999999999994</ele><time>2026-03-28T09:21:15.999Z</time></trkpt><trkpt lat="43.187783557100204" lon="12.209991594790218"><ele>449.0</ele><time>2026-03-28T09:21:16.999Z</time></trkpt><trkpt lat="43.187851244277844" lon="12.210042873172492"><ele>449.0</ele><time>2026-03-28T09:21:17.999Z</time></trkpt><trkpt lat="43.1878930023042" lon="12.210113783792123"><ele>449.0</ele><time>2026-03-28T09:21:18.999Z</time></trkpt><trkpt lat="43.18794834495519" lon="12.210182779508097"><ele>448.99999999999994</ele><time>2026-03-28T09:21:19.999Z</time></trkpt><trkpt lat="43.188018566939704" lon="12.21031568506441"><ele>449.0</ele><time>2026-03-28T09:21:21.999Z</time></trkpt><trkpt lat="43.188142434589295" lon="12.210399779994354"><ele>450.6</ele><time>2026-03-28T09:21:23.999Z</time></trkpt><trkpt lat="43.18824925511288" lon="12.210421597351406"><ele>452.2</ele><time>2026-03-28T09:21:24.999Z</time></trkpt><trkpt lat="43.188328555037096" lon="12.210440781381807"><ele>453.80000000000007</ele><time>2026-03-28T09:21:25.999Z</time></trkpt><trkpt lat="43.18840281347212" lon="12.210452235310504"><ele>455.40000000000003</ele><time>2026-03-28T09:21:26.999Z</time></trkpt><trkpt lat="43.18849211787238" lon="12.210455971973868"><ele>457.0</ele><time>2026-03-28T09:21:27.999Z</time></trkpt><trkpt lat="43.1886015262322" lon="12.210480375589716"><ele>457.0</ele><time>2026-03-28T09:21:28.999Z</time></trkpt><trkpt lat="43.18873405296967" lon="12.210455894025534"><ele>457.00000000000006</ele><time>2026-03-28T09:21:29.999Z</time></trkpt><trkpt lat="43.188834140388835" lon="12.210436316600415"><ele>457.00000000000006</ele><time>2026-03-28T09:21:30.999Z</time></trkpt><trkpt lat="43.18891852912906" lon="12.21041055257438"><ele>457.0</ele><time>2026-03-28T09:21:31.999Z</time></trkpt><trkpt lat="43.18899553489085" lon="12.210347157885119"><ele>457.0</ele><time>2026-03-28T09:21:32.999Z</time></trkpt><trkpt lat="43.18905763243234" lon="12.21030800846611"><ele>457.8</ele><time>2026-03-28T09:21:33.999Z</time></trkpt><trkpt lat="43.1891161965841" lon="12.210264013382634"><ele>458.6</ele><time>2026-03-28T09:21:34.999Z</time></trkpt><trkpt lat="43.18922899032574" lon="12.210242469726786"><ele>459.40000000000003</ele><time>2026-03-28T09:21:36.999Z</time></trkpt><trkpt lat="43.18929572010407" lon="12.210289551228126"><ele>460.20000000000005</ele><time>2026-03-28T09:21:37.999Z</time></trkpt><trkpt lat="43.189384799577766" lon="12.210347336267914"><ele>461.0</ele><time>2026-03-28T09:21:38.999Z</time></trkpt><trkpt lat="43.18948730661713" lon="12.210385012518783"><ele>461.0</ele><time>2026-03-28T09:21:39.999Z</time></trkpt><trkpt lat="43.18958671951096" lon="12.210418834752723"><ele>461.0</ele><time>2026-03-28T09:21:40.999Z</time></trkpt><trkpt lat="43.189678743152335" lon="12.21042886578872"><ele>461.0</ele><time>2026-03-28T09:21:41.999Z</time></trkpt><trkpt lat="43.189752204729885" lon="12.210421532879943"><ele>461.0</ele><time>2026-03-28T09:21:42.999Z</time></trkpt><trkpt lat="43.189807975499726" lon="12.210341953034865"><ele>461.0</ele><time>2026-03-28T09:21:45Z</time></trkpt><trkpt lat="43.18978213816137" lon="12.210175204439313"><ele>461.0</ele><time>2026-03-28T09:21:47Z</time></trkpt><trkpt lat="43.189735934384686" lon="12.21006581621202"><ele>461.0</ele><time>2026-03-28T09:21:48Z</time></trkpt><trkpt lat="43.18971236947084" lon="12.209979650786018"><ele>461.0</ele><time>2026-03-28T09:21:49Z</time></trkpt><trkpt lat="43.18969093258412" lon="12.209860421043526"><ele>461.0</ele><time>2026-03-28T09:21:50Z</time></trkpt><trkpt lat="43.18966686345647" lon="12.209708686774617"><ele>461.0</ele><time>2026-03-28T09:21:51Z</time></trkpt><trkpt lat="43.1896464590788" lon="12.209575859728425"><ele>460.3333333333333</ele><time>2026-03-28T09:21:52Z</time></trkpt><trkpt lat="43.189631552329836" lon="12.209474498523525"><ele>459.66666666666663</ele><time>2026-03-28T09:21:53Z</time></trkpt><trkpt lat="43.18959129685084" lon="12.20937238122006"><ele>459.0</ele><time>2026-03-28T09:21:55Z</time></trkpt><trkpt lat="43.189582559018966" lon="12.209238870370204"><ele>458.33333333333337</ele><time>2026-03-28T09:21:57Z</time></trkpt><trkpt lat="43.18957335123081" lon="12.209151997582055"><ele>457.6666666666667</ele><time>2026-03-28T09:21:58Z</time></trkpt><trkpt lat="43.18956376657044" lon="12.209040508892043"><ele>457.0</ele><time>2026-03-28T09:21:59Z</time></trkpt><trkpt lat="43.18955798466447" lon="12.208918944545209"><ele>456.6</ele><time>2026-03-28T09:22:00Z</time></trkpt><trkpt lat="43.18955525296367" lon="12.208805570222143"><ele>456.20000000000005</ele><time>2026-03-28T09:22:01Z</time></trkpt><trkpt lat="43.18955344080974" lon="12.208691273513542"><ele>455.8</ele><time>2026-03-28T09:22:02Z</time></trkpt><trkpt lat="43.18954667402228" lon="12.208517851328786"><ele>455.4</ele><time>2026-03-28T09:22:04Z</time></trkpt><trkpt lat="43.18954058947887" lon="12.208384794421992"><ele>455.0</ele><time>2026-03-28T09:22:05Z</time></trkpt><trkpt lat="43.18953370825363" lon="12.208244784675811"><ele>455.0</ele><time>2026-03-28T09:22:06Z</time></trkpt><trkpt lat="43.18952725547285" lon="12.208113492897697"><ele>455.0</ele><time>2026-03-28T09:22:07Z</time></trkpt><trkpt lat="43.1895182622354" lon="12.20797959287572"><ele>455.0</ele><time>2026-03-28T09:22:08Z</time></trkpt><trkpt lat="43.189507647290874" lon="12.207844275912375"><ele>455.0</ele><time>2026-03-28T09:22:09Z</time></trkpt><trkpt lat="43.18949583809474" lon="12.207708947459134"><ele>455.0</ele><time>2026-03-28T09:22:10Z</time></trkpt><trkpt lat="43.189484042118856" lon="12.207580876853012"><ele>455.0</ele><time>2026-03-28T09:22:11Z</time></trkpt><trkpt lat="43.18947003913523" lon="12.207432933297191"><ele>455.0</ele><time>2026-03-28T09:22:12Z</time></trkpt><trkpt lat="43.18943999305894" lon="12.207287234457688"><ele>455.0</ele><time>2026-03-28T09:22:13Z</time></trkpt><trkpt lat="43.18942513185979" lon="12.20713149715278"><ele>455.0</ele><time>2026-03-28T09:22:14Z</time></trkpt><trkpt lat="43.18941482321567" lon="12.206989495243795"><ele>455.0</ele><time>2026-03-28T09:22:15Z</time></trkpt><trkpt lat="43.189403437595615" lon="12.20684597610207"><ele>455.6</ele><time>2026-03-28T09:22:16Z</time></trkpt><trkpt lat="43.18937412548825" lon="12.206713945526184"><ele>456.2</ele><time>2026-03-28T09:22:17Z</time></trkpt><trkpt lat="43.18936248779209" lon="12.206575173289679"><ele>456.79999999999995</ele><time>2026-03-28T09:22:18Z</time></trkpt><trkpt lat="43.18934465622361" lon="12.206432141438892"><ele>457.4</ele><time>2026-03-28T09:22:19Z</time></trkpt><trkpt lat="43.189338799740575" lon="12.206317790037485"><ele>458.0</ele><time>2026-03-28T09:22:20Z</time></trkpt><trkpt lat="43.18932615569435" lon="12.20620468891428"><ele>457.99999999999994</ele><time>2026-03-28T09:22:21Z</time></trkpt><trkpt lat="43.18932005099099" lon="12.206069333931364"><ele>458.0</ele><time>2026-03-28T09:22:23Z</time></trkpt><trkpt lat="43.18935512986237" lon="12.205957304725066"><ele>458.0</ele><time>2026-03-28T09:22:24.999Z</time></trkpt><trkpt lat="43.18940684836282" lon="12.20588930758052"><ele>458.0</ele><time>2026-03-28T09:22:25.999Z</time></trkpt><trkpt lat="43.1894901651805" lon="12.205853667223584"><ele>457.99999999999994</ele><time>2026-03-28T09:22:26.999Z</time></trkpt><trkpt lat="43.18956863047521" lon="12.205802122714662"><ele>458.0</ele><time>2026-03-28T09:22:27.999Z</time></trkpt><trkpt lat="43.18963317616268" lon="12.20575414070929"><ele>458.0</ele><time>2026-03-28T09:22:28.999Z</time></trkpt><trkpt lat="43.18969993977089" lon="12.20569345149912"><ele>457.99999999999994</ele><time>2026-03-28T09:22:29.999Z</time></trkpt><trkpt lat="43.18977666042538" lon="12.20563823132298"><ele>457.99999999999994</ele><time>2026-03-28T09:22:30.999Z</time></trkpt><trkpt lat="43.18986837870555" lon="12.205564594286061"><ele>458.0</ele><time>2026-03-28T09:22:31.999Z</time></trkpt><trkpt lat="43.18994998278161" lon="12.205464848243423"><ele>458.0</ele><time>2026-03-28T09:22:32.999Z</time></trkpt><trkpt lat="43.190046355509125" lon="12.20537207254667"><ele>460.25</ele><time>2026-03-28T09:22:33.999Z</time></trkpt><trkpt lat="43.19016064549922" lon="12.205275915889418"><ele>462.5</ele><time>2026-03-28T09:22:34.999Z</time></trkpt><trkpt lat="43.19027657191608" lon="12.205191583323373"><ele>464.75</ele><time>2026-03-28T09:22:35.999Z</time></trkpt><trkpt lat="43.190379900608" lon="12.205109537458044"><ele>467.0</ele><time>2026-03-28T09:22:36.999Z</time></trkpt><trkpt lat="43.19049563185591" lon="12.205010375071861"><ele>466.99999999999994</ele><time>2026-03-28T09:22:37.999Z</time></trkpt><trkpt lat="43.19058534824122" lon="12.204933659934335"><ele>467.0</ele><time>2026-03-28T09:22:38.999Z</time></trkpt><trkpt lat="43.190663899259505" lon="12.204865961846675"><ele>467.0</ele><time>2026-03-28T09:22:39.999Z</time></trkpt><trkpt lat="43.19071907188411" lon="12.204799104955697"><ele>467.0</ele><time>2026-03-28T09:22:40.999Z</time></trkpt><trkpt lat="43.19080523883363" lon="12.204741924974462"><ele>466.99999999999994</ele><time>2026-03-28T09:22:41.999Z</time></trkpt><trkpt lat="43.190872612939785" lon="12.204699149506686"><ele>467.0</ele><time>2026-03-28T09:22:42.999Z</time></trkpt><trkpt lat="43.190954216166396" lon="12.204693652141616"><ele>468.25</ele><time>2026-03-28T09:22:43.999Z</time></trkpt><trkpt lat="43.191054431591596" lon="12.204698520607797"><ele>469.5</ele><time>2026-03-28T09:22:44.999Z</time></trkpt><trkpt lat="43.191182853872526" lon="12.204726246925107"><ele>470.75</ele><time>2026-03-28T09:22:45.999Z</time></trkpt><trkpt lat="43.191315171548695" lon="12.204746175064585"><ele>472.0</ele><time>2026-03-28T09:22:46.999Z</time></trkpt><trkpt lat="43.19144399443461" lon="12.204765732570667"><ele>474.5</ele><time>2026-03-28T09:22:47.999Z</time></trkpt><trkpt lat="43.19157895578596" lon="12.204783282910826"><ele>477.0</ele><time>2026-03-28T09:22:48.999Z</time></trkpt><trkpt lat="43.19170511816557" lon="12.204808668005663"><ele>479.5</ele><time>2026-03-28T09:22:49.999Z</time></trkpt><trkpt lat="43.191794460181576" lon="12.204824332824094"><ele>482.0</ele><time>2026-03-28T09:22:50.999Z</time></trkpt><trkpt lat="43.191895472582345" lon="12.204847834278317"><ele>482.0</ele><time>2026-03-28T09:22:52.999Z</time></trkpt><trkpt lat="43.192003213125794" lon="12.2048394942321"><ele>482.00000000000006</ele><time>2026-03-28T09:22:54.999Z</time></trkpt><trkpt lat="43.19207102305082" lon="12.204720769036369"><ele>482.00000000000006</ele><time>2026-03-28T09:22:56.999Z</time></trkpt><trkpt lat="43.192094963466154" lon="12.204597185906977"><ele>482.0</ele><time>2026-03-28T09:22:57.999Z</time></trkpt><trkpt lat="43.19214143099711" lon="12.204486429666648"><ele>482.0</ele><time>2026-03-28T09:22:58.999Z</time></trkpt><trkpt lat="43.192218319937446" lon="12.204398380864527"><ele>482.0</ele><time>2026-03-28T09:22:59.999Z</time></trkpt><trkpt lat="43.19228666833409" lon="12.204294984631177"><ele>482.0</ele><time>2026-03-28T09:23:00.999Z</time></trkpt><trkpt lat="43.19236091771586" lon="12.204183284451663"><ele>482.0</ele><time>2026-03-28T09:23:01.999Z</time></trkpt><trkpt lat="43.19243821980661" lon="12.204052361744115"><ele>482.0</ele><time>2026-03-28T09:23:02.999Z</time></trkpt><trkpt lat="43.19251856561308" lon="12.203924800165717"><ele>485.20000000000005</ele><time>2026-03-28T09:23:03.999Z</time></trkpt><trkpt lat="43.19260062055311" lon="12.203812506286107"><ele>488.40000000000003</ele><time>2026-03-28T09:23:04.999Z</time></trkpt><trkpt lat="43.19267339100813" lon="12.203723931943191"><ele>491.59999999999997</ele><time>2026-03-28T09:23:05.999Z</time></trkpt><trkpt lat="43.192741906622466" lon="12.203661600148436"><ele>494.79999999999995</ele><time>2026-03-28T09:23:06.999Z</time></trkpt><trkpt lat="43.19282519556639" lon="12.203586380800338"><ele>498.0</ele><time>2026-03-28T09:23:07.999Z</time></trkpt><trkpt lat="43.19290327675393" lon="12.203523501079715"><ele>498.0</ele><time>2026-03-28T09:23:08.999Z</time></trkpt><trkpt lat="43.192981383155505" lon="12.203525189507358"><ele>498.0</ele><time>2026-03-28T09:23:09.999Z</time></trkpt><trkpt lat="43.19305075328901" lon="12.20350364594137"><ele>498.0</ele><time>2026-03-28T09:23:10.999Z</time></trkpt><trkpt lat="43.193113869904785" lon="12.20352838938601"><ele>498.0</ele><time>2026-03-28T09:23:12.999Z</time></trkpt><trkpt lat="43.19320353706902" lon="12.203530522107036"><ele>498.0</ele><time>2026-03-28T09:23:25.999Z</time></trkpt><trkpt lat="43.19329624775569" lon="12.203507430905196"><ele>498.0</ele><time>2026-03-28T09:23:26.999Z</time></trkpt><trkpt lat="43.19338410169902" lon="12.203472522760249"><ele>500.25</ele><time>2026-03-28T09:23:27.999Z</time></trkpt><trkpt lat="43.19344879259635" lon="12.203433150496151"><ele>502.5</ele><time>2026-03-28T09:23:28.999Z</time></trkpt><trkpt lat="43.19354502782829" lon="12.20337259977597"><ele>504.75</ele><time>2026-03-28T09:23:31Z</time></trkpt><trkpt lat="43.19362498792706" lon="12.203323705877564"><ele>507.0</ele><time>2026-03-28T09:23:34Z</time></trkpt><trkpt lat="43.19362041085873" lon="12.203041512256181"><ele>507.0</ele><time>2026-03-28T09:23:36Z</time></trkpt><trkpt lat="43.19361928648993" lon="12.202942124281945"><ele>507.0</ele><time>2026-03-28T09:23:37Z</time></trkpt><trkpt lat="43.193638211358625" lon="12.202841280365035"><ele>507.0</ele><time>2026-03-28T09:23:38Z</time></trkpt><trkpt lat="43.193679250331634" lon="12.202734117387944"><ele>507.0</ele><time>2026-03-28T09:23:39Z</time></trkpt><trkpt lat="43.19371979141463" lon="12.202622993113941"><ele>507.0</ele><time>2026-03-28T09:23:40Z</time></trkpt><trkpt lat="43.193738736039265" lon="12.202489118143326"><ele>507.0</ele><time>2026-03-28T09:23:41Z</time></trkpt><trkpt lat="43.19378061146748" lon="12.202365930651752"><ele>506.75</ele><time>2026-03-28T09:23:42Z</time></trkpt><trkpt lat="43.193808584445506" lon="12.202214968072807"><ele>506.5</ele><time>2026-03-28T09:23:43Z</time></trkpt><trkpt lat="43.19383736936692" lon="12.202062026601036"><ele>506.25</ele><time>2026-03-28T09:23:44Z</time></trkpt><trkpt lat="43.1938628250208" lon="12.201900102227434"><ele>506.0</ele><time>2026-03-28T09:23:45Z</time></trkpt><trkpt lat="43.19389666836592" lon="12.201759081241546"><ele>506.0</ele><time>2026-03-28T09:23:46Z</time></trkpt><trkpt lat="43.1939298265705" lon="12.201623151230146"><ele>506.0</ele><time>2026-03-28T09:23:47Z</time></trkpt><trkpt lat="43.19396863189243" lon="12.201470594258657"><ele>506.0</ele><time>2026-03-28T09:23:48Z</time></trkpt><trkpt lat="43.19402237256919" lon="12.201311116376782"><ele>506.0</ele><time>2026-03-28T09:23:49Z</time></trkpt><trkpt lat="43.19405152518622" lon="12.201152779570211"><ele>509.75</ele><time>2026-03-28T09:23:50Z</time></trkpt><trkpt lat="43.19409978763567" lon="12.200999633851259"><ele>513.5</ele><time>2026-03-28T09:23:51Z</time></trkpt><trkpt lat="43.19416302668731" lon="12.200858932003545"><ele>517.25</ele><time>2026-03-28T09:23:52Z</time></trkpt><trkpt lat="43.19422546443916" lon="12.200731357538368"><ele>521.0</ele><time>2026-03-28T09:23:53Z</time></trkpt><trkpt lat="43.19428044979317" lon="12.20061816257703"><ele>523.75</ele><time>2026-03-28T09:23:54Z</time></trkpt><trkpt lat="43.1943263901937" lon="12.20046708680993"><ele>526.5</ele><time>2026-03-28T09:23:55Z</time></trkpt><trkpt lat="43.194376283486264" lon="12.200325896694943"><ele>529.25</ele><time>2026-03-28T09:23:56Z</time></trkpt><trkpt lat="43.19438911607694" lon="12.200157488341196"><ele>532.0</ele><time>2026-03-28T09:23:57Z</time></trkpt><trkpt lat="43.194347163477126" lon="12.199995748881653"><ele>534.5</ele><time>2026-03-28T09:23:58Z</time></trkpt><trkpt lat="43.19428856373379" lon="12.199831940889307"><ele>537.0</ele><time>2026-03-28T09:23:59Z</time></trkpt><trkpt lat="43.194205568111" lon="12.19967630012157"><ele>539.5</ele><time>2026-03-28T09:24:00Z</time></trkpt><trkpt lat="43.19412755249049" lon="12.199523122102914"><ele>542.0</ele><time>2026-03-28T09:24:01Z</time></trkpt><trkpt lat="43.19404241840591" lon="12.199364969658857"><ele>541.5</ele><time>2026-03-28T09:24:02Z</time></trkpt><trkpt lat="43.19396182794734" lon="12.19922227686085"><ele>541.0</ele><time>2026-03-28T09:24:03Z</time></trkpt><trkpt lat="43.19389588251987" lon="12.199046060404996"><ele>540.5</ele><time>2026-03-28T09:24:04Z</time></trkpt><trkpt lat="43.19385441880672" lon="12.198919715611128"><ele>540.0</ele><time>2026-03-28T09:24:05Z</time></trkpt><trkpt lat="43.193806375775665" lon="12.198739937929144"><ele>540.0</ele><time>2026-03-28T09:24:06Z</time></trkpt><trkpt lat="43.193783660132645" lon="12.198529347317047"><ele>540.0</ele><time>2026-03-28T09:24:07Z</time></trkpt><trkpt lat="43.19371066323373" lon="12.198362338709895"><ele>540.0</ele><time>2026-03-28T09:24:08Z</time></trkpt><trkpt lat="43.19364803653187" lon="12.198199152609128"><ele>540.0</ele><time>2026-03-28T09:24:09Z</time></trkpt><trkpt lat="43.19359004341631" lon="12.198060703435084"><ele>542.2</ele><time>2026-03-28T09:24:10Z</time></trkpt><trkpt lat="43.19354479536053" lon="12.197929426230344"><ele>544.4</ele><time>2026-03-28T09:24:11Z</time></trkpt><trkpt lat="43.193507521770684" lon="12.197816804733588"><ele>546.6</ele><time>2026-03-28T09:24:12Z</time></trkpt><trkpt lat="43.19353769213406" lon="12.197683164676363"><ele>548.8</ele><time>2026-03-28T09:24:13Z</time></trkpt><trkpt lat="43.19359132205907" lon="12.197573309629107"><ele>551.0</ele><time>2026-03-28T09:24:14Z</time></trkpt><trkpt lat="43.19367147923952" lon="12.197492167727836"><ele>551.0</ele><time>2026-03-28T09:24:15Z</time></trkpt><trkpt lat="43.1937075938679" lon="12.197366666448193"><ele>551.0</ele><time>2026-03-28T09:24:16Z</time></trkpt><trkpt lat="43.193740968591584" lon="12.197238354239298"><ele>551.0</ele><time>2026-03-28T09:24:17Z</time></trkpt><trkpt lat="43.19374563649736" lon="12.197068096699455"><ele>551.0</ele><time>2026-03-28T09:24:18Z</time></trkpt><trkpt lat="43.193741489505925" lon="12.19688767846048"><ele>552.25</ele><time>2026-03-28T09:24:19Z</time></trkpt><trkpt lat="43.19370529514188" lon="12.19671472503658"><ele>553.5</ele><time>2026-03-28T09:24:20Z</time></trkpt><trkpt lat="43.19364285187603" lon="12.196552666072598"><ele>554.75</ele><time>2026-03-28T09:24:21Z</time></trkpt><trkpt lat="43.193563416606644" lon="12.19640581791196"><ele>556.0</ele><time>2026-03-28T09:24:22Z</time></trkpt><trkpt lat="43.19344967521361" lon="12.196255926862914"><ele>556.0</ele><time>2026-03-28T09:24:23Z</time></trkpt><trkpt lat="43.19333142698241" lon="12.196093899004687"><ele>556.0</ele><time>2026-03-28T09:24:24Z</time></trkpt><trkpt lat="43.19322776330804" lon="12.195917101953434"><ele>556.0</ele><time>2026-03-28T09:24:25Z</time></trkpt><trkpt lat="43.193153712495906" lon="12.195735137851614"><ele>557.75</ele><time>2026-03-28T09:24:26Z</time></trkpt><trkpt lat="43.19311226978773" lon="12.195541807715488"><ele>559.5</ele><time>2026-03-28T09:24:27Z</time></trkpt><trkpt lat="43.193079690081255" lon="12.195373083004066"><ele>561.25</ele><time>2026-03-28T09:24:28Z</time></trkpt><trkpt lat="43.19300843592559" lon="12.195219508740363"><ele>563.0</ele><time>2026-03-28T09:24:29Z</time></trkpt><trkpt lat="43.19290865801007" lon="12.19509684752572"><ele>563.0</ele><time>2026-03-28T09:24:30Z</time></trkpt><trkpt lat="43.19279830990463" lon="12.195001661142145"><ele>563.0</ele><time>2026-03-28T09:24:31Z</time></trkpt><trkpt lat="43.19270390135997" lon="12.194905444234449"><ele>563.0</ele><time>2026-03-28T09:24:32Z</time></trkpt><trkpt lat="43.19263533403446" lon="12.1947800498701"><ele>563.0</ele><time>2026-03-28T09:24:33Z</time></trkpt><trkpt lat="43.192601265039315" lon="12.194704355417773"><ele>563.0</ele><time>2026-03-28T09:24:34Z</time></trkpt><trkpt lat="43.19256531787571" lon="12.194588565467695"><ele>561.1999999999999</ele><time>2026-03-28T09:24:35Z</time></trkpt><trkpt lat="43.192522496615446" lon="12.194439504662578"><ele>559.4</ele><time>2026-03-28T09:24:36Z</time></trkpt><trkpt lat="43.19248051392514" lon="12.194295876177584"><ele>557.5999999999999</ele><time>2026-03-28T09:24:37Z</time></trkpt><trkpt lat="43.19243573610246" lon="12.194164665416046"><ele>555.8</ele><time>2026-03-28T09:24:38Z</time></trkpt><trkpt lat="43.19238799659078" lon="12.194036656720158"><ele>554.0</ele><time>2026-03-28T09:24:39Z</time></trkpt><trkpt lat="43.19233397771672" lon="12.193926741417947"><ele>552.8</ele><time>2026-03-28T09:24:40Z</time></trkpt><trkpt lat="43.19226355684263" lon="12.193829723313195"><ele>551.5999999999999</ele><time>2026-03-28T09:24:41Z</time></trkpt><trkpt lat="43.19218626621031" lon="12.19373809917844"><ele>550.4</ele><time>2026-03-28T09:24:42Z</time></trkpt><trkpt lat="43.19211969979912" lon="12.193647675128906"><ele>549.1999999999999</ele><time>2026-03-28T09:24:43Z</time></trkpt><trkpt lat="43.192055525321905" lon="12.193558931368411"><ele>548.0</ele><time>2026-03-28T09:24:44Z</time></trkpt><trkpt lat="43.191995325537434" lon="12.193453787753539"><ele>548.0</ele><time>2026-03-28T09:24:45Z</time></trkpt><trkpt lat="43.191944505582164" lon="12.193362705285189"><ele>548.0</ele><time>2026-03-28T09:24:46Z</time></trkpt><trkpt lat="43.191895002466325" lon="12.193265638247345"><ele>548.0</ele><time>2026-03-28T09:24:47Z</time></trkpt><trkpt lat="43.191847736144595" lon="12.193159138643713"><ele>548.0</ele><time>2026-03-28T09:24:48Z</time></trkpt><trkpt lat="43.19181038168869" lon="12.19306587732558"><ele>548.0</ele><time>2026-03-28T09:24:49Z</time></trkpt><trkpt lat="43.19177808349856" lon="12.19296316231095"><ele>548.0</ele><time>2026-03-28T09:24:50Z</time></trkpt><trkpt lat="43.1917674139084" lon="12.192853899135981"><ele>547.8</ele><time>2026-03-28T09:24:51Z</time></trkpt><trkpt lat="43.191776755707174" lon="12.192721532214948"><ele>547.5999999999999</ele><time>2026-03-28T09:24:52Z</time></trkpt><trkpt lat="43.19182861766283" lon="12.1925917548357"><ele>547.4000000000001</ele><time>2026-03-28T09:24:53Z</time></trkpt><trkpt lat="43.191850074389066" lon="12.192454774220796"><ele>547.2</ele><time>2026-03-28T09:24:54Z</time></trkpt><trkpt lat="43.191902946276464" lon="12.192327996874083"><ele>547.0</ele><time>2026-03-28T09:24:55Z</time></trkpt><trkpt lat="43.19199020749326" lon="12.192205606460245"><ele>547.0</ele><time>2026-03-28T09:24:56Z</time></trkpt><trkpt lat="43.192098709363705" lon="12.192082510047086"><ele>547.0</ele><time>2026-03-28T09:24:57Z</time></trkpt><trkpt lat="43.19221022156396" lon="12.191957583359612"><ele>547.0</ele><time>2026-03-28T09:24:58Z</time></trkpt><trkpt lat="43.19231867157201" lon="12.191839859288962"><ele>547.0</ele><time>2026-03-28T09:24:59Z</time></trkpt><trkpt lat="43.192419863513436" lon="12.191727427709017"><ele>547.1666666666667</ele><time>2026-03-28T09:25:00Z</time></trkpt><trkpt lat="43.19249871690092" lon="12.191644694520923"><ele>547.3333333333334</ele><time>2026-03-28T09:25:01Z</time></trkpt><trkpt lat="43.192558282482295" lon="12.191579567261932"><ele>547.5</ele><time>2026-03-28T09:25:02Z</time></trkpt><trkpt lat="43.192605792239796" lon="12.191518011323895"><ele>547.6666666666666</ele><time>2026-03-28T09:25:03Z</time></trkpt><trkpt lat="43.192672436786445" lon="12.191462770206543"><ele>547.8333333333333</ele><time>2026-03-28T09:25:04Z</time></trkpt><trkpt lat="43.19275382197735" lon="12.191445153523864"><ele>548.0</ele><time>2026-03-28T09:25:05Z</time></trkpt><trkpt lat="43.192848503820926" lon="12.191377260915937"><ele>548.0</ele><time>2026-03-28T09:25:06Z</time></trkpt><trkpt lat="43.19296674252789" lon="12.191336021245814"><ele>548.0</ele><time>2026-03-28T09:25:07Z</time></trkpt><trkpt lat="43.19311083318789" lon="12.191285020452959"><ele>548.0</ele><time>2026-03-28T09:25:08Z</time></trkpt><trkpt lat="43.19328130102511" lon="12.191214965084054"><ele>548.0</ele><time>2026-03-28T09:25:09Z</time></trkpt><trkpt lat="43.19346475665292" lon="12.191135023969078"><ele>548.0</ele><time>2026-03-28T09:25:10Z</time></trkpt><trkpt lat="43.193623462846986" lon="12.191072121906826"><ele>548.0</ele><time>2026-03-28T09:25:11Z</time></trkpt><trkpt lat="43.19376070236563" lon="12.19101801976578"><ele>548.0</ele><time>2026-03-28T09:25:12Z</time></trkpt><trkpt lat="43.19387505880774" lon="12.190973647043347"><ele>548.0</ele><time>2026-03-28T09:25:13Z</time></trkpt><trkpt lat="43.193977958619094" lon="12.190930605583258"><ele>548.1999999999999</ele><time>2026-03-28T09:25:13.999Z</time></trkpt><trkpt lat="43.19408033817739" lon="12.190872532688696"><ele>548.4</ele><time>2026-03-28T09:25:14.999Z</time></trkpt><trkpt lat="43.19417183256663" lon="12.190798998675367"><ele>548.5999999999999</ele><time>2026-03-28T09:25:16Z</time></trkpt><trkpt lat="43.19425237004321" lon="12.190699881093991"><ele>548.8</ele><time>2026-03-28T09:25:17Z</time></trkpt><trkpt lat="43.194322097608165" lon="12.190583106780425"><ele>549.0</ele><time>2026-03-28T09:25:18Z</time></trkpt><trkpt lat="43.19437781456699" lon="12.190428967754588"><ele>549.0</ele><time>2026-03-28T09:25:19Z</time></trkpt><trkpt lat="43.19442177238339" lon="12.19026181059313"><ele>549.0</ele><time>2026-03-28T09:25:20Z</time></trkpt><trkpt lat="43.19446061270899" lon="12.190095420016844"><ele>549.0</ele><time>2026-03-28T09:25:21Z</time></trkpt><trkpt lat="43.194500769012286" lon="12.189936410227567"><ele>549.0</ele><time>2026-03-28T09:25:22Z</time></trkpt><trkpt lat="43.1945464060987" lon="12.18979574567999"><ele>549.3333333333334</ele><time>2026-03-28T09:25:23Z</time></trkpt><trkpt lat="43.194596903988526" lon="12.189683616441055"><ele>549.6666666666666</ele><time>2026-03-28T09:25:24Z</time></trkpt><trkpt lat="43.19465087260145" lon="12.189591122435463"><ele>550.0</ele><time>2026-03-28T09:25:25Z</time></trkpt><trkpt lat="43.19472188833225" lon="12.189511618293809"><ele>550.3333333333333</ele><time>2026-03-28T09:25:26Z</time></trkpt><trkpt lat="43.1947787937319" lon="12.189431546138968"><ele>550.6666666666666</ele><time>2026-03-28T09:25:27Z</time></trkpt><trkpt lat="43.1948449814354" lon="12.18935016519781"><ele>551.0</ele><time>2026-03-28T09:25:28Z</time></trkpt><trkpt lat="43.1949177887398" lon="12.189267152980953"><ele>551.6</ele><time>2026-03-28T09:25:29Z</time></trkpt><trkpt lat="43.194993440328346" lon="12.18917361204615"><ele>552.2</ele><time>2026-03-28T09:25:30Z</time></trkpt><trkpt lat="43.19506687213485" lon="12.189085590170372"><ele>552.8</ele><time>2026-03-28T09:25:31Z</time></trkpt><trkpt lat="43.19513798146954" lon="12.18900595827136"><ele>553.4</ele><time>2026-03-28T09:25:32Z</time></trkpt><trkpt lat="43.195209781496374" lon="12.188908328294104"><ele>554.0</ele><time>2026-03-28T09:25:33Z</time></trkpt><trkpt lat="43.195272107421715" lon="12.188799037006843"><ele>554.0</ele><time>2026-03-28T09:25:34Z</time></trkpt><trkpt lat="43.19533570948279" lon="12.18866408966105"><ele>554.0</ele><time>2026-03-28T09:25:35Z</time></trkpt><trkpt lat="43.19538871063434" lon="12.18850872720183"><ele>554.0</ele><time>2026-03-28T09:25:36Z</time></trkpt><trkpt lat="43.19543067535993" lon="12.188367922429228"><ele>554.0</ele><time>2026-03-28T09:25:37Z</time></trkpt><trkpt lat="43.19547186388586" lon="12.188238408554705"><ele>553.4</ele><time>2026-03-28T09:25:38Z</time></trkpt><trkpt lat="43.19551278427891" lon="12.188119332950075"><ele>552.8</ele><time>2026-03-28T09:25:39Z</time></trkpt><trkpt lat="43.195565585217274" lon="12.188007303616908"><ele>552.2</ele><time>2026-03-28T09:25:40Z</time></trkpt><trkpt lat="43.19565730544886" lon="12.187915090692494"><ele>551.6</ele><time>2026-03-28T09:25:41Z</time></trkpt><trkpt lat="43.19573901976341" lon="12.187790028863342"><ele>551.0</ele><time>2026-03-28T09:25:42Z</time></trkpt><trkpt lat="43.19582376205106" lon="12.187657868171517"><ele>551.0</ele><time>2026-03-28T09:25:43Z</time></trkpt><trkpt lat="43.19589644487707" lon="12.187530729915096"><ele>551.0</ele><time>2026-03-28T09:25:44Z</time></trkpt><trkpt lat="43.19596723539646" lon="12.187409255996048"><ele>551.0</ele><time>2026-03-28T09:25:45Z</time></trkpt><trkpt lat="43.19603921405612" lon="12.187289866773844"><ele>551.0</ele><time>2026-03-28T09:25:46Z</time></trkpt><trkpt lat="43.19611310152162" lon="12.18717525376578"><ele>549.4</ele><time>2026-03-28T09:25:47Z</time></trkpt><trkpt lat="43.1961805444922" lon="12.187071863947988"><ele>547.8</ele><time>2026-03-28T09:25:48Z</time></trkpt><trkpt lat="43.196236064682964" lon="12.18696962437618"><ele>546.1999999999999</ele><time>2026-03-28T09:25:49Z</time></trkpt><trkpt lat="43.19627248189291" lon="12.186862553948195"><ele>544.6</ele><time>2026-03-28T09:25:50Z</time></trkpt><trkpt lat="43.196295569548575" lon="12.186741311435497"><ele>543.0</ele><time>2026-03-28T09:25:51Z</time></trkpt><trkpt lat="43.196299983761925" lon="12.186625208034677"><ele>541.1999999999999</ele><time>2026-03-28T09:25:52Z</time></trkpt><trkpt lat="43.19629744043473" lon="12.186490896206791"><ele>539.4</ele><time>2026-03-28T09:25:53Z</time></trkpt><trkpt lat="43.19628270158359" lon="12.18636106311837"><ele>537.5999999999999</ele><time>2026-03-28T09:25:54Z</time></trkpt><trkpt lat="43.19625833395292" lon="12.186227739835708"><ele>535.8</ele><time>2026-03-28T09:25:55Z</time></trkpt><trkpt lat="43.1962338743144" lon="12.18609558056155"><ele>534.0</ele><time>2026-03-28T09:25:56Z</time></trkpt><trkpt lat="43.19621216827222" lon="12.185956273341535"><ele>534.0</ele><time>2026-03-28T09:25:57Z</time></trkpt><trkpt lat="43.19618704569754" lon="12.185823531592687"><ele>534.0</ele><time>2026-03-28T09:25:58Z</time></trkpt><trkpt lat="43.19615481942248" lon="12.185693500163682"><ele>534.0</ele><time>2026-03-28T09:25:59Z</time></trkpt><trkpt lat="43.19613093282996" lon="12.185557681274926"><ele>534.0</ele><time>2026-03-28T09:26:00Z</time></trkpt><trkpt lat="43.19610485935638" lon="12.185422227713659"><ele>534.0</ele><time>2026-03-28T09:26:01Z</time></trkpt><trkpt lat="43.196080093467984" lon="12.185295390704756"><ele>532.6</ele><time>2026-03-28T09:26:02Z</time></trkpt><trkpt lat="43.19606211648971" lon="12.185173078300757"><ele>531.2</ele><time>2026-03-28T09:26:03Z</time></trkpt><trkpt lat="43.196045253434235" lon="12.18505309950236"><ele>529.8000000000001</ele><time>2026-03-28T09:26:04Z</time></trkpt><trkpt lat="43.196026977425866" lon="12.184916895245548"><ele>528.4</ele><time>2026-03-28T09:26:05Z</time></trkpt><trkpt lat="43.19601786147967" lon="12.18477900163736"><ele>527.0</ele><time>2026-03-28T09:26:06Z</time></trkpt><trkpt lat="43.19600878414284" lon="12.184649653472011"><ele>526.3333333333333</ele><time>2026-03-28T09:26:07Z</time></trkpt><trkpt lat="43.19599668948457" lon="12.18452530692825"><ele>525.6666666666666</ele><time>2026-03-28T09:26:08Z</time></trkpt><trkpt lat="43.195992573756115" lon="12.184419258871847"><ele>525.0</ele><time>2026-03-28T09:26:09Z</time></trkpt><trkpt lat="43.19599474520894" lon="12.184317427420735"><ele>524.3333333333334</ele><time>2026-03-28T09:26:10Z</time></trkpt><trkpt lat="43.19600651696737" lon="12.18421686367853"><ele>523.6666666666667</ele><time>2026-03-28T09:26:11Z</time></trkpt><trkpt lat="43.19603863386868" lon="12.18412344203816"><ele>523.0</ele><time>2026-03-28T09:26:12Z</time></trkpt><trkpt lat="43.196099203754926" lon="12.184024467812195"><ele>521.8</ele><time>2026-03-28T09:26:13Z</time></trkpt><trkpt lat="43.19618759669979" lon="12.183931668655958"><ele>520.5999999999999</ele><time>2026-03-28T09:26:14Z</time></trkpt><trkpt lat="43.19629397177348" lon="12.183842873149677"><ele>519.4000000000001</ele><time>2026-03-28T09:26:15Z</time></trkpt><trkpt lat="43.19638037546888" lon="12.183759603396394"><ele>518.2</ele><time>2026-03-28T09:26:16Z</time></trkpt><trkpt lat="43.19644611759012" lon="12.183669341845869"><ele>517.0</ele><time>2026-03-28T09:26:17Z</time></trkpt><trkpt lat="43.19650079102009" lon="12.183573769105735"><ele>516.5</ele><time>2026-03-28T09:26:18Z</time></trkpt><trkpt lat="43.196556517755404" lon="12.183489042134015"><ele>516.0</ele><time>2026-03-28T09:26:19Z</time></trkpt><trkpt lat="43.19661709585431" lon="12.18342342549173"><ele>515.5</ele><time>2026-03-28T09:26:20Z</time></trkpt><trkpt lat="43.196690410018775" lon="12.183385476734612"><ele>515.0</ele><time>2026-03-28T09:26:21Z</time></trkpt><trkpt lat="43.196771059837126" lon="12.183375307358299"><ele>514.5</ele><time>2026-03-28T09:26:22Z</time></trkpt><trkpt lat="43.19685308314316" lon="12.183396602620629"><ele>514.0</ele><time>2026-03-28T09:26:23Z</time></trkpt><trkpt lat="43.19696257771829" lon="12.183420528252487"><ele>514.0</ele><time>2026-03-28T09:26:24Z</time></trkpt><trkpt lat="43.19705715965948" lon="12.183439876007466"><ele>514.0</ele><time>2026-03-28T09:26:25Z</time></trkpt><trkpt lat="43.197148661211685" lon="12.183435462446916"><ele>514.0</ele><time>2026-03-28T09:26:26Z</time></trkpt><trkpt lat="43.19722799733616" lon="12.183395645701012"><ele>514.0</ele><time>2026-03-28T09:26:27Z</time></trkpt><trkpt lat="43.19730549146518" lon="12.183308749830807"><ele>514.0</ele><time>2026-03-28T09:26:28Z</time></trkpt><trkpt lat="43.19737596189699" lon="12.183189795369389"><ele>512.25</ele><time>2026-03-28T09:26:29Z</time></trkpt><trkpt lat="43.19744233001313" lon="12.183041813098603"><ele>510.5</ele><time>2026-03-28T09:26:30Z</time></trkpt><trkpt lat="43.19751428214209" lon="12.182878747254057"><ele>508.75</ele><time>2026-03-28T09:26:31Z</time></trkpt><trkpt lat="43.1975988261304" lon="12.182713077559033"><ele>507.0</ele><time>2026-03-28T09:26:32Z</time></trkpt><trkpt lat="43.19767112972696" lon="12.182523499078021"><ele>506.5</ele><time>2026-03-28T09:26:33Z</time></trkpt><trkpt lat="43.19772230484016" lon="12.182328859741007"><ele>506.0</ele><time>2026-03-28T09:26:34Z</time></trkpt><trkpt lat="43.197790693779105" lon="12.182170815022287"><ele>505.5</ele><time>2026-03-28T09:26:35Z</time></trkpt><trkpt lat="43.19784086231499" lon="12.182005145056507"><ele>505.0</ele><time>2026-03-28T09:26:36Z</time></trkpt><trkpt lat="43.197883671115186" lon="12.181830631877988"><ele>505.0</ele><time>2026-03-28T09:26:37Z</time></trkpt><trkpt lat="43.1978945564829" lon="12.18165219154964"><ele>505.0</ele><time>2026-03-28T09:26:38Z</time></trkpt><trkpt lat="43.19790533113525" lon="12.181490009880516"><ele>505.0</ele><time>2026-03-28T09:26:39Z</time></trkpt><trkpt lat="43.19789004324431" lon="12.181309593418671"><ele>505.0</ele><time>2026-03-28T09:26:40Z</time></trkpt><trkpt lat="43.1978358743015" lon="12.181138039222228"><ele>506.25</ele><time>2026-03-28T09:26:41Z</time></trkpt><trkpt lat="43.19775758945926" lon="12.18097202044908"><ele>507.5</ele><time>2026-03-28T09:26:42Z</time></trkpt><trkpt lat="43.197686045532635" lon="12.180806468265178"><ele>508.75</ele><time>2026-03-28T09:26:43Z</time></trkpt><trkpt lat="43.1976321786712" lon="12.180662662775081"><ele>510.0</ele><time>2026-03-28T09:26:44Z</time></trkpt><trkpt lat="43.19759948939319" lon="12.180537023236052"><ele>510.6</ele><time>2026-03-28T09:26:45Z</time></trkpt><trkpt lat="43.19758952844986" lon="12.180413632888254"><ele>511.2</ele><time>2026-03-28T09:26:46Z</time></trkpt><trkpt lat="43.19761871036878" lon="12.180298259888561"><ele>511.79999999999995</ele><time>2026-03-28T09:26:47Z</time></trkpt><trkpt lat="43.197650165637214" lon="12.180222618395774"><ele>512.4</ele><time>2026-03-28T09:26:48Z</time></trkpt><trkpt lat="43.19772723398928" lon="12.180120230792706"><ele>513.0</ele><time>2026-03-28T09:26:49Z</time></trkpt><trkpt lat="43.197821321289666" lon="12.180028954029796"><ele>513.0</ele><time>2026-03-28T09:26:50Z</time></trkpt><trkpt lat="43.19792300395817" lon="12.179932965474318"><ele>513.0</ele><time>2026-03-28T09:26:51Z</time></trkpt><trkpt lat="43.19802872373601" lon="12.179827821999085"><ele>513.0</ele><time>2026-03-28T09:26:52Z</time></trkpt><trkpt lat="43.198115160605035" lon="12.179755307448566"><ele>513.0</ele><time>2026-03-28T09:26:53Z</time></trkpt><trkpt lat="43.19817468736664" lon="12.17969232133091"><ele>513.0</ele><time>2026-03-28T09:26:54Z</time></trkpt><trkpt lat="43.19822363582846" lon="12.1796140070012"><ele>514.4</ele><time>2026-03-28T09:26:55Z</time></trkpt><trkpt lat="43.198278496389236" lon="12.179510550704636"><ele>515.8</ele><time>2026-03-28T09:26:56Z</time></trkpt><trkpt lat="43.198336904234054" lon="12.17939402499996"><ele>517.2</ele><time>2026-03-28T09:26:57Z</time></trkpt><trkpt lat="43.198402803246466" lon="12.179256652035793"><ele>518.6</ele><time>2026-03-28T09:26:58Z</time></trkpt><trkpt lat="43.19847142283716" lon="12.179105864597034"><ele>520.0</ele><time>2026-03-28T09:26:59Z</time></trkpt><trkpt lat="43.19852900440143" lon="12.178925306552115"><ele>520.5</ele><time>2026-03-28T09:27:00Z</time></trkpt><trkpt lat="43.19859151366997" lon="12.178752375534621"><ele>521.0</ele><time>2026-03-28T09:27:01Z</time></trkpt><trkpt lat="43.19864005614884" lon="12.178605221949548"><ele>521.5</ele><time>2026-03-28T09:27:02Z</time></trkpt><trkpt lat="43.1986909861645" lon="12.178454954176123"><ele>522.0</ele><time>2026-03-28T09:27:03Z</time></trkpt><trkpt lat="43.198740107193814" lon="12.178276006680973"><ele>522.3333333333334</ele><time>2026-03-28T09:27:04Z</time></trkpt><trkpt lat="43.19879113439969" lon="12.178081090378978"><ele>522.6666666666667</ele><time>2026-03-28T09:27:05Z</time></trkpt><trkpt lat="43.198840530982984" lon="12.177881269085344"><ele>523.0</ele><time>2026-03-28T09:27:06Z</time></trkpt><trkpt lat="43.198899704996876" lon="12.177684715175713"><ele>523.0</ele><time>2026-03-28T09:27:07Z</time></trkpt><trkpt lat="43.19895986041506" lon="12.177489653910518"><ele>523.0</ele><time>2026-03-28T09:27:08Z</time></trkpt><trkpt lat="43.19902270911328" lon="12.177295446547754"><ele>523.0</ele><time>2026-03-28T09:27:09Z</time></trkpt><trkpt lat="43.199097617603925" lon="12.17710427989222"><ele>527.6666666666667</ele><time>2026-03-28T09:27:10Z</time></trkpt><trkpt lat="43.19914952143717" lon="12.176901387502058"><ele>532.3333333333334</ele><time>2026-03-28T09:27:11Z</time></trkpt><trkpt lat="43.19920613506597" lon="12.176702875404091"><ele>537.0</ele><time>2026-03-28T09:27:12Z</time></trkpt><trkpt lat="43.199242299240254" lon="12.176515583392279"><ele>538.5</ele><time>2026-03-28T09:27:13Z</time></trkpt><trkpt lat="43.19926286970643" lon="12.176360153779802"><ele>540.0</ele><time>2026-03-28T09:27:14Z</time></trkpt><trkpt lat="43.19926614249683" lon="12.176159591083918"><ele>541.5</ele><time>2026-03-28T09:27:15Z</time></trkpt><trkpt lat="43.19926280805691" lon="12.175956133901476"><ele>543.0</ele><time>2026-03-28T09:27:16Z</time></trkpt><trkpt lat="43.199276197545764" lon="12.175764272022105"><ele>545.0</ele><time>2026-03-28T09:27:17Z</time></trkpt><trkpt lat="43.19928291537499" lon="12.175595324648498"><ele>547.0</ele><time>2026-03-28T09:27:18Z</time></trkpt><trkpt lat="43.19930253657377" lon="12.175449380724292"><ele>549.0</ele><time>2026-03-28T09:27:19Z</time></trkpt><trkpt lat="43.19932956397399" lon="12.175335668515428"><ele>551.0</ele><time>2026-03-28T09:27:20Z</time></trkpt><trkpt lat="43.199375628358936" lon="12.175255855956442"><ele>553.0</ele><time>2026-03-28T09:27:21Z</time></trkpt><trkpt lat="43.19943724261777" lon="12.175166747857842"><ele>553.0</ele><time>2026-03-28T09:27:22Z</time></trkpt><trkpt lat="43.19951560532067" lon="12.175071037198487"><ele>553.0</ele><time>2026-03-28T09:27:23Z</time></trkpt><trkpt lat="43.19959532292976" lon="12.174948596438913"><ele>553.0</ele><time>2026-03-28T09:27:24Z</time></trkpt><trkpt lat="43.1997066244545" lon="12.174835320814854"><ele>553.0</ele><time>2026-03-28T09:27:25Z</time></trkpt><trkpt lat="43.19981575470741" lon="12.174711105559918"><ele>556.5</ele><time>2026-03-28T09:27:26Z</time></trkpt><trkpt lat="43.199911871197386" lon="12.174612623936264"><ele>560.0</ele><time>2026-03-28T09:27:27Z</time></trkpt><trkpt lat="43.19999712235801" lon="12.17450576346624"><ele>563.5</ele><time>2026-03-28T09:27:28Z</time></trkpt><trkpt lat="43.200102887558465" lon="12.174388137022826"><ele>567.0</ele><time>2026-03-28T09:27:29Z</time></trkpt><trkpt lat="43.20019307712234" lon="12.174288864211265"><ele>567.0</ele><time>2026-03-28T09:27:30Z</time></trkpt><trkpt lat="43.20025849884103" lon="12.174201934344408"><ele>567.0</ele><time>2026-03-28T09:27:31Z</time></trkpt><trkpt lat="43.200318306620666" lon="12.174100556705426"><ele>567.0</ele><time>2026-03-28T09:27:32Z</time></trkpt><trkpt lat="43.20035995249614" lon="12.173988764776437"><ele>567.0</ele><time>2026-03-28T09:27:33Z</time></trkpt><trkpt lat="43.20040675908931" lon="12.173856322444234"><ele>567.0</ele><time>2026-03-28T09:27:34Z</time></trkpt><trkpt lat="43.20047128916872" lon="12.17372543168478"><ele>569.5</ele><time>2026-03-28T09:27:35Z</time></trkpt><trkpt lat="43.20057157010791" lon="12.173631047956777"><ele>572.0</ele><time>2026-03-28T09:27:36Z</time></trkpt><trkpt lat="43.20068074409581" lon="12.173544070793765"><ele>574.5</ele><time>2026-03-28T09:27:37Z</time></trkpt><trkpt lat="43.200796882417485" lon="12.173445159839426"><ele>577.0</ele><time>2026-03-28T09:27:38Z</time></trkpt><trkpt lat="43.200928800016875" lon="12.173383564849598"><ele>577.0</ele><time>2026-03-28T09:27:39Z</time></trkpt><trkpt lat="43.201074542052126" lon="12.173315426311726"><ele>577.0</ele><time>2026-03-28T09:27:40Z</time></trkpt><trkpt lat="43.20120758559748" lon="12.173256773069285"><ele>577.0</ele><time>2026-03-28T09:27:41Z</time></trkpt><trkpt lat="43.201337236605134" lon="12.173199594721927"><ele>577.0</ele><time>2026-03-28T09:27:42Z</time></trkpt><trkpt lat="43.201474779423066" lon="12.173129141536517"><ele>578.6666666666667</ele><time>2026-03-28T09:27:43Z</time></trkpt><trkpt lat="43.20161959792438" lon="12.173065812343445"><ele>580.3333333333334</ele><time>2026-03-28T09:27:44Z</time></trkpt><trkpt lat="43.20177747606531" lon="12.173001422458205"><ele>582.0</ele><time>2026-03-28T09:27:45Z</time></trkpt><trkpt lat="43.20191050728498" lon="12.172953248623344"><ele>582.0</ele><time>2026-03-28T09:27:46Z</time></trkpt><trkpt lat="43.20202912766443" lon="12.172912751415652"><ele>582.0</ele><time>2026-03-28T09:27:47Z</time></trkpt><trkpt lat="43.20213748767738" lon="12.172874964727638"><ele>582.0</ele><time>2026-03-28T09:27:48Z</time></trkpt><trkpt lat="43.202239120361405" lon="12.172855606277949"><ele>582.0</ele><time>2026-03-28T09:27:49Z</time></trkpt><trkpt lat="43.202336350397715" lon="12.172853307067989"><ele>582.0</ele><time>2026-03-28T09:27:50Z</time></trkpt><trkpt lat="43.20241846928737" lon="12.172804758100046"><ele>580.6666666666666</ele><time>2026-03-28T09:27:51Z</time></trkpt><trkpt lat="43.202505149633026" lon="12.172767738848355"><ele>579.3333333333334</ele><time>2026-03-28T09:27:52Z</time></trkpt><trkpt lat="43.202583404866196" lon="12.172732335717068"><ele>578.0</ele><time>2026-03-28T09:27:53Z</time></trkpt><trkpt lat="43.20265990695576" lon="12.17269206001545"><ele>576.6666666666667</ele><time>2026-03-28T09:27:54Z</time></trkpt><trkpt lat="43.20272244502901" lon="12.17264066660131"><ele>575.3333333333334</ele><time>2026-03-28T09:27:55Z</time></trkpt><trkpt lat="43.202767096801395" lon="12.172568941065034"><ele>574.0</ele><time>2026-03-28T09:27:56Z</time></trkpt><trkpt lat="43.20281093138294" lon="12.172484454152789"><ele>574.0</ele><time>2026-03-28T09:27:57Z</time></trkpt><trkpt lat="43.202812845437016" lon="12.172379750219816"><ele>574.0</ele><time>2026-03-28T09:27:58Z</time></trkpt><trkpt lat="43.202737979575815" lon="12.172272403261431"><ele>574.0</ele><time>2026-03-28T09:27:59Z</time></trkpt><trkpt lat="43.2027031644515" lon="12.172151356508335"><ele>574.0</ele><time>2026-03-28T09:28:00Z</time></trkpt><trkpt lat="43.20268146107724" lon="12.172034075573414"><ele>574.0</ele><time>2026-03-28T09:28:01Z</time></trkpt><trkpt lat="43.20264020101833" lon="12.171888722578545"><ele>572.5</ele><time>2026-03-28T09:28:02Z</time></trkpt><trkpt lat="43.20257831579482" lon="12.171775411451447"><ele>571.0</ele><time>2026-03-28T09:28:03Z</time></trkpt><trkpt lat="43.20246929988058" lon="12.171670199475434"><ele>569.5</ele><time>2026-03-28T09:28:04Z</time></trkpt><trkpt lat="43.20235220796398" lon="12.171550339881751"><ele>568.0</ele><time>2026-03-28T09:28:05Z</time></trkpt><trkpt lat="43.20223065528558" lon="12.171414164520284"><ele>567.0</ele><time>2026-03-28T09:28:06Z</time></trkpt><trkpt lat="43.20209768352803" lon="12.171291052152243"><ele>566.0</ele><time>2026-03-28T09:28:07Z</time></trkpt><trkpt lat="43.20196132803418" lon="12.171146210389034"><ele>565.0</ele><time>2026-03-28T09:28:08Z</time></trkpt><trkpt lat="43.20183360021819" lon="12.171024132178935"><ele>565.0</ele><time>2026-03-28T09:28:09Z</time></trkpt><trkpt lat="43.20170876402966" lon="12.17089685254194"><ele>565.0</ele><time>2026-03-28T09:28:10Z</time></trkpt><trkpt lat="43.20159464810373" lon="12.170788172351072"><ele>565.0</ele><time>2026-03-28T09:28:11Z</time></trkpt><trkpt lat="43.201484322204514" lon="12.170673872810253"><ele>565.0</ele><time>2026-03-28T09:28:12Z</time></trkpt><trkpt lat="43.201377171007735" lon="12.17055998110857"><ele>566.6</ele><time>2026-03-28T09:28:13Z</time></trkpt><trkpt lat="43.20128050423379" lon="12.1704531844142"><ele>568.2</ele><time>2026-03-28T09:28:14Z</time></trkpt><trkpt lat="43.201200236038176" lon="12.17035585110755"><ele>569.8</ele><time>2026-03-28T09:28:15Z</time></trkpt><trkpt lat="43.201135682459544" lon="12.170250118170129"><ele>571.4</ele><time>2026-03-28T09:28:16Z</time></trkpt><trkpt lat="43.20107586405226" lon="12.170121874785305"><ele>573.0</ele><time>2026-03-28T09:28:17Z</time></trkpt><trkpt lat="43.20108244799112" lon="12.169976946006933"><ele>572.1999999999999</ele><time>2026-03-28T09:28:18Z</time></trkpt><trkpt lat="43.20110154903989" lon="12.169834539700524"><ele>571.4</ele><time>2026-03-28T09:28:19Z</time></trkpt><trkpt lat="43.20111661790452" lon="12.16967455631841"><ele>570.5999999999999</ele><time>2026-03-28T09:28:20Z</time></trkpt><trkpt lat="43.20114568532334" lon="12.169540980752833"><ele>569.8</ele><time>2026-03-28T09:28:21Z</time></trkpt><trkpt lat="43.20114645151233" lon="12.169407811459763"><ele>569.0</ele><time>2026-03-28T09:28:22Z</time></trkpt><trkpt lat="43.2011269717384" lon="12.169261617101878"><ele>569.0</ele><time>2026-03-28T09:28:23Z</time></trkpt><trkpt lat="43.201085113648226" lon="12.16910600576697"><ele>569.0</ele><time>2026-03-28T09:28:24Z</time></trkpt><trkpt lat="43.20102248618342" lon="12.168942062301475"><ele>569.0</ele><time>2026-03-28T09:28:25Z</time></trkpt><trkpt lat="43.20095772143858" lon="12.168766212645478"><ele>569.0</ele><time>2026-03-28T09:28:26Z</time></trkpt><trkpt lat="43.20089131404257" lon="12.168578893101621"><ele>570.0</ele><time>2026-03-28T09:28:27Z</time></trkpt><trkpt lat="43.20083653806312" lon="12.168388775798196"><ele>571.0</ele><time>2026-03-28T09:28:28Z</time></trkpt><trkpt lat="43.20072436316827" lon="12.168205392087428"><ele>572.0</ele><time>2026-03-28T09:28:29Z</time></trkpt><trkpt lat="43.200641322024666" lon="12.168024982768356"><ele>572.0</ele><time>2026-03-28T09:28:30Z</time></trkpt><trkpt lat="43.20058233545604" lon="12.1678450368046"><ele>572.0</ele><time>2026-03-28T09:28:31Z</time></trkpt><trkpt lat="43.20052991010377" lon="12.16765286771074"><ele>572.0</ele><time>2026-03-28T09:28:32Z</time></trkpt><trkpt lat="43.20047833951982" lon="12.167446975620866"><ele>570.75</ele><time>2026-03-28T09:28:33Z</time></trkpt><trkpt lat="43.20042810771804" lon="12.16724796148529"><ele>569.5</ele><time>2026-03-28T09:28:34Z</time></trkpt><trkpt lat="43.20039250878686" lon="12.167063699709079"><ele>568.25</ele><time>2026-03-28T09:28:35Z</time></trkpt><trkpt lat="43.20035342848262" lon="12.166897469130308"><ele>567.0</ele><time>2026-03-28T09:28:36Z</time></trkpt><trkpt lat="43.20032693729859" lon="12.16675614395143"><ele>567.0</ele><time>2026-03-28T09:28:37Z</time></trkpt><trkpt lat="43.20030295915282" lon="12.166632652078803"><ele>567.0</ele><time>2026-03-28T09:28:38Z</time></trkpt><trkpt lat="43.200281938049166" lon="12.166519848747232"><ele>567.0</ele><time>2026-03-28T09:28:39Z</time></trkpt><trkpt lat="43.20026780478549" lon="12.166418869143692"><ele>567.0</ele><time>2026-03-28T09:28:40Z</time></trkpt><trkpt lat="43.20024744044381" lon="12.166303391840177"><ele>567.0</ele><time>2026-03-28T09:28:41Z</time></trkpt><trkpt lat="43.20024191780629" lon="12.166201530889932"><ele>567.0</ele><time>2026-03-28T09:28:42Z</time></trkpt><trkpt lat="43.200268104800585" lon="12.16610139242984"><ele>566.0</ele><time>2026-03-28T09:28:43Z</time></trkpt><trkpt lat="43.200286892034946" lon="12.166005307443193"><ele>565.0</ele><time>2026-03-28T09:28:44Z</time></trkpt><trkpt lat="43.200303377971224" lon="12.165902018730618"><ele>564.0</ele><time>2026-03-28T09:28:45Z</time></trkpt><trkpt lat="43.20033108058027" lon="12.165809898111178"><ele>563.0</ele><time>2026-03-28T09:28:46Z</time></trkpt><trkpt lat="43.20036645608254" lon="12.16572448222729"><ele>562.0</ele><time>2026-03-28T09:28:47Z</time></trkpt><trkpt lat="43.20041267651761" lon="12.165636319202783"><ele>561.0</ele><time>2026-03-28T09:28:48Z</time></trkpt><trkpt lat="43.20044369344957" lon="12.165544009241419"><ele>560.0</ele><time>2026-03-28T09:28:49Z</time></trkpt><trkpt lat="43.20047052560197" lon="12.165461328253903"><ele>558.8333333333333</ele><time>2026-03-28T09:28:50Z</time></trkpt><trkpt lat="43.20048531435669" lon="12.165342631099875"><ele>557.6666666666666</ele><time>2026-03-28T09:28:51Z</time></trkpt><trkpt lat="43.20050856233829" lon="12.165239005314321"><ele>556.5</ele><time>2026-03-28T09:28:52Z</time></trkpt><trkpt lat="43.20051747048131" lon="12.165132076766698"><ele>555.3333333333334</ele><time>2026-03-28T09:28:53Z</time></trkpt><trkpt lat="43.20051612003829" lon="12.165020799576526"><ele>554.1666666666667</ele><time>2026-03-28T09:28:54Z</time></trkpt><trkpt lat="43.200500222865486" lon="12.164902654956578"><ele>553.0</ele><time>2026-03-28T09:28:55Z</time></trkpt><trkpt lat="43.2004863045421" lon="12.164777324701289"><ele>551.8</ele><time>2026-03-28T09:28:56Z</time></trkpt><trkpt lat="43.20043623590377" lon="12.164653925029041"><ele>550.5999999999999</ele><time>2026-03-28T09:28:57Z</time></trkpt><trkpt lat="43.20040593275415" lon="12.16452585693532"><ele>549.4000000000001</ele><time>2026-03-28T09:28:58Z</time></trkpt><trkpt lat="43.20037347515605" lon="12.164393371418468"><ele>548.2</ele><time>2026-03-28T09:28:59Z</time></trkpt><trkpt lat="43.200338271186496" lon="12.164254399510497"><ele>547.0</ele><time>2026-03-28T09:29:00Z</time></trkpt><trkpt lat="43.20031497763605" lon="12.164112552453066"><ele>546.6</ele><time>2026-03-28T09:29:01Z</time></trkpt><trkpt lat="43.20028997712053" lon="12.163976341421868"><ele>546.2</ele><time>2026-03-28T09:29:02Z</time></trkpt><trkpt lat="43.20027405139992" lon="12.163853260707588"><ele>545.8</ele><time>2026-03-28T09:29:03Z</time></trkpt><trkpt lat="43.20026098970096" lon="12.16371840155251"><ele>545.4</ele><time>2026-03-28T09:29:04Z</time></trkpt><trkpt lat="43.200252213650934" lon="12.163591168443917"><ele>545.0</ele><time>2026-03-28T09:29:05Z</time></trkpt><trkpt lat="43.20025135840804" lon="12.16346353594217"><ele>545.0</ele><time>2026-03-28T09:29:06Z</time></trkpt><trkpt lat="43.2002572034022" lon="12.163347487058575"><ele>545.0</ele><time>2026-03-28T09:29:07Z</time></trkpt><trkpt lat="43.200262957479765" lon="12.163241036485354"><ele>545.0</ele><time>2026-03-28T09:29:08Z</time></trkpt><trkpt lat="43.20027690246457" lon="12.163133282741004"><ele>545.0</ele><time>2026-03-28T09:29:09Z</time></trkpt><trkpt lat="43.20031020554916" lon="12.16302402012643"><ele>545.0</ele><time>2026-03-28T09:29:10Z</time></trkpt><trkpt lat="43.200377094269356" lon="12.162941620336476"><ele>545.0</ele><time>2026-03-28T09:29:11Z</time></trkpt><trkpt lat="43.200453145669215" lon="12.16284888289449"><ele>546.75</ele><time>2026-03-28T09:29:12Z</time></trkpt><trkpt lat="43.20053343812823" lon="12.162729360189925"><ele>548.5</ele><time>2026-03-28T09:29:13Z</time></trkpt><trkpt lat="43.200631721043024" lon="12.162610224538584"><ele>550.25</ele><time>2026-03-28T09:29:14Z</time></trkpt><trkpt lat="43.20073346669759" lon="12.162478953264756"><ele>552.0</ele><time>2026-03-28T09:29:15Z</time></trkpt><trkpt lat="43.20084051767706" lon="12.162342599119047"><ele>547.0</ele><time>2026-03-28T09:29:16Z</time></trkpt><trkpt lat="43.200937353539395" lon="12.162212211929308"><ele>542.0</ele><time>2026-03-28T09:29:17Z</time></trkpt><trkpt lat="43.20102720353429" lon="12.162090679535043"><ele>537.0</ele><time>2026-03-28T09:29:18Z</time></trkpt><trkpt lat="43.201114957851914" lon="12.161972551208738"><ele>532.0</ele><time>2026-03-28T09:29:19Z</time></trkpt><trkpt lat="43.201195802557514" lon="12.161858777741225"><ele>532.0</ele><time>2026-03-28T09:29:20Z</time></trkpt><trkpt lat="43.201273476796494" lon="12.161754532543315"><ele>532.0</ele><time>2026-03-28T09:29:21Z</time></trkpt><trkpt lat="43.201358810322155" lon="12.161641406897497"><ele>532.0</ele><time>2026-03-28T09:29:22Z</time></trkpt><trkpt lat="43.20144356138295" lon="12.161546860843607"><ele>532.0</ele><time>2026-03-28T09:29:23Z</time></trkpt><trkpt lat="43.20153792291407" lon="12.161447814899118"><ele>531.75</ele><time>2026-03-28T09:29:24Z</time></trkpt><trkpt lat="43.20162993789223" lon="12.16136442932064"><ele>531.5</ele><time>2026-03-28T09:29:25Z</time></trkpt><trkpt lat="43.20173825185505" lon="12.161285093952825"><ele>531.25</ele><time>2026-03-28T09:29:26Z</time></trkpt><trkpt lat="43.20183593698977" lon="12.161207007677346"><ele>531.0</ele><time>2026-03-28T09:29:27Z</time></trkpt><trkpt lat="43.201930195283005" lon="12.161116810702326"><ele>531.0</ele><time>2026-03-28T09:29:28Z</time></trkpt><trkpt lat="43.202022865141906" lon="12.16102483818696"><ele>531.0</ele><time>2026-03-28T09:29:29Z</time></trkpt><trkpt lat="43.20211521206944" lon="12.160919448183005"><ele>531.0</ele><time>2026-03-28T09:29:30Z</time></trkpt><trkpt lat="43.20220729794311" lon="12.160800030698592"><ele>531.0</ele><time>2026-03-28T09:29:31Z</time></trkpt><trkpt lat="43.20229676983818" lon="12.16066584670237"><ele>530.25</ele><time>2026-03-28T09:29:32Z</time></trkpt><trkpt lat="43.202380753854655" lon="12.160529530737193"><ele>529.5</ele><time>2026-03-28T09:29:33Z</time></trkpt><trkpt lat="43.20246349504635" lon="12.160386466411374"><ele>528.75</ele><time>2026-03-28T09:29:34Z</time></trkpt><trkpt lat="43.20253168561711" lon="12.160246866824183"><ele>528.0</ele><time>2026-03-28T09:29:35Z</time></trkpt><trkpt lat="43.202593759073835" lon="12.160107258314333"><ele>528.0</ele><time>2026-03-28T09:29:36Z</time></trkpt><trkpt lat="43.202647495626316" lon="12.15996079523053"><ele>528.0</ele><time>2026-03-28T09:29:37Z</time></trkpt><trkpt lat="43.2026960319976" lon="12.15981478168352"><ele>528.0</ele><time>2026-03-28T09:29:38Z</time></trkpt><trkpt lat="43.202735661639565" lon="12.15966181801854"><ele>528.0</ele><time>2026-03-28T09:29:39Z</time></trkpt><trkpt lat="43.20277733496247" lon="12.159493550967428"><ele>528.25</ele><time>2026-03-28T09:29:40Z</time></trkpt><trkpt lat="43.20280219167866" lon="12.159317659496988"><ele>528.5</ele><time>2026-03-28T09:29:41Z</time></trkpt><trkpt lat="43.20282599418336" lon="12.159149618083568"><ele>528.75</ele><time>2026-03-28T09:29:42Z</time></trkpt><trkpt lat="43.202840196154185" lon="12.158996246734123"><ele>529.0</ele><time>2026-03-28T09:29:43Z</time></trkpt><trkpt lat="43.20283838654647" lon="12.15885630793383"><ele>530.75</ele><time>2026-03-28T09:29:44Z</time></trkpt><trkpt lat="43.202818186266924" lon="12.158723691047603"><ele>532.5</ele><time>2026-03-28T09:29:45Z</time></trkpt><trkpt lat="43.202780006323195" lon="12.158589227418728"><ele>534.25</ele><time>2026-03-28T09:29:46Z</time></trkpt><trkpt lat="43.20271816609653" lon="12.158444953054303"><ele>536.0</ele><time>2026-03-28T09:29:47Z</time></trkpt><trkpt lat="43.20265125893374" lon="12.158292154866558"><ele>537.25</ele><time>2026-03-28T09:29:48Z</time></trkpt><trkpt lat="43.20257139464642" lon="12.158132557201395"><ele>538.5</ele><time>2026-03-28T09:29:49Z</time></trkpt><trkpt lat="43.20252416132995" lon="12.15793623375434"><ele>539.75</ele><time>2026-03-28T09:29:50Z</time></trkpt><trkpt lat="43.202447821554635" lon="12.157752628897397"><ele>541.0</ele><time>2026-03-28T09:29:51Z</time></trkpt><trkpt lat="43.2023903351987" lon="12.157571948149632"><ele>541.0</ele><time>2026-03-28T09:29:52Z</time></trkpt><trkpt lat="43.20234596211205" lon="12.157417756947158"><ele>541.0</ele><time>2026-03-28T09:29:53Z</time></trkpt><trkpt lat="43.20228977728763" lon="12.15730208591601"><ele>541.0</ele><time>2026-03-28T09:29:54Z</time></trkpt><trkpt lat="43.20226538855489" lon="12.157209579375099"><ele>541.0</ele><time>2026-03-28T09:29:55Z</time></trkpt><trkpt lat="43.20228920681154" lon="12.157053502425383"><ele>541.0</ele><time>2026-03-28T09:29:57Z</time></trkpt><trkpt lat="43.20236442001014" lon="12.157009010492283"><ele>542.6666666666667</ele><time>2026-03-28T09:29:58Z</time></trkpt><trkpt lat="43.20243474754902" lon="12.156956901271347"><ele>544.3333333333334</ele><time>2026-03-28T09:29:59Z</time></trkpt><trkpt lat="43.20252591745965" lon="12.156895249797252"><ele>546.0</ele><time>2026-03-28T09:30:00Z</time></trkpt><trkpt lat="43.20260060154485" lon="12.156825464145921"><ele>547.6666666666666</ele><time>2026-03-28T09:30:01Z</time></trkpt><trkpt lat="43.20266094775945" lon="12.156761535494237"><ele>549.3333333333333</ele><time>2026-03-28T09:30:02Z</time></trkpt><trkpt lat="43.202700198254135" lon="12.156674918497986"><ele>551.0</ele><time>2026-03-28T09:30:03Z</time></trkpt><trkpt lat="43.20271314141808" lon="12.156583821084356"><ele>552.4</ele><time>2026-03-28T09:30:04Z</time></trkpt><trkpt lat="43.202689691131646" lon="12.156434980766809"><ele>553.8</ele><time>2026-03-28T09:30:06Z</time></trkpt><trkpt lat="43.202602921496315" lon="12.156388713351147"><ele>555.1999999999999</ele><time>2026-03-28T09:30:07Z</time></trkpt><trkpt lat="43.20252698938311" lon="12.156339515459198"><ele>556.6</ele><time>2026-03-28T09:30:08Z</time></trkpt><trkpt lat="43.20244090033403" lon="12.156284906594307"><ele>558.0</ele><time>2026-03-28T09:30:09Z</time></trkpt><trkpt lat="43.202341075524465" lon="12.156218031261092"><ele>559.0</ele><time>2026-03-28T09:30:10Z</time></trkpt><trkpt lat="43.20223325265477" lon="12.156144223175518"><ele>560.0</ele><time>2026-03-28T09:30:11Z</time></trkpt><trkpt lat="43.202128438760994" lon="12.156064150767632"><ele>561.0</ele><time>2026-03-28T09:30:12Z</time></trkpt><trkpt lat="43.20203835946337" lon="12.156003932277242"><ele>562.0</ele><time>2026-03-28T09:30:13Z</time></trkpt><trkpt lat="43.20196092344097" lon="12.15593892426912"><ele>563.0</ele><time>2026-03-28T09:30:14Z</time></trkpt><trkpt lat="43.201893379202275" lon="12.155845234161566"><ele>563.0</ele><time>2026-03-28T09:30:15Z</time></trkpt><trkpt lat="43.201861948759834" lon="12.155701145039309"><ele>563.0</ele><time>2026-03-28T09:30:16Z</time></trkpt><trkpt lat="43.201800833444395" lon="12.1555491372873"><ele>563.0</ele><time>2026-03-28T09:30:17Z</time></trkpt><trkpt lat="43.201741868370426" lon="12.155404113773564"><ele>563.0</ele><time>2026-03-28T09:30:18Z</time></trkpt><trkpt lat="43.201678605360094" lon="12.155269891961131"><ele>563.0</ele><time>2026-03-28T09:30:19Z</time></trkpt><trkpt lat="43.20161473003389" lon="12.155136766266391"><ele>563.0</ele><time>2026-03-28T09:30:20Z</time></trkpt><trkpt lat="43.20154766269606" lon="12.155009283757868"><ele>563.0</ele><time>2026-03-28T09:30:21Z</time></trkpt><trkpt lat="43.201469969485466" lon="12.15491674553676"><ele>563.0</ele><time>2026-03-28T09:30:22Z</time></trkpt><trkpt lat="43.2013789898163" lon="12.154836481174607"><ele>563.0</ele><time>2026-03-28T09:30:23Z</time></trkpt><trkpt lat="43.201277124507364" lon="12.154755582807875"><ele>563.8</ele><time>2026-03-28T09:30:24Z</time></trkpt><trkpt lat="43.20119010460947" lon="12.15467051286736"><ele>564.5999999999999</ele><time>2026-03-28T09:30:25Z</time></trkpt><trkpt lat="43.20113385488733" lon="12.15456251608164"><ele>565.4000000000001</ele><time>2026-03-28T09:30:26Z</time></trkpt><trkpt lat="43.201129364754514" lon="12.154416107818573"><ele>566.2</ele><time>2026-03-28T09:30:27Z</time></trkpt><trkpt lat="43.20110716329745" lon="12.154261168929981"><ele>567.0</ele><time>2026-03-28T09:30:28Z</time></trkpt><trkpt lat="43.20108786876272" lon="12.15407545169717"><ele>567.0</ele><time>2026-03-28T09:30:29Z</time></trkpt><trkpt lat="43.201077134563945" lon="12.153898317827034"><ele>567.0</ele><time>2026-03-28T09:30:30Z</time></trkpt><trkpt lat="43.20105666046559" lon="12.153745618591893"><ele>567.0</ele><time>2026-03-28T09:30:31Z</time></trkpt><trkpt lat="43.2010640843326" lon="12.153599435368529"><ele>567.0</ele><time>2026-03-28T09:30:32Z</time></trkpt><trkpt lat="43.201056543747875" lon="12.153453291197806"><ele>567.0</ele><time>2026-03-28T09:30:33Z</time></trkpt><trkpt lat="43.20104743157437" lon="12.153322584392889"><ele>567.0</ele><time>2026-03-28T09:30:34Z</time></trkpt><trkpt lat="43.20102536403313" lon="12.153196688269288"><ele>567.0</ele><time>2026-03-28T09:30:35Z</time></trkpt><trkpt lat="43.20099541008737" lon="12.153080543691434"><ele>567.0</ele><time>2026-03-28T09:30:36Z</time></trkpt><trkpt lat="43.200960175322905" lon="12.152966091034662"><ele>567.0</ele><time>2026-03-28T09:30:37Z</time></trkpt><trkpt lat="43.20092403466011" lon="12.15285632309484"><ele>566.1428571428571</ele><time>2026-03-28T09:30:38Z</time></trkpt><trkpt lat="43.20088607644779" lon="12.152755870000767"><ele>565.2857142857142</ele><time>2026-03-28T09:30:39Z</time></trkpt><trkpt lat="43.20085466739734" lon="12.152658095171262"><ele>564.4285714285714</ele><time>2026-03-28T09:30:40Z</time></trkpt><trkpt lat="43.20085113846678" lon="12.152550985876047"><ele>563.5714285714286</ele><time>2026-03-28T09:30:41Z</time></trkpt><trkpt lat="43.20084513681913" lon="12.152451827161606"><ele>562.7142857142857</ele><time>2026-03-28T09:30:42Z</time></trkpt><trkpt lat="43.200849863166475" lon="12.152357773786987"><ele>561.8571428571429</ele><time>2026-03-28T09:30:43Z</time></trkpt><trkpt lat="43.20084957623619" lon="12.152266523028684"><ele>561.0</ele><time>2026-03-28T09:30:44Z</time></trkpt><trkpt lat="43.20087565620615" lon="12.152174744348324"><ele>558.4</ele><time>2026-03-28T09:30:45Z</time></trkpt><trkpt lat="43.20093378348469" lon="12.152079887151721"><ele>555.8</ele><time>2026-03-28T09:30:46Z</time></trkpt><trkpt lat="43.20098739707703" lon="12.151967387607794"><ele>553.1999999999999</ele><time>2026-03-28T09:30:47Z</time></trkpt><trkpt lat="43.20103048760956" lon="12.151841014129241"><ele>550.6</ele><time>2026-03-28T09:30:48Z</time></trkpt><trkpt lat="43.201094785017226" lon="12.151720501792349"><ele>548.0</ele><time>2026-03-28T09:30:49Z</time></trkpt><trkpt lat="43.20115657662504" lon="12.151609642339215"><ele>545.0</ele><time>2026-03-28T09:30:50Z</time></trkpt><trkpt lat="43.20120585093936" lon="12.151496027726168"><ele>542.0</ele><time>2026-03-28T09:30:51Z</time></trkpt><trkpt lat="43.201254511099854" lon="12.151379645978023"><ele>539.0</ele><time>2026-03-28T09:30:52Z</time></trkpt><trkpt lat="43.20130100238197" lon="12.151260827339554"><ele>536.0</ele><time>2026-03-28T09:30:53Z</time></trkpt><trkpt lat="43.20134475591899" lon="12.151140307152955"><ele>533.0</ele><time>2026-03-28T09:30:54Z</time></trkpt><trkpt lat="43.20138183527016" lon="12.151033760516713"><ele>533.0</ele><time>2026-03-28T09:30:55Z</time></trkpt><trkpt lat="43.201412919524934" lon="12.15091229850548"><ele>533.0</ele><time>2026-03-28T09:30:56Z</time></trkpt><trkpt lat="43.20144209989446" lon="12.150787161829928"><ele>533.0</ele><time>2026-03-28T09:30:57Z</time></trkpt><trkpt lat="43.20147132659829" lon="12.150677902233031"><ele>533.0</ele><time>2026-03-28T09:30:58Z</time></trkpt><trkpt lat="43.20149315974851" lon="12.150565013544991"><ele>533.0</ele><time>2026-03-28T09:30:59Z</time></trkpt><trkpt lat="43.201509433005334" lon="12.15042543453387"><ele>535.25</ele><time>2026-03-28T09:31:00Z</time></trkpt><trkpt lat="43.20152372092958" lon="12.15027358350479"><ele>537.5</ele><time>2026-03-28T09:31:01Z</time></trkpt><trkpt lat="43.20153822262192" lon="12.1501221188533"><ele>539.75</ele><time>2026-03-28T09:31:02Z</time></trkpt><trkpt lat="43.20156149723532" lon="12.149960979040456"><ele>542.0</ele><time>2026-03-28T09:31:03Z</time></trkpt><trkpt lat="43.20157862467602" lon="12.14979218413893"><ele>542.0</ele><time>2026-03-28T09:31:04Z</time></trkpt><trkpt lat="43.20161052410865" lon="12.149617771808662"><ele>542.0</ele><time>2026-03-28T09:31:05Z</time></trkpt><trkpt lat="43.20164483976904" lon="12.149457832175797"><ele>542.0</ele><time>2026-03-28T09:31:06Z</time></trkpt><trkpt lat="43.20168420037235" lon="12.149322708068516"><ele>542.0</ele><time>2026-03-28T09:31:07Z</time></trkpt><trkpt lat="43.201728766844084" lon="12.149197073562645"><ele>542.0</ele><time>2026-03-28T09:31:08Z</time></trkpt><trkpt lat="43.201796600197945" lon="12.149074043357144"><ele>542.0</ele><time>2026-03-28T09:31:09Z</time></trkpt><trkpt lat="43.201898005177576" lon="12.148969265897039"><ele>542.0</ele><time>2026-03-28T09:31:10Z</time></trkpt><trkpt lat="43.201989473253505" lon="12.148834066528066"><ele>542.0</ele><time>2026-03-28T09:31:11Z</time></trkpt><trkpt lat="43.202086800239115" lon="12.148703695716902"><ele>539.75</ele><time>2026-03-28T09:31:12Z</time></trkpt><trkpt lat="43.20217896607219" lon="12.148564261695002"><ele>537.5</ele><time>2026-03-28T09:31:13Z</time></trkpt><trkpt lat="43.20226708689511" lon="12.148424923263018"><ele>535.25</ele><time>2026-03-28T09:31:14Z</time></trkpt><trkpt lat="43.20234687430834" lon="12.14830157159864"><ele>533.0</ele><time>2026-03-28T09:31:15Z</time></trkpt><trkpt lat="43.2024226767323" lon="12.148180667029855"><ele>531.5</ele><time>2026-03-28T09:31:16Z</time></trkpt><trkpt lat="43.202496922168336" lon="12.148061923289939"><ele>530.0</ele><time>2026-03-28T09:31:17Z</time></trkpt><trkpt lat="43.20257106194216" lon="12.147938082984545"><ele>528.5</ele><time>2026-03-28T09:31:18Z</time></trkpt><trkpt lat="43.20264087942195" lon="12.147811143252936"><ele>527.0</ele><time>2026-03-28T09:31:19Z</time></trkpt><trkpt lat="43.20270744776874" lon="12.147697935151362"><ele>527.0</ele><time>2026-03-28T09:31:20Z</time></trkpt><trkpt lat="43.202764264388655" lon="12.147605188303546"><ele>527.0</ele><time>2026-03-28T09:31:21Z</time></trkpt><trkpt lat="43.20280725299508" lon="12.147527533631665"><ele>527.0</ele><time>2026-03-28T09:31:22Z</time></trkpt><trkpt lat="43.20287237674519" lon="12.147430152903619"><ele>527.0</ele><time>2026-03-28T09:31:24Z</time></trkpt><trkpt lat="43.20292521385232" lon="12.147364369826901"><ele>527.0</ele><time>2026-03-28T09:31:27Z</time></trkpt><trkpt lat="43.202998834867664" lon="12.147317493090505"><ele>527.0</ele><time>2026-03-28T09:31:29Z</time></trkpt><trkpt lat="43.203120396621465" lon="12.14724082001369"><ele>526.6666666666666</ele><time>2026-03-28T09:31:31Z</time></trkpt><trkpt lat="43.20320221383818" lon="12.147203114670893"><ele>526.3333333333333</ele><time>2026-03-28T09:31:32Z</time></trkpt><trkpt lat="43.20328579925027" lon="12.14716336174453"><ele>526.0</ele><time>2026-03-28T09:31:33Z</time></trkpt><trkpt lat="43.20335714717665" lon="12.147130809512975"><ele>525.6666666666666</ele><time>2026-03-28T09:31:34Z</time></trkpt><trkpt lat="43.203423697904284" lon="12.147104661238991"><ele>525.3333333333334</ele><time>2026-03-28T09:31:35Z</time></trkpt><trkpt lat="43.20348478502415" lon="12.14705758767241"><ele>525.0</ele><time>2026-03-28T09:31:36Z</time></trkpt><trkpt lat="43.20353449097171" lon="12.14698120556123"><ele>525.0</ele><time>2026-03-28T09:31:37Z</time></trkpt><trkpt lat="43.20359847235686" lon="12.14689894771453"><ele>525.0</ele><time>2026-03-28T09:31:38Z</time></trkpt><trkpt lat="43.203641233377404" lon="12.146777145609999"><ele>525.0</ele><time>2026-03-28T09:31:39Z</time></trkpt><trkpt lat="43.20367375750245" lon="12.146648124865997"><ele>525.0</ele><time>2026-03-28T09:31:40Z</time></trkpt><trkpt lat="43.203703018443505" lon="12.146535072067607"><ele>525.0</ele><time>2026-03-28T09:31:41Z</time></trkpt><trkpt lat="43.203735616904304" lon="12.146434310814215"><ele>524.8333333333334</ele><time>2026-03-28T09:31:42Z</time></trkpt><trkpt lat="43.203770691248195" lon="12.14633327249767"><ele>524.6666666666666</ele><time>2026-03-28T09:31:43Z</time></trkpt><trkpt lat="43.20380822016752" lon="12.146237007449141"><ele>524.5</ele><time>2026-03-28T09:31:44Z</time></trkpt><trkpt lat="43.20383292822733" lon="12.146138430727738"><ele>524.3333333333333</ele><time>2026-03-28T09:31:45Z</time></trkpt><trkpt lat="43.20387630652895" lon="12.14606086089889"><ele>524.1666666666666</ele><time>2026-03-28T09:31:46Z</time></trkpt><trkpt lat="43.2039173813023" lon="12.145982914020657"><ele>524.0</ele><time>2026-03-28T09:31:47Z</time></trkpt><trkpt lat="43.203979410964294" lon="12.145917044021209"><ele>522.3333333333333</ele><time>2026-03-28T09:31:48Z</time></trkpt><trkpt lat="43.20403045794945" lon="12.14584129788798"><ele>520.6666666666666</ele><time>2026-03-28T09:31:49Z</time></trkpt><trkpt lat="43.20407678619188" lon="12.145775893289763"><ele>519.0</ele><time>2026-03-28T09:31:50Z</time></trkpt><trkpt lat="43.204152834106175" lon="12.14567426996656"><ele>517.3333333333334</ele><time>2026-03-28T09:31:52Z</time></trkpt><trkpt lat="43.204240054089695" lon="12.145620869229333"><ele>515.6666666666667</ele><time>2026-03-28T09:31:54Z</time></trkpt><trkpt lat="43.20432788818298" lon="12.145649431543037"><ele>514.0</ele><time>2026-03-28T09:40:43Z</time></trkpt><trkpt lat="43.20444439972373" lon="12.145666234596407"><ele>512.6</ele><time>2026-03-28T09:40:45Z</time></trkpt><trkpt lat="43.20452455977113" lon="12.145676987747798"><ele>511.2</ele><time>2026-03-28T09:40:46Z</time></trkpt><trkpt lat="43.2046095468241" lon="12.145683749323098"><ele>509.80000000000007</ele><time>2026-03-28T09:40:47Z</time></trkpt><trkpt lat="43.20469912035809" lon="12.145677845429137"><ele>508.40000000000003</ele><time>2026-03-28T09:40:48Z</time></trkpt><trkpt lat="43.20480654894361" lon="12.1456602670413"><ele>507.0</ele><time>2026-03-28T09:40:49Z</time></trkpt><trkpt lat="43.204919963627496" lon="12.145637278048508"><ele>507.0</ele><time>2026-03-28T09:40:50Z</time></trkpt><trkpt lat="43.205038416540006" lon="12.145613413872361"><ele>507.0</ele><time>2026-03-28T09:40:51Z</time></trkpt><trkpt lat="43.205161555981746" lon="12.14560004380134"><ele>507.0</ele><time>2026-03-28T09:40:52Z</time></trkpt><trkpt lat="43.205287363858474" lon="12.145614487373118"><ele>507.0</ele><time>2026-03-28T09:40:53Z</time></trkpt><trkpt lat="43.20542279971317" lon="12.14559948103083"><ele>507.0</ele><time>2026-03-28T09:40:54Z</time></trkpt><trkpt lat="43.205564236778876" lon="12.145604200309368"><ele>507.0</ele><time>2026-03-28T09:40:55Z</time></trkpt><trkpt lat="43.205701180874634" lon="12.14561289318966"><ele>507.0</ele><time>2026-03-28T09:40:56Z</time></trkpt><trkpt lat="43.20580934991157" lon="12.145632820327261"><ele>507.0</ele><time>2026-03-28T09:40:57Z</time></trkpt><trkpt lat="43.205905866765576" lon="12.145631787169911"><ele>508.0</ele><time>2026-03-28T09:40:58Z</time></trkpt><trkpt lat="43.20599797047207" lon="12.14564543135097"><ele>509.0</ele><time>2026-03-28T09:40:59Z</time></trkpt><trkpt lat="43.206070296731426" lon="12.145653793014734"><ele>510.0</ele><time>2026-03-28T09:41:00Z</time></trkpt><trkpt lat="43.20616001344049" lon="12.145666668754346"><ele>511.0</ele><time>2026-03-28T09:41:02Z</time></trkpt><trkpt lat="43.20622194204968" lon="12.145684910205471"><ele>512.0</ele><time>2026-03-28T09:41:05Z</time></trkpt><trkpt lat="43.20632611447914" lon="12.145712782945152"><ele>513.0</ele><time>2026-03-28T09:41:11Z</time></trkpt><trkpt lat="43.20638065434986" lon="12.145765763872829"><ele>513.8</ele><time>2026-03-28T09:41:12Z</time></trkpt><trkpt lat="43.206462240260024" lon="12.1458337996282"><ele>514.5999999999999</ele><time>2026-03-28T09:41:13Z</time></trkpt><trkpt lat="43.20653113816011" lon="12.145900990409862"><ele>515.4000000000001</ele><time>2026-03-28T09:41:14Z</time></trkpt><trkpt lat="43.206618812876535" lon="12.14596364213275"><ele>516.2</ele><time>2026-03-28T09:41:15Z</time></trkpt><trkpt lat="43.206713310170834" lon="12.146056253996612"><ele>517.0</ele><time>2026-03-28T09:41:16Z</time></trkpt><trkpt lat="43.20681797664088" lon="12.146141388468275"><ele>521.0</ele><time>2026-03-28T09:41:17Z</time></trkpt><trkpt lat="43.20692793868795" lon="12.146212296325452"><ele>525.0</ele><time>2026-03-28T09:41:18Z</time></trkpt><trkpt lat="43.207043965642676" lon="12.146284114557771"><ele>529.0</ele><time>2026-03-28T09:41:19Z</time></trkpt><trkpt lat="43.2071669656742" lon="12.14635092672017"><ele>533.0</ele><time>2026-03-28T09:41:20Z</time></trkpt><trkpt lat="43.207292353264386" lon="12.146420905457955"><ele>536.0</ele><time>2026-03-28T09:41:21Z</time></trkpt><trkpt lat="43.20741636094515" lon="12.1464908108368"><ele>539.0</ele><time>2026-03-28T09:41:22Z</time></trkpt><trkpt lat="43.2075414309321" lon="12.146555605870512"><ele>542.0</ele><time>2026-03-28T09:41:23Z</time></trkpt><trkpt lat="43.20766794864322" lon="12.146619845257037"><ele>545.0</ele><time>2026-03-28T09:41:24Z</time></trkpt><trkpt lat="43.207788982393254" lon="12.146679459850619"><ele>545.0</ele><time>2026-03-28T09:41:25Z</time></trkpt><trkpt lat="43.20791600812481" lon="12.146763499280855"><ele>545.0</ele><time>2026-03-28T09:41:26Z</time></trkpt><trkpt lat="43.20802553097026" lon="12.146801360420769"><ele>545.0</ele><time>2026-03-28T09:41:27Z</time></trkpt><trkpt lat="43.20813920038146" lon="12.146854752972642"><ele>545.0</ele><time>2026-03-28T09:41:28Z</time></trkpt><trkpt lat="43.20825802285167" lon="12.146863570650599"><ele>549.0</ele><time>2026-03-28T09:41:29Z</time></trkpt><trkpt lat="43.20837800268586" lon="12.14684948207908"><ele>553.0</ele><time>2026-03-28T09:41:30Z</time></trkpt><trkpt lat="43.20850824800407" lon="12.146799565211735"><ele>557.0</ele><time>2026-03-28T09:41:31Z</time></trkpt><trkpt lat="43.20863452630491" lon="12.146740102590012"><ele>561.0</ele><time>2026-03-28T09:41:32Z</time></trkpt><trkpt lat="43.20876462124911" lon="12.146704518031948"><ele>561.0</ele><time>2026-03-28T09:41:33Z</time></trkpt><trkpt lat="43.208907975288284" lon="12.146646584891045"><ele>561.0</ele><time>2026-03-28T09:41:34Z</time></trkpt><trkpt lat="43.209052103566016" lon="12.146602771744824"><ele>561.0</ele><time>2026-03-28T09:41:35Z</time></trkpt><trkpt lat="43.20918284720803" lon="12.146565211310929"><ele>561.0</ele><time>2026-03-28T09:41:36Z</time></trkpt><trkpt lat="43.20929655174437" lon="12.146533572811764"><ele>563.75</ele><time>2026-03-28T09:41:37Z</time></trkpt><trkpt lat="43.20941093932196" lon="12.146505993311786"><ele>566.5</ele><time>2026-03-28T09:41:38Z</time></trkpt><trkpt lat="43.209533790942274" lon="12.146486659441186"><ele>569.25</ele><time>2026-03-28T09:41:39Z</time></trkpt><trkpt lat="43.20966250039048" lon="12.146468939730566"><ele>572.0</ele><time>2026-03-28T09:41:40Z</time></trkpt><trkpt lat="43.20979337320795" lon="12.146460877210961"><ele>573.5</ele><time>2026-03-28T09:41:41Z</time></trkpt><trkpt lat="43.20992456071882" lon="12.146461144912617"><ele>575.0</ele><time>2026-03-28T09:41:42Z</time></trkpt><trkpt lat="43.21005842420916" lon="12.146464350002573"><ele>576.5</ele><time>2026-03-28T09:41:43Z</time></trkpt><trkpt lat="43.21019576516294" lon="12.146475541963275"><ele>578.0</ele><time>2026-03-28T09:41:44Z</time></trkpt><trkpt lat="43.21034051292349" lon="12.146498469232217"><ele>578.0</ele><time>2026-03-28T09:41:45Z</time></trkpt><trkpt lat="43.21049141875235" lon="12.146522891031513"><ele>578.0</ele><time>2026-03-28T09:41:46Z</time></trkpt><trkpt lat="43.210632998647604" lon="12.146535035446623"><ele>578.0</ele><time>2026-03-28T09:41:47Z</time></trkpt><trkpt lat="43.21077962305855" lon="12.14654840337208"><ele>578.0</ele><time>2026-03-28T09:41:48Z</time></trkpt><trkpt lat="43.21092625539512" lon="12.146562000324415"><ele>579.0</ele><time>2026-03-28T09:41:49Z</time></trkpt><trkpt lat="43.21107378216707" lon="12.146560692543183"><ele>580.0</ele><time>2026-03-28T09:41:50Z</time></trkpt><trkpt lat="43.211219249422996" lon="12.146544865764843"><ele>581.0</ele><time>2026-03-28T09:41:51Z</time></trkpt><trkpt lat="43.21136792780054" lon="12.14650706419537"><ele>582.0</ele><time>2026-03-28T09:41:52Z</time></trkpt><trkpt lat="43.21151386375155" lon="12.14646997144005"><ele>583.5</ele><time>2026-03-28T09:41:53Z</time></trkpt><trkpt lat="43.21165268101543" lon="12.14645775514521"><ele>585.0</ele><time>2026-03-28T09:41:54Z</time></trkpt><trkpt lat="43.21177953798484" lon="12.146455837692628"><ele>586.5</ele><time>2026-03-28T09:41:55Z</time></trkpt><trkpt lat="43.211900662074385" lon="12.14644017455958"><ele>588.0</ele><time>2026-03-28T09:41:56Z</time></trkpt><trkpt lat="43.21201780451924" lon="12.146408994641183"><ele>588.0</ele><time>2026-03-28T09:41:57Z</time></trkpt><trkpt lat="43.21211935335683" lon="12.146361383311088"><ele>588.0</ele><time>2026-03-28T09:41:58Z</time></trkpt><trkpt lat="43.212195287648356" lon="12.146245882176583"><ele>588.0</ele><time>2026-03-28T09:41:59Z</time></trkpt><trkpt lat="43.212298758389586" lon="12.146184824536467"><ele>588.0</ele><time>2026-03-28T09:42:02Z</time></trkpt><trkpt lat="43.21236846403204" lon="12.146157457666158"><ele>588.0</ele><time>2026-03-28T09:42:03Z</time></trkpt><trkpt lat="43.21246190767301" lon="12.146173735004357"><ele>589.6</ele><time>2026-03-28T09:42:03.999Z</time></trkpt><trkpt lat="43.21256280284648" lon="12.146195018305951"><ele>591.1999999999999</ele><time>2026-03-28T09:42:04.999Z</time></trkpt><trkpt lat="43.21267474050261" lon="12.146166718300373"><ele>592.8</ele><time>2026-03-28T09:42:05.999Z</time></trkpt><trkpt lat="43.21278765759319" lon="12.146143653742381"><ele>594.4</ele><time>2026-03-28T09:42:06.999Z</time></trkpt><trkpt lat="43.21289503171185" lon="12.14609151331236"><ele>596.0</ele><time>2026-03-28T09:42:07.999Z</time></trkpt><trkpt lat="43.2130134137312" lon="12.146039802828223"><ele>596.0</ele><time>2026-03-28T09:42:08.999Z</time></trkpt><trkpt lat="43.213133601311064" lon="12.14603326676402"><ele>596.0</ele><time>2026-03-28T09:42:09.999Z</time></trkpt><trkpt lat="43.2132260687102" lon="12.14600489875548"><ele>596.0</ele><time>2026-03-28T09:42:10.999Z</time></trkpt><trkpt lat="43.213303410274825" lon="12.145961159901407"><ele>596.0</ele><time>2026-03-28T09:42:11.999Z</time></trkpt><trkpt lat="43.213367483314684" lon="12.145946419830224"><ele>596.0</ele><time>2026-03-28T09:42:12.999Z</time></trkpt><trkpt lat="43.21349370938551" lon="12.145917274865303"><ele>596.5</ele><time>2026-03-28T09:42:15Z</time></trkpt><trkpt lat="43.21357100670628" lon="12.145901917096573"><ele>597.0</ele><time>2026-03-28T09:42:16Z</time></trkpt><trkpt lat="43.21365564241384" lon="12.145890604031463"><ele>597.5</ele><time>2026-03-28T09:42:17Z</time></trkpt><trkpt lat="43.213748886345826" lon="12.145877615312049"><ele>598.0</ele><time>2026-03-28T09:42:18Z</time></trkpt><trkpt lat="43.213843269378906" lon="12.145858767000462"><ele>598.5</ele><time>2026-03-28T09:42:19Z</time></trkpt><trkpt lat="43.21393048821495" lon="12.145834159758815"><ele>599.0</ele><time>2026-03-28T09:42:20Z</time></trkpt><trkpt lat="43.21402645791883" lon="12.145812420906896"><ele>599.1666666666666</ele><time>2026-03-28T09:42:21Z</time></trkpt><trkpt lat="43.21412342066597" lon="12.145787389350598"><ele>599.3333333333333</ele><time>2026-03-28T09:42:22Z</time></trkpt><trkpt lat="43.21421483568854" lon="12.14576892831804"><ele>599.5</ele><time>2026-03-28T09:42:23Z</time></trkpt><trkpt lat="43.21429810459862" lon="12.145759187927233"><ele>599.6666666666666</ele><time>2026-03-28T09:42:24Z</time></trkpt><trkpt lat="43.21437813765323" lon="12.14574727738283"><ele>599.8333333333334</ele><time>2026-03-28T09:42:25Z</time></trkpt><trkpt lat="43.21445911943161" lon="12.145721172432719"><ele>600.0</ele><time>2026-03-28T09:42:26Z</time></trkpt><trkpt lat="43.2145339411909" lon="12.145675474305788"><ele>600.5</ele><time>2026-03-28T09:42:27Z</time></trkpt><trkpt lat="43.21459437388279" lon="12.145632396324768"><ele>601.0</ele><time>2026-03-28T09:42:28Z</time></trkpt><trkpt lat="43.21465513858275" lon="12.145581599893992"><ele>601.5</ele><time>2026-03-28T09:42:29Z</time></trkpt><trkpt lat="43.21471310432853" lon="12.145512386722562"><ele>602.0</ele><time>2026-03-28T09:42:30Z</time></trkpt><trkpt lat="43.21476988962497" lon="12.145427770551684"><ele>602.5</ele><time>2026-03-28T09:42:31Z</time></trkpt><trkpt lat="43.21481427505644" lon="12.145336943532996"><ele>603.0</ele><time>2026-03-28T09:42:32Z</time></trkpt><trkpt lat="43.21485704111213" lon="12.145241474749284"><ele>603.0</ele><time>2026-03-28T09:42:33Z</time></trkpt><trkpt lat="43.21490232370697" lon="12.145127299907303"><ele>603.0</ele><time>2026-03-28T09:42:34Z</time></trkpt><trkpt lat="43.21495219120495" lon="12.145005056934629"><ele>603.0</ele><time>2026-03-28T09:42:35Z</time></trkpt><trkpt lat="43.215001706744935" lon="12.144867551298814"><ele>603.0</ele><time>2026-03-28T09:42:36Z</time></trkpt><trkpt lat="43.215049644155194" lon="12.144732857787847"><ele>603.0</ele><time>2026-03-28T09:42:37Z</time></trkpt><trkpt lat="43.21511360043" lon="12.14459552521831"><ele>602.5</ele><time>2026-03-28T09:42:38Z</time></trkpt><trkpt lat="43.21515924089247" lon="12.144452296110703"><ele>602.0</ele><time>2026-03-28T09:42:39Z</time></trkpt><trkpt lat="43.21520072807529" lon="12.144311719801083"><ele>601.5</ele><time>2026-03-28T09:42:40Z</time></trkpt><trkpt lat="43.215247371593165" lon="12.14417222011209"><ele>601.0</ele><time>2026-03-28T09:42:41Z</time></trkpt><trkpt lat="43.215306243829694" lon="12.144034988100502"><ele>600.75</ele><time>2026-03-28T09:42:42Z</time></trkpt><trkpt lat="43.21536059752289" lon="12.143898796826674"><ele>600.5</ele><time>2026-03-28T09:42:43Z</time></trkpt><trkpt lat="43.215426918288806" lon="12.143760065580276"><ele>600.25</ele><time>2026-03-28T09:42:44Z</time></trkpt><trkpt lat="43.21547800000773" lon="12.14362995431773"><ele>600.0</ele><time>2026-03-28T09:42:45Z</time></trkpt><trkpt lat="43.21554379788435" lon="12.1434972993637"><ele>600.0</ele><time>2026-03-28T09:42:46Z</time></trkpt><trkpt lat="43.2156163019974" lon="12.143363726365974"><ele>600.0</ele><time>2026-03-28T09:42:47Z</time></trkpt><trkpt lat="43.215678738801856" lon="12.14325195991104"><ele>600.0</ele><time>2026-03-28T09:42:48Z</time></trkpt><trkpt lat="43.21573931450372" lon="12.143148507212445"><ele>600.0</ele><time>2026-03-28T09:42:49Z</time></trkpt><trkpt lat="43.2157901074552" lon="12.143041085154719"><ele>600.0</ele><time>2026-03-28T09:42:50Z</time></trkpt><trkpt lat="43.21584604275074" lon="12.142941994486794"><ele>601.4</ele><time>2026-03-28T09:42:51Z</time></trkpt><trkpt lat="43.215908534102134" lon="12.142838662910624"><ele>602.8</ele><time>2026-03-28T09:42:52Z</time></trkpt><trkpt lat="43.21597027326929" lon="12.142736582221223"><ele>604.2</ele><time>2026-03-28T09:42:53Z</time></trkpt><trkpt lat="43.21603107853973" lon="12.142636490340749"><ele>605.6</ele><time>2026-03-28T09:42:54Z</time></trkpt><trkpt lat="43.216089561368044" lon="12.142547684284043"><ele>607.0</ele><time>2026-03-28T09:42:55Z</time></trkpt><trkpt lat="43.21615714683096" lon="12.142466426466877"><ele>607.0</ele><time>2026-03-28T09:42:56Z</time></trkpt><trkpt lat="43.21622517865555" lon="12.142391644397694"><ele>607.0</ele><time>2026-03-28T09:42:56.999Z</time></trkpt><trkpt lat="43.21629819703197" lon="12.142335539869679"><ele>607.0</ele><time>2026-03-28T09:42:57.999Z</time></trkpt><trkpt lat="43.216387415725194" lon="12.14228358219847"><ele>607.0</ele><time>2026-03-28T09:42:58.999Z</time></trkpt><trkpt lat="43.21649822226538" lon="12.142236503455877"><ele>607.0</ele><time>2026-03-28T09:42:59.999Z</time></trkpt><trkpt lat="43.216601708074684" lon="12.142199249897777"><ele>606.0</ele><time>2026-03-28T09:43:00.999Z</time></trkpt><trkpt lat="43.216698511885184" lon="12.142164658876688"><ele>605.0</ele><time>2026-03-28T09:43:01.999Z</time></trkpt><trkpt lat="43.21679924430129" lon="12.142144454378728"><ele>604.0</ele><time>2026-03-28T09:43:02.999Z</time></trkpt><trkpt lat="43.216906711671115" lon="12.142134831427663"><ele>603.0</ele><time>2026-03-28T09:43:03.999Z</time></trkpt><trkpt lat="43.21702500199452" lon="12.14214006137746"><ele>602.0</ele><time>2026-03-28T09:43:04.999Z</time></trkpt><trkpt lat="43.21714515860879" lon="12.142127766118675"><ele>602.0</ele><time>2026-03-28T09:43:05.999Z</time></trkpt><trkpt lat="43.21724450439221" lon="12.142127997013684"><ele>602.0</ele><time>2026-03-28T09:43:06.999Z</time></trkpt><trkpt lat="43.217349693842955" lon="12.14213388092875"><ele>602.0</ele><time>2026-03-28T09:43:07.999Z</time></trkpt><trkpt lat="43.21746144063208" lon="12.142154795394168"><ele>602.0</ele><time>2026-03-28T09:43:08.999Z</time></trkpt><trkpt lat="43.2175798560725" lon="12.14217915742631"><ele>602.0</ele><time>2026-03-28T09:43:09.999Z</time></trkpt><trkpt lat="43.21768609917834" lon="12.142201717984193"><ele>602.0</ele><time>2026-03-28T09:43:10.999Z</time></trkpt><trkpt lat="43.21779458111553" lon="12.142226143410355"><ele>602.0</ele><time>2026-03-28T09:43:11.999Z</time></trkpt><trkpt lat="43.21791210524006" lon="12.142250818417356"><ele>602.0</ele><time>2026-03-28T09:43:12.999Z</time></trkpt><trkpt lat="43.21802791087569" lon="12.14227312820129"><ele>602.0</ele><time>2026-03-28T09:43:13.999Z</time></trkpt><trkpt lat="43.21813358185016" lon="12.14229127133966"><ele>601.8000000000001</ele><time>2026-03-28T09:43:14.999Z</time></trkpt><trkpt lat="43.21823913094059" lon="12.142306965320484"><ele>601.6</ele><time>2026-03-28T09:43:15.999Z</time></trkpt><trkpt lat="43.218334756199056" lon="12.142318766934611"><ele>601.4000000000001</ele><time>2026-03-28T09:43:16.999Z</time></trkpt><trkpt lat="43.218443549922476" lon="12.142350742031462"><ele>601.2</ele><time>2026-03-28T09:43:17.999Z</time></trkpt><trkpt lat="43.21855821843701" lon="12.1423547314272"><ele>601.0</ele><time>2026-03-28T09:43:18.999Z</time></trkpt><trkpt lat="43.2186742765181" lon="12.142371779915903"><ele>604.0</ele><time>2026-03-28T09:43:19.999Z</time></trkpt><trkpt lat="43.218790028231375" lon="12.142406178148336"><ele>607.0</ele><time>2026-03-28T09:43:20.999Z</time></trkpt><trkpt lat="43.21889537912086" lon="12.1424086716225"><ele>610.0</ele><time>2026-03-28T09:43:21.999Z</time></trkpt><trkpt lat="43.21900949123346" lon="12.142427259144966"><ele>613.0</ele><time>2026-03-28T09:43:22.999Z</time></trkpt><trkpt lat="43.21911908126736" lon="12.142454488931897"><ele>613.0</ele><time>2026-03-28T09:43:23.999Z</time></trkpt><trkpt lat="43.21923043986271" lon="12.142486716819079"><ele>613.0</ele><time>2026-03-28T09:43:24.999Z</time></trkpt><trkpt lat="43.21936462988005" lon="12.14252242164902"><ele>613.0</ele><time>2026-03-28T09:43:25.999Z</time></trkpt><trkpt lat="43.21949646225875" lon="12.142569542928328"><ele>613.0</ele><time>2026-03-28T09:43:26.999Z</time></trkpt><trkpt lat="43.219638759330934" lon="12.142620566093962"><ele>613.0</ele><time>2026-03-28T09:43:27.999Z</time></trkpt><trkpt lat="43.21975660099471" lon="12.142664459301162"><ele>613.0</ele><time>2026-03-28T09:43:28.999Z</time></trkpt><trkpt lat="43.219856689284896" lon="12.142701822400257"><ele>613.0</ele><time>2026-03-28T09:43:29.999Z</time></trkpt><trkpt lat="43.21994284565486" lon="12.142724877062069"><ele>613.0</ele><time>2026-03-28T09:43:30.999Z</time></trkpt><trkpt lat="43.22001220032691" lon="12.14275010108763"><ele>613.0</ele><time>2026-03-28T09:43:31.999Z</time></trkpt><trkpt lat="43.22007725489777" lon="12.14276745249611"><ele>612.6</ele><time>2026-03-28T09:43:32.999Z</time></trkpt><trkpt lat="43.22018446275955" lon="12.14275630984909"><ele>612.1999999999999</ele><time>2026-03-28T09:43:34.999Z</time></trkpt><trkpt lat="43.22026758922417" lon="12.142699127698588"><ele>611.8</ele><time>2026-03-28T09:43:36.999Z</time></trkpt><trkpt lat="43.220343211835434" lon="12.142644735914875"><ele>611.4</ele><time>2026-03-28T09:43:47.999Z</time></trkpt><trkpt lat="43.220462723088225" lon="12.142580276844066"><ele>611.0</ele><time>2026-03-28T09:43:49.999Z</time></trkpt><trkpt lat="43.22054037355549" lon="12.142532701116265"><ele>611.0</ele><time>2026-03-28T09:43:50.999Z</time></trkpt><trkpt lat="43.22059278882919" lon="12.14245951752812"><ele>611.0</ele><time>2026-03-28T09:43:51.999Z</time></trkpt><trkpt lat="43.22064967038149" lon="12.142390196002248"><ele>611.0</ele><time>2026-03-28T09:43:52.999Z</time></trkpt><trkpt lat="43.22071789597549" lon="12.142325631072774"><ele>611.0</ele><time>2026-03-28T09:43:53.999Z</time></trkpt><trkpt lat="43.220787067574875" lon="12.14225855665386"><ele>611.0</ele><time>2026-03-28T09:43:54.999Z</time></trkpt><trkpt lat="43.22089550718492" lon="12.142245187801308"><ele>611.0</ele><time>2026-03-28T09:43:55.999Z</time></trkpt><trkpt lat="43.22099778000312" lon="12.142226163011216"><ele>613.6</ele><time>2026-03-28T09:43:56.999Z</time></trkpt><trkpt lat="43.22107192879749" lon="12.142200725029703"><ele>616.2</ele><time>2026-03-28T09:43:57.999Z</time></trkpt><trkpt lat="43.221180335000305" lon="12.142140577696646"><ele>618.8</ele><time>2026-03-28T09:43:59.999Z</time></trkpt><trkpt lat="43.221234051909256" lon="12.142081166814458"><ele>621.4</ele><time>2026-03-28T09:44:00.999Z</time></trkpt><trkpt lat="43.221319221021595" lon="12.141986172104287"><ele>624.0</ele><time>2026-03-28T09:44:02.999Z</time></trkpt><trkpt lat="43.2214079598765" lon="12.141944861758434"><ele>624.0</ele><time>2026-03-28T09:44:04.998Z</time></trkpt><trkpt lat="43.221466350850996" lon="12.141879556762584"><ele>624.0</ele><time>2026-03-28T09:44:07.998Z</time></trkpt><trkpt lat="43.22157878265638" lon="12.14179113447378"><ele>624.0</ele><time>2026-03-28T09:44:10.998Z</time></trkpt><trkpt lat="43.221673404928815" lon="12.141710215407299"><ele>624.0</ele><time>2026-03-28T09:44:12.998Z</time></trkpt><trkpt lat="43.22174376021757" lon="12.14169379496379"><ele>624.0</ele><time>2026-03-28T09:44:13.998Z</time></trkpt><trkpt lat="43.22179245966723" lon="12.141617758350419"><ele>624.4</ele><time>2026-03-28T09:44:15.998Z</time></trkpt><trkpt lat="43.22185239767809" lon="12.141540168575602"><ele>624.8</ele><time>2026-03-28T09:44:17.998Z</time></trkpt><trkpt lat="43.22191127391675" lon="12.14148532514177"><ele>625.2</ele><time>2026-03-28T09:44:19.999Z</time></trkpt><trkpt lat="43.222008970887885" lon="12.141424179749974"><ele>625.6</ele><time>2026-03-28T09:44:22.999Z</time></trkpt><trkpt lat="43.22208154664089" lon="12.141274030986109"><ele>626.0</ele><time>2026-03-28T09:44:24.999Z</time></trkpt><trkpt lat="43.222121337027744" lon="12.141199012767096"><ele>626.0</ele><time>2026-03-28T09:44:25.999Z</time></trkpt><trkpt lat="43.22217064458272" lon="12.141117627505224"><ele>626.0</ele><time>2026-03-28T09:44:26.999Z</time></trkpt><trkpt lat="43.22224689680703" lon="12.141003265699752"><ele>626.0</ele><time>2026-03-28T09:44:28.999Z</time></trkpt><trkpt lat="43.22231282212162" lon="12.140866662519926"><ele>626.0</ele><time>2026-03-28T09:44:30.999Z</time></trkpt><trkpt lat="43.22231417187247" lon="12.14075194709966"><ele>626.0</ele><time>2026-03-28T09:44:32.999Z</time></trkpt><trkpt lat="43.22234953572994" lon="12.140607341355963"><ele>627.2</ele><time>2026-03-28T09:44:35.999Z</time></trkpt><trkpt lat="43.222364760392765" lon="12.14047014088884"><ele>628.4000000000001</ele><time>2026-03-28T09:44:37.999Z</time></trkpt><trkpt lat="43.222360373941676" lon="12.140357495609742"><ele>629.6</ele><time>2026-03-28T09:44:39.999Z</time></trkpt><trkpt lat="43.222375289480574" lon="12.140217798283901"><ele>630.8000000000001</ele><time>2026-03-28T09:44:41.999Z</time></trkpt><trkpt lat="43.22239874706199" lon="12.14007223614614"><ele>632.0</ele><time>2026-03-28T09:44:43.999Z</time></trkpt><trkpt lat="43.22240861725805" lon="12.139947369747063"><ele>632.0</ele><time>2026-03-28T09:44:45.999Z</time></trkpt><trkpt lat="43.22245443817759" lon="12.1398501812362"><ele>632.0</ele><time>2026-03-28T09:44:47.999Z</time></trkpt><trkpt lat="43.22250658033395" lon="12.139771600561287"><ele>632.0</ele><time>2026-03-28T09:44:49.999Z</time></trkpt><trkpt lat="43.222566758477484" lon="12.139665490631254"><ele>632.0</ele><time>2026-03-28T09:44:51.999Z</time></trkpt><trkpt lat="43.22262834746517" lon="12.139607272796246"><ele>632.0</ele><time>2026-03-28T09:44:53.999Z</time></trkpt><trkpt lat="43.22269765944505" lon="12.13951416175507"><ele>632.0</ele><time>2026-03-28T09:44:55.999Z</time></trkpt><trkpt lat="43.22274402254191" lon="12.139450072917906"><ele>632.0</ele><time>2026-03-28T09:44:56.999Z</time></trkpt><trkpt lat="43.22281876589602" lon="12.13933513021357"><ele>632.0</ele><time>2026-03-28T09:44:58.999Z</time></trkpt><trkpt lat="43.22287913115826" lon="12.13926493948307"><ele>632.0</ele><time>2026-03-28T09:45:00.999Z</time></trkpt><trkpt lat="43.22296365991156" lon="12.139150525524945"><ele>632.0</ele><time>2026-03-28T09:45:02.999Z</time></trkpt><trkpt lat="43.22301856535625" lon="12.139097838177015"><ele>632.0</ele><time>2026-03-28T09:45:03.999Z</time></trkpt><trkpt lat="43.223068526367584" lon="12.139008106785592"><ele>631.8000000000001</ele><time>2026-03-28T09:45:05.999Z</time></trkpt><trkpt lat="43.2231275277258" lon="12.138886683693796"><ele>631.6</ele><time>2026-03-28T09:45:07.999Z</time></trkpt><trkpt lat="43.22317208459385" lon="12.138812065876838"><ele>631.4000000000001</ele><time>2026-03-28T09:45:08.999Z</time></trkpt><trkpt lat="43.22321267657663" lon="12.138680766148875"><ele>631.2</ele><time>2026-03-28T09:45:10.999Z</time></trkpt><trkpt lat="43.223246510627234" lon="12.138535198352287"><ele>631.0</ele><time>2026-03-28T09:45:12.999Z</time></trkpt><trkpt lat="43.22327008817037" lon="12.138410655113846"><ele>632.8</ele><time>2026-03-28T09:45:14.999Z</time></trkpt><trkpt lat="43.22329443693133" lon="12.138264200353287"><ele>634.6</ele><time>2026-03-28T09:45:16.999Z</time></trkpt><trkpt lat="43.22330243728389" lon="12.138116873943794"><ele>636.4</ele><time>2026-03-28T09:45:18.999Z</time></trkpt><trkpt lat="43.223336570621754" lon="12.137983557415657"><ele>638.2</ele><time>2026-03-28T09:45:20.999Z</time></trkpt><trkpt lat="43.223386063521865" lon="12.137827692733422"><ele>640.0</ele><time>2026-03-28T09:45:22.999Z</time></trkpt><trkpt lat="43.22342664750759" lon="12.13771920627171"><ele>640.8</ele><time>2026-03-28T09:45:25.999Z</time></trkpt><trkpt lat="43.22344581909417" lon="12.137616290754442"><ele>641.6</ele><time>2026-03-28T09:45:27.999Z</time></trkpt><trkpt lat="43.22343364497034" lon="12.137462080416574"><ele>642.4000000000001</ele><time>2026-03-28T09:45:29.999Z</time></trkpt><trkpt lat="43.2234276144131" lon="12.13730549687002"><ele>643.2</ele><time>2026-03-28T09:45:31.999Z</time></trkpt><trkpt lat="43.223445553428235" lon="12.137187940352378"><ele>644.0</ele><time>2026-03-28T09:45:33.999Z</time></trkpt><trkpt lat="43.22349044954081" lon="12.137070122921312"><ele>644.0</ele><time>2026-03-28T09:45:35.999Z</time></trkpt><trkpt lat="43.22353372528997" lon="12.13700234032984"><ele>644.0</ele><time>2026-03-28T09:45:38.999Z</time></trkpt><trkpt lat="43.2236537015083" lon="12.137055460866396"><ele>644.0</ele><time>2026-03-28T09:45:42.999Z</time></trkpt><trkpt lat="43.22374190286944" lon="12.137136410868191"><ele>644.0</ele><time>2026-03-28T09:45:44.999Z</time></trkpt><trkpt lat="43.2238455520046" lon="12.137221032417964"><ele>644.0</ele><time>2026-03-28T09:45:46.999Z</time></trkpt><trkpt lat="43.22395597272724" lon="12.13726308818296"><ele>645.8333333333333</ele><time>2026-03-28T09:45:48.999Z</time></trkpt><trkpt lat="43.224022155945185" lon="12.13726578885102"><ele>647.6666666666666</ele><time>2026-03-28T09:45:49.999Z</time></trkpt><trkpt lat="43.22413637659447" lon="12.13725799232116"><ele>649.5</ele><time>2026-03-28T09:45:51.999Z</time></trkpt><trkpt lat="43.224233754479776" lon="12.137267295438622"><ele>651.3333333333334</ele><time>2026-03-28T09:45:53.999Z</time></trkpt><trkpt lat="43.22433228383113" lon="12.13726819196061"><ele>653.1666666666667</ele><time>2026-03-28T09:45:55.999Z</time></trkpt><trkpt lat="43.22439630367833" lon="12.137269255937673"><ele>655.0</ele><time>2026-03-28T09:45:56.999Z</time></trkpt><trkpt lat="43.224462254447964" lon="12.137252363202274"><ele>655.0</ele><time>2026-03-28T09:45:57.999Z</time></trkpt><trkpt lat="43.22454026556775" lon="12.137238336237171"><ele>655.0</ele><time>2026-03-28T09:45:58.999Z</time></trkpt><trkpt lat="43.224649681566945" lon="12.137211375574076"><ele>655.0</ele><time>2026-03-28T09:46:00.999Z</time></trkpt><trkpt lat="43.22470704761794" lon="12.137170304433303"><ele>655.0</ele><time>2026-03-28T09:46:01.999Z</time></trkpt><trkpt lat="43.22479379670757" lon="12.137143129886045"><ele>655.0</ele><time>2026-03-28T09:46:03.999Z</time></trkpt><trkpt lat="43.22485013804943" lon="12.137038210284132"><ele>655.0</ele><time>2026-03-28T09:46:05.999Z</time></trkpt><trkpt lat="43.22488552770713" lon="12.136953430325873"><ele>656.6</ele><time>2026-03-28T09:46:06.999Z</time></trkpt><trkpt lat="43.22491376804173" lon="12.13686657820663"><ele>658.2</ele><time>2026-03-28T09:46:07.999Z</time></trkpt><trkpt lat="43.224961972779255" lon="12.136706198189323"><ele>659.8</ele><time>2026-03-28T09:46:09.998Z</time></trkpt><trkpt lat="43.224983368492936" lon="12.136623221449769"><ele>661.4</ele><time>2026-03-28T09:46:10.998Z</time></trkpt><trkpt lat="43.22507350010736" lon="12.136517229001758"><ele>663.0</ele><time>2026-03-28T09:46:12.998Z</time></trkpt><trkpt lat="43.22516663045525" lon="12.136429117008099"><ele>663.0</ele><time>2026-03-28T09:46:14.998Z</time></trkpt><trkpt lat="43.225216031730966" lon="12.136348510322177"><ele>663.0</ele><time>2026-03-28T09:46:15.998Z</time></trkpt><trkpt lat="43.225278330593746" lon="12.136266805869393"><ele>663.0</ele><time>2026-03-28T09:46:17.998Z</time></trkpt><trkpt lat="43.22535536080169" lon="12.13616766519661"><ele>663.0</ele><time>2026-03-28T09:46:19.998Z</time></trkpt><trkpt lat="43.2254632754787" lon="12.136064868951067"><ele>663.0</ele><time>2026-03-28T09:46:21.998Z</time></trkpt><trkpt lat="43.22552653824438" lon="12.13599600301745"><ele>663.0</ele><time>2026-03-28T09:46:23.998Z</time></trkpt><trkpt lat="43.22555725466061" lon="12.135851039897029"><ele>663.0</ele><time>2026-03-28T09:46:25.998Z</time></trkpt><trkpt lat="43.22556346923973" lon="12.135765007872674"><ele>663.0</ele><time>2026-03-28T09:46:26.999Z</time></trkpt><trkpt lat="43.22566367848605" lon="12.135678670212439"><ele>663.0</ele><time>2026-03-28T09:46:28.999Z</time></trkpt><trkpt lat="43.225730608668854" lon="12.13560145915884"><ele>663.0</ele><time>2026-03-28T09:46:30.999Z</time></trkpt><trkpt lat="43.225813597227734" lon="12.135529251324087"><ele>663.1666666666666</ele><time>2026-03-28T09:46:33.999Z</time></trkpt><trkpt lat="43.22585210625017" lon="12.135460351047929"><ele>663.3333333333334</ele><time>2026-03-28T09:46:35.999Z</time></trkpt><trkpt lat="43.22590837367971" lon="12.135405438670837"><ele>663.5</ele><time>2026-03-28T09:46:37.999Z</time></trkpt><trkpt lat="43.226000960628085" lon="12.135375185814183"><ele>663.6666666666667</ele><time>2026-03-28T09:46:39.999Z</time></trkpt><trkpt lat="43.226076645975176" lon="12.135357929308443"><ele>663.8333333333334</ele><time>2026-03-28T09:46:41.999Z</time></trkpt><trkpt lat="43.22617505427906" lon="12.135359899181408"><ele>664.0</ele><time>2026-03-28T09:46:45.999Z</time></trkpt><trkpt lat="43.22624552958589" lon="12.135353998671398"><ele>664.0</ele><time>2026-03-28T09:46:47.999Z</time></trkpt><trkpt lat="43.226327105754756" lon="12.135321777126562"><ele>664.0</ele><time>2026-03-28T09:46:49.999Z</time></trkpt><trkpt lat="43.22643307262685" lon="12.13532001767847"><ele>664.0</ele><time>2026-03-28T09:46:51.999Z</time></trkpt><trkpt lat="43.226523067521335" lon="12.135304758948223"><ele>664.0</ele><time>2026-03-28T09:46:53.999Z</time></trkpt><trkpt lat="43.22663330037923" lon="12.135290369249025"><ele>664.0</ele><time>2026-03-28T09:46:55.999Z</time></trkpt><trkpt lat="43.22669914283347" lon="12.135280622489773"><ele>665.8333333333334</ele><time>2026-03-28T09:46:57.999Z</time></trkpt><trkpt lat="43.22680013400426" lon="12.135258776401"><ele>667.6666666666667</ele><time>2026-03-28T09:46:59.999Z</time></trkpt><trkpt lat="43.22689668615079" lon="12.135227618920974"><ele>669.5</ele><time>2026-03-28T09:47:01.999Z</time></trkpt><trkpt lat="43.22698063484255" lon="12.135184359878798"><ele>671.3333333333334</ele><time>2026-03-28T09:47:03.999Z</time></trkpt><trkpt lat="43.22705334898792" lon="12.135125218096471"><ele>673.1666666666666</ele><time>2026-03-28T09:47:05.999Z</time></trkpt><trkpt lat="43.22711766608436" lon="12.135085196362295"><ele>675.0</ele><time>2026-03-28T09:47:07.999Z</time></trkpt><trkpt lat="43.227161750504116" lon="12.13498273872087"><ele>675.0</ele><time>2026-03-28T09:47:09.999Z</time></trkpt><trkpt lat="43.22720072075286" lon="12.134889220073068"><ele>675.0</ele><time>2026-03-28T09:47:11.999Z</time></trkpt><trkpt lat="43.227244744081005" lon="12.134759722763008"><ele>675.0</ele><time>2026-03-28T09:47:13.999Z</time></trkpt><trkpt lat="43.227299850139595" lon="12.13465359867268"><ele>675.0</ele><time>2026-03-28T09:47:15.999Z</time></trkpt><trkpt lat="43.22733564665134" lon="12.13457168751546"><ele>675.0</ele><time>2026-03-28T09:47:18Z</time></trkpt><trkpt lat="43.22733535729185" lon="12.134446220336702"><ele>675.0</ele><time>2026-03-28T09:47:20Z</time></trkpt><trkpt lat="43.227342856987924" lon="12.134313942352732"><ele>675.5</ele><time>2026-03-28T09:47:22Z</time></trkpt><trkpt lat="43.227351335387134" lon="12.134192171583134"><ele>676.0</ele><time>2026-03-28T09:47:24Z</time></trkpt><trkpt lat="43.2273642827169" lon="12.134082838480445"><ele>676.5</ele><time>2026-03-28T09:47:26Z</time></trkpt><trkpt lat="43.22738226910097" lon="12.133963263630232"><ele>677.0</ele><time>2026-03-28T09:47:28Z</time></trkpt><trkpt lat="43.2274043870441" lon="12.133820351552764"><ele>677.5</ele><time>2026-03-28T09:47:30Z</time></trkpt><trkpt lat="43.22740856154364" lon="12.133707144841068"><ele>678.0</ele><time>2026-03-28T09:47:32Z</time></trkpt><trkpt lat="43.227425835186764" lon="12.133598131024181"><ele>678.0</ele><time>2026-03-28T09:47:34Z</time></trkpt><trkpt lat="43.22743316369249" lon="12.133486078839377"><ele>678.0</ele><time>2026-03-28T09:47:36Z</time></trkpt><trkpt lat="43.22744586448666" lon="12.13338517090765"><ele>678.0</ele><time>2026-03-28T09:47:38Z</time></trkpt><trkpt lat="43.227439642899085" lon="12.133265554923218"><ele>678.0</ele><time>2026-03-28T09:47:41Z</time></trkpt><trkpt lat="43.22745468438088" lon="12.13317851763912"><ele>678.0</ele><time>2026-03-28T09:47:44Z</time></trkpt><trkpt lat="43.22745910688008" lon="12.133050340120837"><ele>678.0</ele><time>2026-03-28T09:47:48Z</time></trkpt><trkpt lat="43.227462707049504" lon="12.13294599634753"><ele>676.6666666666666</ele><time>2026-03-28T09:47:51Z</time></trkpt><trkpt lat="43.227458548583336" lon="12.13280145391656"><ele>675.3333333333334</ele><time>2026-03-28T09:47:54Z</time></trkpt><trkpt lat="43.227475926794895" lon="12.132681846080166"><ele>674.0</ele><time>2026-03-28T09:47:56Z</time></trkpt><trkpt lat="43.227504017335974" lon="12.132601837236368"><ele>672.6666666666667</ele><time>2026-03-28T09:47:58Z</time></trkpt><trkpt lat="43.22750886532644" lon="12.13251340952959"><ele>671.3333333333334</ele><time>2026-03-28T09:48:00Z</time></trkpt><trkpt lat="43.227562359332545" lon="12.132408189041323"><ele>670.0</ele><time>2026-03-28T09:48:03Z</time></trkpt><trkpt lat="43.22762669287215" lon="12.132332649678757"><ele>670.0</ele><time>2026-03-28T09:48:05Z</time></trkpt><trkpt lat="43.22771304441054" lon="12.13228782044387"><ele>670.0</ele><time>2026-03-28T09:48:08Z</time></trkpt><trkpt lat="43.22779052488145" lon="12.132235397746546"><ele>670.0</ele><time>2026-03-28T09:48:10Z</time></trkpt><trkpt lat="43.22785653964853" lon="12.132193867142462"><ele>670.0</ele><time>2026-03-28T09:48:12Z</time></trkpt><trkpt lat="43.22794565816868" lon="12.132138021344309"><ele>670.0</ele><time>2026-03-28T09:48:13Z</time></trkpt><trkpt lat="43.22803575822941" lon="12.13209499707534"><ele>670.0</ele><time>2026-03-28T09:48:14Z</time></trkpt><trkpt lat="43.228149643965686" lon="12.132051519557542"><ele>670.0</ele><time>2026-03-28T09:48:15.999Z</time></trkpt><trkpt lat="43.22827456454584" lon="12.132014916248885"><ele>670.0</ele><time>2026-03-28T09:48:17.999Z</time></trkpt><trkpt lat="43.22834850057042" lon="12.132012992648146"><ele>670.0</ele><time>2026-03-28T09:48:18.999Z</time></trkpt><trkpt lat="43.228412186784944" lon="12.131989643998134"><ele>670.0</ele><time>2026-03-28T09:48:19.999Z</time></trkpt><trkpt lat="43.228474470647754" lon="12.13197329702021"><ele>670.0</ele><time>2026-03-28T09:48:20.999Z</time></trkpt><trkpt lat="43.2286008419882" lon="12.1319709519704"><ele>670.0</ele><time>2026-03-28T09:48:22.999Z</time></trkpt><trkpt lat="43.22866571748628" lon="12.131953867031283"><ele>670.0</ele><time>2026-03-28T09:48:23.999Z</time></trkpt><trkpt lat="43.22875512018816" lon="12.131896174770219"><ele>670.0</ele><time>2026-03-28T09:48:25.999Z</time></trkpt><trkpt lat="43.22881291356794" lon="12.131820774411423"><ele>670.0</ele><time>2026-03-28T09:48:26.999Z</time></trkpt><trkpt lat="43.2288682453674" lon="12.131735831294812"><ele>670.0</ele><time>2026-03-28T09:48:27.999Z</time></trkpt><trkpt lat="43.2289205683544" lon="12.13164330028753"><ele>670.0</ele><time>2026-03-28T09:48:28.999Z</time></trkpt><trkpt lat="43.22895300602515" lon="12.131560035975008"><ele>670.4</ele><time>2026-03-28T09:48:29.999Z</time></trkpt><trkpt lat="43.22898866621076" lon="12.131473070911355"><ele>670.8</ele><time>2026-03-28T09:48:31.999Z</time></trkpt><trkpt lat="43.229097543868775" lon="12.131393709836336"><ele>671.2</ele><time>2026-03-28T09:48:33.999Z</time></trkpt><trkpt lat="43.22916508225847" lon="12.131327896529067"><ele>671.6</ele><time>2026-03-28T09:48:34.999Z</time></trkpt><trkpt lat="43.22923814365675" lon="12.13125239619568"><ele>672.0</ele><time>2026-03-28T09:48:35.999Z</time></trkpt><trkpt lat="43.22931565066938" lon="12.131181546859139"><ele>672.0</ele><time>2026-03-28T09:48:36.999Z</time></trkpt><trkpt lat="43.22940005554055" lon="12.131104304406119"><ele>672.0</ele><time>2026-03-28T09:48:37.999Z</time></trkpt><trkpt lat="43.22947849735808" lon="12.131045267234116"><ele>672.0</ele><time>2026-03-28T09:48:38.999Z</time></trkpt><trkpt lat="43.229568866880626" lon="12.130949529699858"><ele>672.0</ele><time>2026-03-28T09:48:40.999Z</time></trkpt><trkpt lat="43.229617152403485" lon="12.13078671765648"><ele>672.0</ele><time>2026-03-28T09:48:42.999Z</time></trkpt><trkpt lat="43.229615198648816" lon="12.130673196127772"><ele>671.4000000000001</ele><time>2026-03-28T09:48:43.999Z</time></trkpt><trkpt lat="43.229615797939495" lon="12.130541742460474"><ele>670.8000000000001</ele><time>2026-03-28T09:48:44.999Z</time></trkpt><trkpt lat="43.22961759438579" lon="12.130426222190833"><ele>670.2</ele><time>2026-03-28T09:48:46Z</time></trkpt><trkpt lat="43.229623428995616" lon="12.13031486821307"><ele>669.6</ele><time>2026-03-28T09:48:47Z</time></trkpt><trkpt lat="43.229615874254094" lon="12.130175194752903"><ele>669.0</ele><time>2026-03-28T09:48:48Z</time></trkpt><trkpt lat="43.22959255723066" lon="12.130030885064311"><ele>669.0</ele><time>2026-03-28T09:48:49Z</time></trkpt><trkpt lat="43.22959073369068" lon="12.129930644352298"><ele>669.0</ele><time>2026-03-28T09:48:50Z</time></trkpt><trkpt lat="43.229583525938146" lon="12.129762298326794"><ele>669.0</ele><time>2026-03-28T09:48:52Z</time></trkpt><trkpt lat="43.229592516176965" lon="12.129638690187338"><ele>669.0</ele><time>2026-03-28T09:48:53Z</time></trkpt><trkpt lat="43.22961047953855" lon="12.129537616661613"><ele>669.0</ele><time>2026-03-28T09:48:54Z</time></trkpt><trkpt lat="43.22963993458562" lon="12.1294343740416"><ele>669.0</ele><time>2026-03-28T09:48:55Z</time></trkpt><trkpt lat="43.229675771147264" lon="12.12934358886134"><ele>668.6666666666666</ele><time>2026-03-28T09:48:56Z</time></trkpt><trkpt lat="43.22972472311875" lon="12.12928586847425"><ele>668.3333333333334</ele><time>2026-03-28T09:48:57Z</time></trkpt><trkpt lat="43.229781287778906" lon="12.129236399356701"><ele>668.0</ele><time>2026-03-28T09:48:58Z</time></trkpt><trkpt lat="43.22984129230591" lon="12.12919923618758"><ele>667.6666666666667</ele><time>2026-03-28T09:48:59Z</time></trkpt><trkpt lat="43.22992516381607" lon="12.1292046069204"><ele>667.3333333333334</ele><time>2026-03-28T09:49:00Z</time></trkpt><trkpt lat="43.23002423936493" lon="12.129230055252846"><ele>667.0</ele><time>2026-03-28T09:49:01Z</time></trkpt><trkpt lat="43.23011390096406" lon="12.129254143997011"><ele>671.8</ele><time>2026-03-28T09:49:02Z</time></trkpt><trkpt lat="43.2301781402537" lon="12.1292768744451"><ele>676.6</ele><time>2026-03-28T09:49:03Z</time></trkpt><trkpt lat="43.23029004810674" lon="12.12928900061831"><ele>681.4</ele><time>2026-03-28T09:49:05Z</time></trkpt><trkpt lat="43.23036660818423" lon="12.129284767469349"><ele>686.1999999999999</ele><time>2026-03-28T09:49:06Z</time></trkpt><trkpt lat="43.23047716168477" lon="12.12922719975558"><ele>691.0</ele><time>2026-03-28T09:49:08Z</time></trkpt><trkpt lat="43.230547799906965" lon="12.129160981455417"><ele>691.8</ele><time>2026-03-28T09:49:09Z</time></trkpt><trkpt lat="43.23065987124638" lon="12.129110211938855"><ele>692.5999999999999</ele><time>2026-03-28T09:49:10Z</time></trkpt><trkpt lat="43.23074871191897" lon="12.12909150343351"><ele>693.4</ele><time>2026-03-28T09:49:11Z</time></trkpt><trkpt lat="43.230867299904936" lon="12.129048408587781"><ele>694.2</ele><time>2026-03-28T09:49:13Z</time></trkpt><trkpt lat="43.23092822693749" lon="12.129004984966954"><ele>695.0</ele><time>2026-03-28T09:49:14Z</time></trkpt><trkpt lat="43.231046724715654" lon="12.128985004058178"><ele>695.0</ele><time>2026-03-28T09:49:16Z</time></trkpt><trkpt lat="43.2311253893759" lon="12.128945254633585"><ele>695.0</ele><time>2026-03-28T09:49:17Z</time></trkpt><trkpt lat="43.23120190675489" lon="12.12888668564063"><ele>695.0</ele><time>2026-03-28T09:49:18Z</time></trkpt><trkpt lat="43.23129179803897" lon="12.128818529638659"><ele>695.0</ele><time>2026-03-28T09:49:19Z</time></trkpt><trkpt lat="43.231378195077326" lon="12.128767033007424"><ele>695.0</ele><time>2026-03-28T09:49:20Z</time></trkpt><trkpt lat="43.231462644106415" lon="12.128687871596869"><ele>699.8</ele><time>2026-03-28T09:49:21Z</time></trkpt><trkpt lat="43.23155100526118" lon="12.128617196728998"><ele>704.6</ele><time>2026-03-28T09:49:23Z</time></trkpt><trkpt lat="43.2316118857741" lon="12.128559129110977"><ele>709.4000000000001</ele><time>2026-03-28T09:49:25Z</time></trkpt><trkpt lat="43.23166806991325" lon="12.128417865599118"><ele>714.2</ele><time>2026-03-28T09:49:27Z</time></trkpt><trkpt lat="43.23166113504685" lon="12.128315380821128"><ele>719.0</ele><time>2026-03-28T09:49:28Z</time></trkpt><trkpt lat="43.23165394776823" lon="12.128195588563512"><ele>719.6</ele><time>2026-03-28T09:49:29Z</time></trkpt><trkpt lat="43.23159113136662" lon="12.128078559874135"><ele>720.2</ele><time>2026-03-28T09:49:30Z</time></trkpt><trkpt lat="43.23152600059329" lon="12.127964668437686"><ele>720.8000000000001</ele><time>2026-03-28T09:49:31Z</time></trkpt><trkpt lat="43.231472343983434" lon="12.127863527985626"><ele>721.4000000000001</ele><time>2026-03-28T09:49:32Z</time></trkpt><trkpt lat="43.23142378147444" lon="12.127762921721072"><ele>722.0</ele><time>2026-03-28T09:49:33Z</time></trkpt><trkpt lat="43.23137861741847" lon="12.127665949818146"><ele>717.1666666666666</ele><time>2026-03-28T09:49:34Z</time></trkpt><trkpt lat="43.23134022776495" lon="12.127573972424964"><ele>712.3333333333333</ele><time>2026-03-28T09:49:35Z</time></trkpt><trkpt lat="43.23130627760059" lon="12.12748396964154"><ele>707.5</ele><time>2026-03-28T09:49:36Z</time></trkpt><trkpt lat="43.23127552572042" lon="12.127395326962176"><ele>702.6666666666666</ele><time>2026-03-28T09:49:37Z</time></trkpt><trkpt lat="43.23124505719624" lon="12.12727534213459"><ele>697.8333333333334</ele><time>2026-03-28T09:49:38Z</time></trkpt><trkpt lat="43.23124290398864" lon="12.127131176962108"><ele>693.0</ele><time>2026-03-28T09:49:39Z</time></trkpt><trkpt lat="43.23122126553162" lon="12.126993791022105"><ele>691.5</ele><time>2026-03-28T09:49:40Z</time></trkpt><trkpt lat="43.231228346459034" lon="12.126879125358194"><ele>690.0</ele><time>2026-03-28T09:49:41Z</time></trkpt><trkpt lat="43.23122773852067" lon="12.1267783712569"><ele>688.5</ele><time>2026-03-28T09:49:42Z</time></trkpt><trkpt lat="43.23123271019843" lon="12.126690441240218"><ele>687.0</ele><time>2026-03-28T09:49:43Z</time></trkpt><trkpt lat="43.231294333046726" lon="12.126539977591683"><ele>685.5</ele><time>2026-03-28T09:49:45Z</time></trkpt><trkpt lat="43.23134728337846" lon="12.126479868361741"><ele>684.0</ele><time>2026-03-28T09:49:46Z</time></trkpt><trkpt lat="43.23139860355736" lon="12.126424940343137"><ele>682.1666666666666</ele><time>2026-03-28T09:49:47Z</time></trkpt><trkpt lat="43.23144284367036" lon="12.126287086119149"><ele>680.3333333333334</ele><time>2026-03-28T09:49:49Z</time></trkpt><trkpt lat="43.23143735612527" lon="12.126173572374148"><ele>678.5</ele><time>2026-03-28T09:49:50Z</time></trkpt><trkpt lat="43.231415727793596" lon="12.12606086451999"><ele>676.6666666666667</ele><time>2026-03-28T09:49:51Z</time></trkpt><trkpt lat="43.231400193728554" lon="12.125940551671654"><ele>674.8333333333334</ele><time>2026-03-28T09:49:52Z</time></trkpt><trkpt lat="43.23138939983931" lon="12.125839138475147"><ele>673.0</ele><time>2026-03-28T09:49:53Z</time></trkpt><trkpt lat="43.23139909412012" lon="12.125680896115403"><ele>672.5999999999999</ele><time>2026-03-28T09:49:55Z</time></trkpt><trkpt lat="43.2314334646492" lon="12.125580956112163"><ele>672.1999999999999</ele><time>2026-03-28T09:49:56Z</time></trkpt><trkpt lat="43.23148832618753" lon="12.125434953626801"><ele>671.8</ele><time>2026-03-28T09:49:57Z</time></trkpt><trkpt lat="43.23152539277228" lon="12.12529503854625"><ele>671.4</ele><time>2026-03-28T09:49:58Z</time></trkpt><trkpt lat="43.23155890871181" lon="12.12517124905347"><ele>671.0</ele><time>2026-03-28T09:49:59Z</time></trkpt><trkpt lat="43.23159969766344" lon="12.125041955624567"><ele>676.5999999999999</ele><time>2026-03-28T09:50:00Z</time></trkpt><trkpt lat="43.23165718647283" lon="12.124921387085697"><ele>682.2</ele><time>2026-03-28T09:50:01Z</time></trkpt><trkpt lat="43.23170932007048" lon="12.124824582197435"><ele>687.8</ele><time>2026-03-28T09:50:02Z</time></trkpt><trkpt lat="43.231741002049155" lon="12.124730195740794"><ele>693.4000000000001</ele><time>2026-03-28T09:50:03Z</time></trkpt><trkpt lat="43.23174895958125" lon="12.124621257068064"><ele>699.0</ele><time>2026-03-28T09:50:04Z</time></trkpt><trkpt lat="43.23173760424993" lon="12.124475199695771"><ele>699.0</ele><time>2026-03-28T09:50:05Z</time></trkpt><trkpt lat="43.231754184769656" lon="12.124281521825678"><ele>699.0</ele><time>2026-03-28T09:50:06Z</time></trkpt><trkpt lat="43.23176880395671" lon="12.124171540566833"><ele>699.0</ele><time>2026-03-28T09:50:07Z</time></trkpt><trkpt lat="43.231781130035145" lon="12.124082863321226"><ele>699.0</ele><time>2026-03-28T09:50:08Z</time></trkpt><trkpt lat="43.23178832691582" lon="12.123973143684372"><ele>699.0</ele><time>2026-03-28T09:50:10Z</time></trkpt><trkpt lat="43.23180205651982" lon="12.123815737248231"><ele>700.8333333333334</ele><time>2026-03-28T09:50:27Z</time></trkpt><trkpt lat="43.231817200285" lon="12.123695085415772"><ele>702.6666666666666</ele><time>2026-03-28T09:50:28Z</time></trkpt><trkpt lat="43.23181857541799" lon="12.123580360297801"><ele>704.5</ele><time>2026-03-28T09:50:29Z</time></trkpt><trkpt lat="43.23182800404271" lon="12.12347144019669"><ele>706.3333333333333</ele><time>2026-03-28T09:50:30Z</time></trkpt><trkpt lat="43.23177150072678" lon="12.123394668606842"><ele>708.1666666666666</ele><time>2026-03-28T09:50:31Z</time></trkpt><trkpt lat="43.23172335400816" lon="12.123328145713357"><ele>710.0</ele><time>2026-03-28T09:50:32Z</time></trkpt><trkpt lat="43.23161446435061" lon="12.123315837607567"><ele>710.0</ele><time>2026-03-28T09:50:33Z</time></trkpt><trkpt lat="43.231528054917305" lon="12.123263054357254"><ele>710.0</ele><time>2026-03-28T09:50:34Z</time></trkpt><trkpt lat="43.231451514421" lon="12.12321931468778"><ele>710.0</ele><time>2026-03-28T09:50:35Z</time></trkpt><trkpt lat="43.231357936278144" lon="12.123133134989688"><ele>710.0</ele><time>2026-03-28T09:50:37Z</time></trkpt><trkpt lat="43.23132029041553" lon="12.123041862916939"><ele>710.0</ele><time>2026-03-28T09:50:38Z</time></trkpt><trkpt lat="43.2312789311528" lon="12.122948475898902"><ele>710.0</ele><time>2026-03-28T09:50:39Z</time></trkpt><trkpt lat="43.23127705252286" lon="12.122852988164828"><ele>707.4</ele><time>2026-03-28T09:50:40Z</time></trkpt><trkpt lat="43.23124279135425" lon="12.12277069709988"><ele>704.8</ele><time>2026-03-28T09:50:41Z</time></trkpt><trkpt lat="43.231209948057135" lon="12.122665264428994"><ele>702.2</ele><time>2026-03-28T09:50:42Z</time></trkpt><trkpt lat="43.231175526943574" lon="12.122522977071194"><ele>699.6</ele><time>2026-03-28T09:50:43Z</time></trkpt><trkpt lat="43.23115054628482" lon="12.122392235500886"><ele>697.0</ele><time>2026-03-28T09:50:44Z</time></trkpt><trkpt lat="43.23114661174712" lon="12.122225572675637"><ele>697.0</ele><time>2026-03-28T09:50:45Z</time></trkpt><trkpt lat="43.23113713423815" lon="12.122069538802567"><ele>697.0</ele><time>2026-03-28T09:50:46Z</time></trkpt><trkpt lat="43.231137520613196" lon="12.121943417428586"><ele>697.0</ele><time>2026-03-28T09:50:47Z</time></trkpt><trkpt lat="43.23114932667376" lon="12.121781503737783"><ele>697.0</ele><time>2026-03-28T09:50:48Z</time></trkpt><trkpt lat="43.23115268570026" lon="12.121649026750333"><ele>697.0</ele><time>2026-03-28T09:50:49Z</time></trkpt><trkpt lat="43.23115227009747" lon="12.12151550567495"><ele>697.4000000000001</ele><time>2026-03-28T09:50:50Z</time></trkpt><trkpt lat="43.23115180338122" lon="12.121394229039316"><ele>697.8000000000001</ele><time>2026-03-28T09:50:51Z</time></trkpt><trkpt lat="43.23115138574561" lon="12.121250959694533"><ele>698.2</ele><time>2026-03-28T09:50:52Z</time></trkpt><trkpt lat="43.23114921508506" lon="12.121116837016018"><ele>698.6</ele><time>2026-03-28T09:50:53Z</time></trkpt><trkpt lat="43.23115073517028" lon="12.120978538927243"><ele>699.0</ele><time>2026-03-28T09:50:54Z</time></trkpt><trkpt lat="43.231152915369584" lon="12.12084393780398"><ele>697.5</ele><time>2026-03-28T09:50:55Z</time></trkpt><trkpt lat="43.23115898562916" lon="12.120729463169372"><ele>696.0</ele><time>2026-03-28T09:50:56Z</time></trkpt><trkpt lat="43.23117741827434" lon="12.120617246774255"><ele>694.5</ele><time>2026-03-28T09:50:57Z</time></trkpt><trkpt lat="43.23120450937773" lon="12.120497223163525"><ele>693.0</ele><time>2026-03-28T09:50:58Z</time></trkpt><trkpt lat="43.231251433478526" lon="12.120373444754007"><ele>691.5</ele><time>2026-03-28T09:50:59Z</time></trkpt><trkpt lat="43.23129882064016" lon="12.120284785557764"><ele>690.0</ele><time>2026-03-28T09:51:00Z</time></trkpt><trkpt lat="43.231378020057164" lon="12.120161705472722"><ele>690.0</ele><time>2026-03-28T09:51:01Z</time></trkpt><trkpt lat="43.23145142736584" lon="12.120065849100815"><ele>690.0</ele><time>2026-03-28T09:51:02Z</time></trkpt><trkpt lat="43.23152894044111" lon="12.119993082241832"><ele>690.0</ele><time>2026-03-28T09:51:03Z</time></trkpt><trkpt lat="43.23163085255846" lon="12.119941692846735"><ele>690.0</ele><time>2026-03-28T09:51:04Z</time></trkpt><trkpt lat="43.2317332003871" lon="12.119910290973055"><ele>690.0</ele><time>2026-03-28T09:51:05Z</time></trkpt><trkpt lat="43.23182505950586" lon="12.119906737619043"><ele>690.4</ele><time>2026-03-28T09:51:06Z</time></trkpt><trkpt lat="43.2319021391999" lon="12.119936973489978"><ele>690.8</ele><time>2026-03-28T09:51:07Z</time></trkpt><trkpt lat="43.23196667352714" lon="12.119965728078649"><ele>691.2</ele><time>2026-03-28T09:51:08Z</time></trkpt><trkpt lat="43.232062414572304" lon="12.119978742071014"><ele>691.6</ele><time>2026-03-28T09:51:10Z</time></trkpt><trkpt lat="43.23213725911137" lon="12.119856533364397"><ele>692.0</ele><time>2026-03-28T09:51:12Z</time></trkpt><trkpt lat="43.23213316669476" lon="12.119635163776865"><ele>692.0</ele><time>2026-03-28T09:51:14Z</time></trkpt><trkpt lat="43.232113970706585" lon="12.11945457599309"><ele>692.0</ele><time>2026-03-28T09:51:15Z</time></trkpt><trkpt lat="43.232101563270774" lon="12.119261038209023"><ele>692.0</ele><time>2026-03-28T09:51:16Z</time></trkpt><trkpt lat="43.23210226468035" lon="12.11910815028087"><ele>692.0</ele><time>2026-03-28T09:51:17Z</time></trkpt><trkpt lat="43.23210864183797" lon="12.118967074974519"><ele>690.1666666666666</ele><time>2026-03-28T09:51:18Z</time></trkpt><trkpt lat="43.23209535977398" lon="12.11880675067791"><ele>688.3333333333333</ele><time>2026-03-28T09:51:19Z</time></trkpt><trkpt lat="43.232085115210445" lon="12.118685406179432"><ele>686.5</ele><time>2026-03-28T09:51:20Z</time></trkpt><trkpt lat="43.23205561269454" lon="12.118565346418377"><ele>684.6666666666666</ele><time>2026-03-28T09:51:21Z</time></trkpt><trkpt lat="43.232036461054335" lon="12.118469153197562"><ele>682.8333333333334</ele><time>2026-03-28T09:51:22Z</time></trkpt><trkpt lat="43.232046737615" lon="12.118382548453498"><ele>681.0</ele><time>2026-03-28T09:51:23Z</time></trkpt><trkpt lat="43.23207541224184" lon="12.11828126629895"><ele>680.1999999999999</ele><time>2026-03-28T09:51:24Z</time></trkpt><trkpt lat="43.23215733126702" lon="12.118183789677053"><ele>679.4</ele><time>2026-03-28T09:51:25Z</time></trkpt><trkpt lat="43.23224974649519" lon="12.118079113576309"><ele>678.6</ele><time>2026-03-28T09:51:26Z</time></trkpt><trkpt lat="43.232322892832016" lon="12.117958979623339"><ele>677.8</ele><time>2026-03-28T09:51:27Z</time></trkpt><trkpt lat="43.23238168591825" lon="12.117843593330239"><ele>677.0</ele><time>2026-03-28T09:51:28Z</time></trkpt><trkpt lat="43.232439149868874" lon="12.117742275077413"><ele>677.0</ele><time>2026-03-28T09:51:29Z</time></trkpt><trkpt lat="43.23250263817425" lon="12.117651549893752"><ele>677.0</ele><time>2026-03-28T09:51:30Z</time></trkpt><trkpt lat="43.23258551756994" lon="12.1175723779686"><ele>677.0</ele><time>2026-03-28T09:51:31Z</time></trkpt><trkpt lat="43.23267731854761" lon="12.11753208420857"><ele>677.0</ele><time>2026-03-28T09:51:32Z</time></trkpt><trkpt lat="43.23278326087021" lon="12.117498933193389"><ele>677.0</ele><time>2026-03-28T09:51:33Z</time></trkpt><trkpt lat="43.23288034880894" lon="12.117462563862997"><ele>677.0</ele><time>2026-03-28T09:51:34Z</time></trkpt><trkpt lat="43.2329918703419" lon="12.117410732042524"><ele>677.0</ele><time>2026-03-28T09:51:35Z</time></trkpt><trkpt lat="43.233101759867" lon="12.117309064171005"><ele>677.0</ele><time>2026-03-28T09:51:36.001Z</time></trkpt><trkpt lat="43.23322395070107" lon="12.117186812660938"><ele>677.0</ele><time>2026-03-28T09:51:37.001Z</time></trkpt><trkpt lat="43.23333214332265" lon="12.117091904477293"><ele>675.6666666666666</ele><time>2026-03-28T09:51:38.001Z</time></trkpt><trkpt lat="43.23342347277341" lon="12.117015357667778"><ele>674.3333333333333</ele><time>2026-03-28T09:51:39.001Z</time></trkpt><trkpt lat="43.233504973010774" lon="12.11696589907091"><ele>673.0</ele><time>2026-03-28T09:51:40.001Z</time></trkpt><trkpt lat="43.23359147444117" lon="12.116945907705894"><ele>671.6666666666666</ele><time>2026-03-28T09:51:41.001Z</time></trkpt><trkpt lat="43.2336743389489" lon="12.11694696684288"><ele>670.3333333333334</ele><time>2026-03-28T09:51:42.001Z</time></trkpt><trkpt lat="43.23374694554095" lon="12.116938346199605"><ele>669.0</ele><time>2026-03-28T09:51:43.001Z</time></trkpt><trkpt lat="43.233814480998284" lon="12.116879889521593"><ele>669.0</ele><time>2026-03-28T09:51:44.001Z</time></trkpt><trkpt lat="43.233873935264356" lon="12.116761959626013"><ele>669.0</ele><time>2026-03-28T09:51:45.001Z</time></trkpt><trkpt lat="43.23391837623501" lon="12.116610565266836"><ele>669.0</ele><time>2026-03-28T09:51:46.001Z</time></trkpt><trkpt lat="43.2339599657979" lon="12.116452584336212"><ele>669.0</ele><time>2026-03-28T09:51:47.001Z</time></trkpt><trkpt lat="43.2340129093295" lon="12.1163056722201"><ele>670.2</ele><time>2026-03-28T09:51:48.001Z</time></trkpt><trkpt lat="43.23407719323823" lon="12.11614577879718"><ele>671.4000000000001</ele><time>2026-03-28T09:51:49.001Z</time></trkpt><trkpt lat="43.2341434691994" lon="12.11599675422765"><ele>672.6</ele><time>2026-03-28T09:51:50.001Z</time></trkpt><trkpt lat="43.234197378104575" lon="12.115872745036409"><ele>673.8</ele><time>2026-03-28T09:51:51.001Z</time></trkpt><trkpt lat="43.234242558611896" lon="12.115789368038776"><ele>675.0</ele><time>2026-03-28T09:51:52.001Z</time></trkpt><trkpt lat="43.2342918962803" lon="12.11571656997832"><ele>672.6</ele><time>2026-03-28T09:51:53.001Z</time></trkpt><trkpt lat="43.23436154837572" lon="12.115652180047952"><ele>670.2</ele><time>2026-03-28T09:51:54.001Z</time></trkpt><trkpt lat="43.23445213861591" lon="12.11560775883291"><ele>667.8</ele><time>2026-03-28T09:51:55.001Z</time></trkpt><trkpt lat="43.23455011100151" lon="12.115589386293566"><ele>665.4</ele><time>2026-03-28T09:51:56.001Z</time></trkpt><trkpt lat="43.23465578373553" lon="12.115590921242728"><ele>663.0</ele><time>2026-03-28T09:51:57.001Z</time></trkpt><trkpt lat="43.234784800424265" lon="12.11559568231006"><ele>663.2</ele><time>2026-03-28T09:51:58.001Z</time></trkpt><trkpt lat="43.23490563144209" lon="12.115580410319808"><ele>663.4</ele><time>2026-03-28T09:51:59.001Z</time></trkpt><trkpt lat="43.23500978904549" lon="12.115566382754382"><ele>663.6</ele><time>2026-03-28T09:52:00.001Z</time></trkpt><trkpt lat="43.23510508708093" lon="12.115550864352356"><ele>663.8000000000001</ele><time>2026-03-28T09:52:01.001Z</time></trkpt><trkpt lat="43.235192141150186" lon="12.115535806094046"><ele>664.0</ele><time>2026-03-28T09:52:02.001Z</time></trkpt><trkpt lat="43.23527457627926" lon="12.115539060772791"><ele>664.0</ele><time>2026-03-28T09:52:03.001Z</time></trkpt><trkpt lat="43.23535670105565" lon="12.115529335676479"><ele>664.0</ele><time>2026-03-28T09:52:04.001Z</time></trkpt><trkpt lat="43.23543613422938" lon="12.115463922042757"><ele>664.0</ele><time>2026-03-28T09:52:05.001Z</time></trkpt><trkpt lat="43.23550774123085" lon="12.115349256071442"><ele>664.0</ele><time>2026-03-28T09:52:06.001Z</time></trkpt><trkpt lat="43.23555476311143" lon="12.115192655661355"><ele>664.0</ele><time>2026-03-28T09:52:07.001Z</time></trkpt><trkpt lat="43.235589182612436" lon="12.115021675551251"><ele>661.5</ele><time>2026-03-28T09:52:08.001Z</time></trkpt><trkpt lat="43.235624233695006" lon="12.114867772527552"><ele>659.0</ele><time>2026-03-28T09:52:09.001Z</time></trkpt><trkpt lat="43.2356664266243" lon="12.114736133608197"><ele>656.5</ele><time>2026-03-28T09:52:10.001Z</time></trkpt><trkpt lat="43.235669940897054" lon="12.114579138957831"><ele>654.0</ele><time>2026-03-28T09:52:11.001Z</time></trkpt><trkpt lat="43.235690719718995" lon="12.114404626980628"><ele>657.8000000000001</ele><time>2026-03-28T09:52:12.001Z</time></trkpt><trkpt lat="43.235714200125464" lon="12.11425595268028"><ele>661.6</ele><time>2026-03-28T09:52:13.001Z</time></trkpt><trkpt lat="43.235747753216295" lon="12.114119716911535"><ele>665.4</ele><time>2026-03-28T09:52:14.001Z</time></trkpt><trkpt lat="43.2357689309971" lon="12.113985678375549"><ele>669.2</ele><time>2026-03-28T09:52:15.001Z</time></trkpt><trkpt lat="43.235781489476615" lon="12.113863271883993"><ele>673.0</ele><time>2026-03-28T09:52:16.001Z</time></trkpt><trkpt lat="43.23577689667753" lon="12.113737541069073"><ele>673.0</ele><time>2026-03-28T09:52:17.001Z</time></trkpt><trkpt lat="43.23572945023352" lon="12.113597444369676"><ele>673.0</ele><time>2026-03-28T09:52:18.001Z</time></trkpt><trkpt lat="43.23566117648396" lon="12.113467320612918"><ele>673.0</ele><time>2026-03-28T09:52:19.001Z</time></trkpt><trkpt lat="43.23559062196907" lon="12.113298108210609"><ele>673.0</ele><time>2026-03-28T09:52:20.001Z</time></trkpt><trkpt lat="43.2355113449931" lon="12.113152177140783"><ele>665.5</ele><time>2026-03-28T09:52:21.001Z</time></trkpt><trkpt lat="43.235435645180836" lon="12.113033311558029"><ele>658.0</ele><time>2026-03-28T09:52:22.001Z</time></trkpt><trkpt lat="43.23536983623001" lon="12.11288853568402"><ele>650.5</ele><time>2026-03-28T09:52:23.001Z</time></trkpt><trkpt lat="43.23530601892953" lon="12.112751808611243"><ele>643.0</ele><time>2026-03-28T09:52:24.001Z</time></trkpt><trkpt lat="43.235243324489055" lon="12.112624601691754"><ele>643.0</ele><time>2026-03-28T09:52:25.001Z</time></trkpt><trkpt lat="43.23519845127262" lon="12.112502024892745"><ele>643.0</ele><time>2026-03-28T09:52:26.001Z</time></trkpt><trkpt lat="43.235150641797965" lon="12.112378032242347"><ele>643.0</ele><time>2026-03-28T09:52:27.001Z</time></trkpt><trkpt lat="43.23511168847101" lon="12.112256180499042"><ele>643.0</ele><time>2026-03-28T09:52:28Z</time></trkpt><trkpt lat="43.235089552381176" lon="12.112139467280175"><ele>643.0</ele><time>2026-03-28T09:52:29Z</time></trkpt><trkpt lat="43.23508004857574" lon="12.112022419195116"><ele>643.0</ele><time>2026-03-28T09:52:30Z</time></trkpt><trkpt lat="43.235078876798966" lon="12.111909466690378"><ele>643.0</ele><time>2026-03-28T09:52:31Z</time></trkpt><trkpt lat="43.23512888596975" lon="12.111800152076436"><ele>643.0</ele><time>2026-03-28T09:52:32Z</time></trkpt><trkpt lat="43.23515815483607" lon="12.111691488036573"><ele>643.0</ele><time>2026-03-28T09:52:33Z</time></trkpt><trkpt lat="43.2352110505066" lon="12.111602180323079"><ele>643.0</ele><time>2026-03-28T09:52:34Z</time></trkpt><trkpt lat="43.2352621151248" lon="12.11151642051313"><ele>643.0</ele><time>2026-03-28T09:52:35Z</time></trkpt><trkpt lat="43.23531754024169" lon="12.111468425635858"><ele>642.5</ele><time>2026-03-28T09:52:36Z</time></trkpt><trkpt lat="43.23540559281588" lon="12.11145680116261"><ele>642.0</ele><time>2026-03-28T09:52:38Z</time></trkpt><trkpt lat="43.23547385814117" lon="12.111480764303433"><ele>641.5</ele><time>2026-03-28T09:52:40Z</time></trkpt><trkpt lat="43.23556888362632" lon="12.111513666478558"><ele>641.0</ele><time>2026-03-28T09:52:43Z</time></trkpt><trkpt lat="43.235648576312485" lon="12.111539599365443"><ele>640.5</ele><time>2026-03-28T09:52:45Z</time></trkpt><trkpt lat="43.23571227839368" lon="12.111523510983066"><ele>640.0</ele><time>2026-03-28T09:52:47Z</time></trkpt><trkpt lat="43.23575210575936" lon="12.111426967263297"><ele>640.0</ele><time>2026-03-28T09:52:50Z</time></trkpt><trkpt lat="43.23568889829352" lon="12.111301223078272"><ele>640.0</ele><time>2026-03-28T09:52:52Z</time></trkpt><trkpt lat="43.23561885618598" lon="12.111286475140057"><ele>640.0</ele><time>2026-03-28T09:52:53Z</time></trkpt><trkpt lat="43.235525154714054" lon="12.111205104484439"><ele>640.0</ele><time>2026-03-28T09:52:55Z</time></trkpt><trkpt lat="43.23544846159768" lon="12.111084293903884"><ele>640.0</ele><time>2026-03-28T09:52:57Z</time></trkpt><trkpt lat="43.23539865166158" lon="12.11101818748807"><ele>639.0</ele><time>2026-03-28T09:52:58Z</time></trkpt><trkpt lat="43.23534837779999" lon="12.1109488490874"><ele>638.0</ele><time>2026-03-28T09:52:59Z</time></trkpt><trkpt lat="43.23529572810329" lon="12.11087410029316"><ele>637.0</ele><time>2026-03-28T09:53:00Z</time></trkpt><trkpt lat="43.23523981126261" lon="12.110806835632784"><ele>636.0</ele><time>2026-03-28T09:53:01Z</time></trkpt><trkpt lat="43.235180380684824" lon="12.110758658096875"><ele>635.0</ele><time>2026-03-28T09:53:02Z</time></trkpt><trkpt lat="43.23510800413471" lon="12.110738622031374"><ele>634.0</ele><time>2026-03-28T09:53:03Z</time></trkpt><trkpt lat="43.2350485462332" lon="12.110683641539076"><ele>633.0</ele><time>2026-03-28T09:53:04Z</time></trkpt><trkpt lat="43.2349849286771" lon="12.110660177669608"><ele>630.6666666666666</ele><time>2026-03-28T09:53:05Z</time></trkpt><trkpt lat="43.23491010573892" lon="12.110662409695042"><ele>628.3333333333334</ele><time>2026-03-28T09:53:06Z</time></trkpt><trkpt lat="43.23483063144037" lon="12.11064097897795"><ele>626.0</ele><time>2026-03-28T09:53:07Z</time></trkpt><trkpt lat="43.234757997638994" lon="12.110625907459523"><ele>623.6666666666667</ele><time>2026-03-28T09:53:08Z</time></trkpt><trkpt lat="43.234682827136" lon="12.110608812126086"><ele>621.3333333333334</ele><time>2026-03-28T09:53:09Z</time></trkpt><trkpt lat="43.234602521250224" lon="12.110594850984134"><ele>619.0</ele><time>2026-03-28T09:53:10Z</time></trkpt><trkpt lat="43.23451858899863" lon="12.110568166736217"><ele>618.8333333333334</ele><time>2026-03-28T09:53:11Z</time></trkpt><trkpt lat="43.2344488605273" lon="12.110561062361388"><ele>618.6666666666667</ele><time>2026-03-28T09:53:12Z</time></trkpt><trkpt lat="43.234314585168974" lon="12.110554568716754"><ele>618.5</ele><time>2026-03-28T09:53:14Z</time></trkpt><trkpt lat="43.234243141291664" lon="12.110545143311246"><ele>618.3333333333334</ele><time>2026-03-28T09:53:15Z</time></trkpt><trkpt lat="43.234144089089924" lon="12.110506739069601"><ele>618.1666666666666</ele><time>2026-03-28T09:53:17Z</time></trkpt><trkpt lat="43.23408390230087" lon="12.110465069652587"><ele>618.0</ele><time>2026-03-28T09:53:18.001Z</time></trkpt><trkpt lat="43.234029726627476" lon="12.110408207512611"><ele>618.0</ele><time>2026-03-28T09:53:19.001Z</time></trkpt><trkpt lat="43.23401643669895" lon="12.110301397018366"><ele>618.0</ele><time>2026-03-28T09:53:20.001Z</time></trkpt><trkpt lat="43.23398075764081" lon="12.1101948415998"><ele>618.0</ele><time>2026-03-28T09:53:21.001Z</time></trkpt><trkpt lat="43.23397286096595" lon="12.110097061407753"><ele>618.0</ele><time>2026-03-28T09:53:22.001Z</time></trkpt><trkpt lat="43.23397339183458" lon="12.109988565456016"><ele>618.0</ele><time>2026-03-28T09:53:23.001Z</time></trkpt><trkpt lat="43.23397224767047" lon="12.109869429987636"><ele>618.0</ele><time>2026-03-28T09:53:24.001Z</time></trkpt><trkpt lat="43.23398454117539" lon="12.109754876871225"><ele>617.0</ele><time>2026-03-28T09:53:25.001Z</time></trkpt><trkpt lat="43.233997989919146" lon="12.109650254242375"><ele>616.0</ele><time>2026-03-28T09:53:26.001Z</time></trkpt><trkpt lat="43.23401898565258" lon="12.109534321694024"><ele>615.0</ele><time>2026-03-28T09:53:27.001Z</time></trkpt><trkpt lat="43.23403556812322" lon="12.109441566460303"><ele>614.0</ele><time>2026-03-28T09:53:28.001Z</time></trkpt><trkpt lat="43.23406079879896" lon="12.109337467667624"><ele>613.0</ele><time>2026-03-28T09:53:29.001Z</time></trkpt><trkpt lat="43.23409748054318" lon="12.109139844454543"><ele>611.6666666666667</ele><time>2026-03-28T09:53:31.001Z</time></trkpt><trkpt lat="43.23413001846733" lon="12.109027323907526"><ele>610.3333333333334</ele><time>2026-03-28T09:53:32.001Z</time></trkpt><trkpt lat="43.2341585138895" lon="12.10891780710974"><ele>609.0</ele><time>2026-03-28T09:53:33.001Z</time></trkpt><trkpt lat="43.23418211601661" lon="12.108798908129835"><ele>607.6666666666666</ele><time>2026-03-28T09:53:34.001Z</time></trkpt><trkpt lat="43.23421884191107" lon="12.108684275865487"><ele>606.3333333333333</ele><time>2026-03-28T09:53:35.001Z</time></trkpt><trkpt lat="43.23424407070365" lon="12.108577485965121"><ele>605.0</ele><time>2026-03-28T09:53:36.001Z</time></trkpt><trkpt lat="43.23426330750831" lon="12.108473828622431"><ele>605.0</ele><time>2026-03-28T09:53:37.001Z</time></trkpt><trkpt lat="43.2342695566221" lon="12.108353231946554"><ele>605.0</ele><time>2026-03-28T09:53:38.001Z</time></trkpt><trkpt lat="43.234258006529316" lon="12.108233305343628"><ele>605.0</ele><time>2026-03-28T09:53:39.001Z</time></trkpt><trkpt lat="43.23424748487209" lon="12.108118819236491"><ele>605.0</ele><time>2026-03-28T09:53:40.001Z</time></trkpt><trkpt lat="43.23424124623423" lon="12.107986929804817"><ele>605.0</ele><time>2026-03-28T09:53:41.001Z</time></trkpt><trkpt lat="43.23425611112446" lon="12.107858501159003"><ele>604.5</ele><time>2026-03-28T09:53:42.001Z</time></trkpt><trkpt lat="43.23428465063825" lon="12.10775081583639"><ele>604.0</ele><time>2026-03-28T09:53:43.001Z</time></trkpt><trkpt lat="43.23430245845992" lon="12.10765117905113"><ele>603.5</ele><time>2026-03-28T09:53:44.001Z</time></trkpt><trkpt lat="43.234313274178916" lon="12.107558568471333"><ele>603.0</ele><time>2026-03-28T09:53:45.001Z</time></trkpt><trkpt lat="43.23432890897552" lon="12.10747214178807"><ele>602.5</ele><time>2026-03-28T09:53:46.001Z</time></trkpt><trkpt lat="43.23437517346573" lon="12.107325980579944"><ele>602.0</ele><time>2026-03-28T09:53:48.001Z</time></trkpt><trkpt lat="43.23438908146477" lon="12.107230679437137"><ele>601.0</ele><time>2026-03-28T09:53:49.001Z</time></trkpt><trkpt lat="43.23446648074014" lon="12.107167838226019"><ele>600.0</ele><time>2026-03-28T09:53:50.001Z</time></trkpt><trkpt lat="43.234552083714355" lon="12.107047979883001"><ele>599.0</ele><time>2026-03-28T09:53:52.001Z</time></trkpt><trkpt lat="43.23460644513688" lon="12.1069664978274"><ele>598.0</ele><time>2026-03-28T09:53:54.001Z</time></trkpt><trkpt lat="43.23457517402558" lon="12.106836406365405"><ele>597.0</ele><time>2026-03-28T09:53:57.001Z</time></trkpt><trkpt lat="43.23453917683567" lon="12.106716171378274"><ele>597.0</ele><time>2026-03-28T09:53:59.001Z</time></trkpt><trkpt lat="43.23447778267725" lon="12.106659925770106"><ele>597.0</ele><time>2026-03-28T09:54:03.001Z</time></trkpt><trkpt lat="43.234350101776485" lon="12.10678549108591"><ele>597.0</ele><time>2026-03-28T09:54:13.001Z</time></trkpt><trkpt lat="43.234416498167484" lon="12.106735099358007"><ele>597.0</ele><time>2026-03-28T09:54:22.001Z</time></trkpt><trkpt lat="43.234348794665216" lon="12.106715086393999"><ele>597.0</ele><time>2026-03-28T09:54:26.001Z</time></trkpt><trkpt lat="43.23435762307112" lon="12.106802576074653"><ele>597.0</ele><time>2026-03-28T09:54:28.001Z</time></trkpt></trkseg></trk></gpx>